[[{"header":{"parameterUnit":"m.s-1","parameterCategory":1,"la1":30.6,"la2":29.2853,"lo1":-89.7004,"lo2":-87.6739,"dy":0.0162,"dx":0.0183,"nx":112,"ny":82,"refTime":"2023-03-07T06:00:00:Z","depth":0,"parameterNumber":2,"parameterNumberName":"U-component_of_WINDS"},"data":[0.0,0.0,0.0,0.0,0.0,0.0,0.0,0.0,0.0,0.0,0.0,0.0,0.0,0.0,0.0,0.0,0.0,0.0,0.0,0.0,0.0,0.0,0.0,0.0,0.0,0.0,0.0,0.0,0.0,0.0,0.0,0.0,0.0,0.0,0.0,0.0,0.0,0.0,0.0,0.0,0.0,0.0,0.0,0.0,0.0,0.0,0.0,0.0,0.0,0.0,0.0,0.0,0.0,0.0,0.0,0.0,0.0,0.0,0.0,0.0,0.0,0.0,0.0,0.0,0.0,0.0,0.0,0.0,0.0,0.0,0.0,0.0,0.0,0.0,0.0,0.0,0.0,0.0,0.0,0.0,0.0,0.0,0.0,0.0,0.0,0.0,0.0,0.0,0.0,0.0,-1.8648,-2.0556,-2.3448,-2.4779,-2.3557,-2.2555,-2.166,-2.0942,0.0,0.0,0.0,0.0,0.0,0.0,0.0,0.0,0.0,0.0,0.0,0.0,0.0,0.0,0.0,0.0,0.0,0.0,0.0,0.0,0.0,0.0,0.0,0.0,0.0,0.0,0.0,0.0,0.0,0.0,0.0,0.0,0.0,0.0,0.0,0.0,0.0,0.0,0.0,0.0,0.0,0.0,0.0,0.0,0.0,0.0,0.0,0.0,0.0,0.0,0.0,0.0,0.0,0.0,0.0,0.0,0.0,0.0,0.0,0.0,0.0,0.0,0.0,0.0,0.0,0.0,0.0,0.0,0.0,0.0,0.0,0.0,0.0,0.0,0.0,0.0,0.0,0.0,0.0,0.0,0.0,0.0,0.0,0.0,0.0,0.0,0.0,0.0,0.0,0.0,0.0,0.0,0.0,0.0,0.0,0.0,0.0,0.0,0.0,0.0,0.0,0.0,0.0,0.0,-1.9451,-2.2801,-2.4087,-2.4563,-2.4179,-2.2446,-2.1093,-2.0462,0.0,0.0,0.0,0.0,0.0,0.0,0.0,0.0,0.0,0.0,0.0,0.0,0.0,0.0,0.0,0.0,0.0,0.0,0.0,0.0,0.0,0.0,0.0,0.0,0.0,0.0,0.0,0.0,0.0,0.0,0.0,0.0,0.0,0.0,0.0,0.0,0.0,0.0,0.0,0.0,0.0,0.0,0.0,0.0,0.0,0.0,0.0,0.0,0.0,0.0,0.0,0.0,0.0,0.0,0.0,0.0,0.0,0.0,0.0,0.0,0.0,0.0,0.0,0.0,0.0,0.0,0.0,0.0,0.0,0.0,0.0,0.0,0.0,0.0,0.0,0.0,0.0,0.0,0.0,0.0,0.0,0.0,0.0,0.0,0.0,0.0,0.0,0.0,0.0,0.0,0.0,0.0,0.0,0.0,0.0,0.0,0.0,0.0,0.0,0.0,0.0,0.0,0.0,-1.9089,-2.0994,-2.2968,-2.4336,-2.4687,-2.3542,-2.1879,-2.0673,-2.001,-1.9086,0.0,0.0,0.0,0.0,0.0,0.0,0.0,0.0,0.0,0.0,0.0,0.0,0.0,0.0,0.0,0.0,0.0,0.0,0.0,0.0,0.0,0.0,0.0,0.0,0.0,0.0,0.0,0.0,0.0,0.0,0.0,0.0,0.0,0.0,0.0,0.0,0.0,0.0,0.0,0.0,0.0,0.0,0.0,0.0,0.0,0.0,0.0,0.0,0.0,0.0,0.0,0.0,0.0,0.0,0.0,0.0,0.0,0.0,0.0,0.0,0.0,0.0,0.0,0.0,0.0,0.0,0.0,0.0,0.0,0.0,0.0,0.0,0.0,0.0,0.0,0.0,0.0,0.0,0.0,0.0,0.0,0.0,0.0,0.0,0.0,0.0,0.0,0.0,0.0,0.0,0.0,0.0,0.0,0.0,0.0,0.0,0.0,0.0,0.0,0.0,0.0,0.0,-2.0164,-2.1853,-2.2607,-2.4018,-2.432,-2.279,-2.134,-2.0188,-1.9545,-1.8499,0.0,0.0,0.0,0.0,0.0,0.0,0.0,0.0,0.0,0.0,0.0,0.0,0.0,0.0,0.0,0.0,0.0,0.0,0.0,0.0,0.0,0.0,0.0,0.0,0.0,0.0,0.0,0.0,0.0,0.0,0.0,0.0,0.0,0.0,0.0,0.0,0.0,0.0,0.0,0.0,0.0,0.0,0.0,0.0,0.0,0.0,0.0,0.0,0.0,0.0,0.0,0.0,0.0,0.0,0.0,0.0,0.0,0.0,0.0,0.0,0.0,0.0,0.0,0.0,0.0,0.0,0.0,0.0,0.0,0.0,0.0,0.0,0.0,0.0,0.0,0.0,0.0,0.0,0.0,0.0,0.0,0.0,0.0,0.0,0.0,0.0,0.0,0.0,0.0,0.0,0.0,0.0,0.0,0.0,0.0,0.0,0.0,0.0,0.0,0.0,0.0,0.0,-1.9381,-2.085,-2.2431,-2.2793,-2.2811,-2.2623,-2.0854,-1.9521,-1.8976,-1.8281,0.0,0.0,0.0,0.0,0.0,0.0,0.0,0.0,0.0,0.0,0.0,0.0,0.0,0.0,0.0,0.0,0.0,0.0,0.0,0.0,0.0,0.0,0.0,0.0,0.0,0.0,0.0,0.0,0.0,0.0,0.0,0.0,0.0,0.0,0.0,0.0,0.0,0.0,0.0,0.0,0.0,0.0,0.0,0.0,0.0,0.0,0.0,0.0,0.0,0.0,0.0,0.0,0.0,0.0,0.0,0.0,0.0,0.0,0.0,0.0,0.0,0.0,0.0,0.0,0.0,0.0,0.0,0.0,0.0,0.0,0.0,0.0,0.0,0.0,0.0,0.0,0.0,0.0,0.0,0.0,0.0,0.0,0.0,0.0,0.0,0.0,0.0,0.0,0.0,0.0,0.0,0.0,0.0,0.0,0.0,0.0,0.0,0.0,0.0,0.0,0.0,0.0,-1.9885,-2.1361,0.0,-2.279,-2.2774,-2.1627,-2.0492,-1.9405,-1.8438,0.0,0.0,0.0,0.0,0.0,0.0,0.0,0.0,0.0,0.0,0.0,0.0,0.0,0.0,0.0,0.0,0.0,0.0,0.0,0.0,0.0,0.0,0.0,0.0,0.0,0.0,0.0,0.0,0.0,0.0,0.0,0.0,0.0,0.0,0.0,0.0,0.0,0.0,0.0,0.0,0.0,0.0,0.0,0.0,0.0,0.0,0.0,0.0,0.0,0.0,0.0,0.0,0.0,0.0,0.0,0.0,0.0,0.0,0.0,0.0,0.0,0.0,0.0,0.0,0.0,0.0,0.0,0.0,0.0,0.0,0.0,0.0,0.0,0.0,0.0,0.0,0.0,0.0,0.0,0.0,0.0,0.0,0.0,0.0,0.0,0.0,0.0,0.0,0.0,0.0,0.0,0.0,0.0,0.0,0.0,0.0,0.0,0.0,0.0,0.0,0.0,0.0,-1.81,-1.9612,-2.0828,0.0,-2.2007,-2.1901,-2.0677,-1.9628,-1.8694,-1.792,0.0,0.0,0.0,0.0,0.0,0.0,0.0,0.0,0.0,0.0,0.0,0.0,0.0,0.0,0.0,0.0,0.0,0.0,0.0,0.0,0.0,0.0,0.0,0.0,0.0,0.0,0.0,0.0,0.0,0.0,0.0,0.0,0.0,0.0,0.0,0.0,0.0,0.0,0.0,0.0,0.0,0.0,0.0,0.0,0.0,0.0,0.0,0.0,0.0,0.0,0.0,0.0,0.0,0.0,0.0,0.0,0.0,0.0,0.0,0.0,0.0,0.0,0.0,0.0,0.0,0.0,0.0,0.0,0.0,0.0,0.0,0.0,0.0,0.0,0.0,0.0,0.0,0.0,0.0,0.0,0.0,0.0,0.0,0.0,0.0,0.0,0.0,0.0,0.0,0.0,0.0,0.0,0.0,0.0,0.0,0.0,0.0,0.0,0.0,0.0,0.0,0.0,-1.8053,-1.8216,-1.8844,-2.0529,-2.015,-1.9798,-1.9786,-1.8202,-1.7248,0.0,0.0,0.0,0.0,0.0,0.0,0.0,0.0,0.0,0.0,0.0,0.0,0.0,0.0,0.0,0.0,0.0,0.0,0.0,0.0,0.0,0.0,0.0,0.0,0.0,0.0,0.0,0.0,0.0,0.0,0.0,0.0,0.0,0.0,0.0,0.0,0.0,0.0,0.0,0.0,0.0,0.0,0.0,0.0,0.0,0.0,0.0,0.0,0.0,0.0,0.0,0.0,0.0,0.0,0.0,0.0,0.0,0.0,0.0,0.0,0.0,0.0,0.0,0.0,0.0,0.0,0.0,0.0,0.0,0.0,0.0,0.0,0.0,0.0,0.0,0.0,0.0,0.0,0.0,0.0,0.0,0.0,0.0,0.0,0.0,0.0,0.0,0.0,0.0,0.0,0.0,0.0,0.0,0.0,0.0,0.0,0.0,0.0,0.0,0.0,0.0,0.0,0.0,-1.8053,-1.8543,-1.9108,-1.9962,-2.0275,-1.9936,-1.8781,-1.7865,-1.7156,-1.6785,0.0,0.0,0.0,0.0,0.0,0.0,0.0,0.0,0.0,0.0,0.0,0.0,0.0,0.0,0.0,0.0,0.0,0.0,0.0,0.0,0.0,0.0,0.0,0.0,0.0,0.0,0.0,0.0,0.0,0.0,0.0,0.0,0.0,0.0,0.0,0.0,0.0,0.0,0.0,0.0,0.0,0.0,0.0,0.0,0.0,0.0,0.0,0.0,0.0,0.0,0.0,0.0,0.0,0.0,0.0,0.0,0.0,0.0,0.0,0.0,0.0,0.0,0.0,0.0,0.0,0.0,0.0,0.0,0.0,0.0,0.0,0.0,0.0,0.0,0.0,0.0,0.0,0.0,0.0,0.0,0.0,0.0,0.0,0.0,0.0,0.0,0.0,0.0,0.0,0.0,0.0,0.0,0.0,0.0,0.0,0.0,0.0,0.0,0.0,0.0,0.0,0.0,-1.8053,-1.8493,-1.8982,-1.9723,-1.9924,-1.9522,-1.8304,-1.7488,-1.6785,-1.622,0.0,0.0,0.0,0.0,0.0,0.0,0.0,0.0,0.0,0.0,0.0,0.0,0.0,0.0,0.0,0.0,0.0,0.0,0.0,0.0,0.0,0.0,0.0,0.0,0.0,0.0,0.0,0.0,0.0,0.0,0.0,0.0,0.0,0.0,0.0,0.0,0.0,0.0,0.0,0.0,0.0,0.0,0.0,0.0,0.0,0.0,0.0,0.0,0.0,0.0,0.0,0.0,0.0,0.0,0.0,0.0,0.0,0.0,0.0,0.0,0.0,0.0,0.0,0.0,0.0,0.0,0.0,0.0,0.0,0.0,0.0,0.0,0.0,0.0,0.0,0.0,0.0,0.0,0.0,0.0,0.0,0.0,0.0,0.0,0.0,0.0,0.0,0.0,0.0,0.0,0.0,0.0,0.0,0.0,0.0,0.0,0.0,0.0,0.0,0.0,0.0,0.0,-1.7959,-1.8157,-1.8618,-1.9685,-1.9384,-1.8857,-1.8254,-1.7225,-1.6291,-1.569,0.0,0.0,0.0,0.0,0.0,0.0,0.0,0.0,0.0,0.0,0.0,0.0,0.0,0.0,0.0,0.0,0.0,0.0,0.0,0.0,0.0,0.0,0.0,0.0,0.0,0.0,0.0,0.0,0.0,0.0,0.0,0.0,0.0,0.0,0.0,0.0,0.0,0.0,0.0,0.0,0.0,0.0,0.0,0.0,0.0,0.0,0.0,0.0,0.0,0.0,0.0,0.0,0.0,0.0,0.0,0.0,0.0,0.0,0.0,0.0,-1.8589,0.0,0.0,0.0,0.0,0.0,0.0,0.0,0.0,0.0,0.0,0.0,0.0,0.0,0.0,0.0,0.0,0.0,0.0,0.0,0.0,0.0,0.0,0.0,0.0,0.0,0.0,0.0,0.0,0.0,0.0,0.0,0.0,0.0,0.0,0.0,0.0,0.0,0.0,0.0,0.0,0.0,-1.7399,-1.7894,-1.8618,-1.9685,-1.9698,-1.9246,-1.8292,-1.7589,-1.6629,-1.5235,-1.427,0.0,0.0,0.0,0.0,0.0,0.0,0.0,0.0,0.0,0.0,0.0,0.0,0.0,0.0,0.0,0.0,0.0,0.0,0.0,0.0,0.0,0.0,0.0,0.0,0.0,0.0,0.0,0.0,0.0,0.0,0.0,0.0,0.0,0.0,0.0,0.0,0.0,0.0,0.0,0.0,0.0,0.0,0.0,0.0,0.0,0.0,0.0,0.0,0.0,0.0,0.0,0.0,0.0,0.0,0.0,0.0,0.0,0.0,0.0,0.0,-1.9504,0.0,0.0,0.0,0.0,0.0,0.0,0.0,0.0,0.0,0.0,0.0,0.0,0.0,0.0,0.0,0.0,0.0,0.0,0.0,0.0,0.0,0.0,0.0,0.0,0.0,0.0,0.0,0.0,0.0,0.0,0.0,0.0,0.0,0.0,0.0,0.0,0.0,0.0,0.0,0.0,-1.7603,-1.769,-1.824,-1.9634,-1.9241,-1.8709,-1.8219,-1.7433,-1.6317,-1.4995,-1.4293,0.0,0.0,0.0,0.0,0.0,0.0,0.0,0.0,0.0,0.0,0.0,0.0,0.0,0.0,0.0,0.0,0.0,0.0,0.0,0.0,0.0,0.0,0.0,0.0,0.0,0.0,0.0,0.0,0.0,0.0,0.0,0.0,0.0,0.0,0.0,0.0,0.0,0.0,0.0,0.0,0.0,0.0,0.0,0.0,0.0,0.0,0.0,0.0,0.0,0.0,0.0,0.0,0.0,-2.5455,-2.6312,-2.6877,-2.6556,-2.6387,-2.6302,-2.4594,-2.2546,-2.0381,-1.9843,0.0,0.0,0.0,0.0,0.0,0.0,0.0,0.0,0.0,0.0,0.0,0.0,0.0,0.0,0.0,0.0,0.0,0.0,0.0,0.0,0.0,0.0,0.0,0.0,-1.8016,-1.8091,-1.7162,0.0,0.0,0.0,0.0,0.0,0.0,0.0,0.0,0.0,0.0,0.0,-1.7507,-1.7301,-1.7656,-1.9261,-1.849,-1.787,-1.7934,-1.6979,-1.588,-1.4696,-1.4485,-1.3933,0.0,0.0,0.0,0.0,0.0,0.0,0.0,0.0,0.0,0.0,0.0,0.0,0.0,0.0,0.0,0.0,0.0,0.0,0.0,0.0,0.0,0.0,0.0,0.0,0.0,0.0,0.0,0.0,0.0,0.0,0.0,0.0,-2.068,-1.9777,0.0,0.0,0.0,0.0,0.0,0.0,0.0,0.0,0.0,0.0,0.0,0.0,0.0,-2.5258,-2.519,-2.6904,-2.7289,-2.6334,-2.798,-2.8391,-2.7723,-2.8958,-2.9516,-2.9533,-2.9871,0.0,-2.2844,-2.1731,0.0,0.0,0.0,0.0,0.0,0.0,0.0,0.0,0.0,0.0,0.0,0.0,0.0,0.0,0.0,0.0,0.0,0.0,0.0,0.0,0.0,0.0,-1.7438,-1.8543,-1.8869,-1.8833,0.0,-1.8003,-1.7388,-1.7388,-1.6974,0.0,0.0,0.0,0.0,0.0,0.0,0.0,-1.5571,-1.6317,-1.7123,-1.7784,-1.773,-1.7438,-1.7006,-1.6508,-1.5564,-1.4018,-1.3531,-1.3014,-1.2319,-1.246,0.0,0.0,0.0,0.0,0.0,0.0,0.0,0.0,0.0,0.0,0.0,0.0,0.0,0.0,0.0,0.0,0.0,0.0,0.0,0.0,0.0,0.0,0.0,0.0,0.0,0.0,0.0,0.0,0.0,-2.0946,-2.1236,-1.9395,-2.0671,-2.1178,0.0,0.0,0.0,0.0,0.0,0.0,0.0,0.0,0.0,-2.5298,-2.7507,-2.8334,-2.7583,-2.9285,-2.9864,-2.9245,-3.0668,-3.1196,-3.0987,-3.1664,-3.1968,-3.1985,-3.2307,-3.0903,-2.8161,-2.5159,-2.2899,-2.1183,0.0,0.0,0.0,0.0,-1.859,-1.8592,-1.8212,-1.791,-1.7647,-1.7514,0.0,0.0,0.0,0.0,0.0,0.0,0.0,0.0,0.0,0.0,-1.8581,-1.9685,-2.0188,-2.0326,-2.0012,-1.9309,-1.8656,0.0,-1.7548,-1.6914,-1.6908,0.0,0.0,0.0,0.0,-1.5006,-1.5694,-1.6029,-1.6559,-1.7522,-1.7246,-1.6841,-1.6506,-1.5983,-1.5096,-1.3879,-1.3273,-1.2852,-1.2598,-1.2598,-1.2686,0.0,0.0,0.0,0.0,0.0,0.0,0.0,0.0,0.0,0.0,0.0,0.0,0.0,0.0,0.0,0.0,0.0,0.0,0.0,0.0,0.0,0.0,0.0,0.0,0.0,0.0,0.0,0.0,-2.138,-2.2023,-1.959,-2.169,-2.2727,0.0,0.0,0.0,0.0,0.0,0.0,-2.5757,-2.8666,-3.0002,-2.9355,-3.1338,-3.1882,-3.0779,-3.2263,-3.2769,-3.2341,-3.3379,-3.3926,-3.3964,-3.3964,-3.3964,-3.3964,-3.3964,-3.3541,-3.2502,-2.8284,-2.533,-2.3295,-2.161,-2.095,-2.0941,-2.0911,-2.1006,-2.107,-2.0897,-2.0681,-2.0359,-1.9763,-1.8938,-1.8064,-1.717,0.0,0.0,0.0,0.0,-1.6773,-1.7752,-1.8932,-2.0075,-2.0891,-2.1506,-2.1757,-2.1204,-2.0639,-1.9999,0.0,-1.8216,-1.7605,-1.773,0.0,0.0,0.0,0.0,-1.4831,-1.5706,-1.5687,-1.5995,-1.6925,-1.6528,-1.6102,-1.5877,-1.5269,-1.4604,-1.3769,-1.3212,-1.2881,-1.2881,-1.2881,-1.2881,-1.2881,0.0,0.0,0.0,0.0,0.0,0.0,0.0,0.0,0.0,0.0,0.0,0.0,0.0,0.0,0.0,0.0,0.0,0.0,0.0,0.0,0.0,0.0,0.0,0.0,0.0,0.0,0.0,0.0,0.0,-2.1155,-2.42,0.0,0.0,0.0,0.0,-2.7438,-2.8341,-2.9126,-2.9861,-3.2228,-3.3716,-3.4045,-3.5634,-3.6381,-3.6145,-3.6904,-3.6655,-3.5402,-3.6226,-3.6226,-3.5504,-3.5504,-3.5504,-3.5504,-3.5504,-3.5081,-3.41,-3.0357,-2.8272,-2.7187,-2.4798,-2.3803,-2.3625,-2.287,-2.2438,-2.2125,-2.1498,-2.1114,-2.1051,-2.2131,-2.1626,-2.0475,-1.9646,-1.8505,0.0,0.0,-1.8548,-1.8933,-1.9535,-2.0903,-2.2159,-2.2221,-2.2648,-2.284,-2.2347,-2.1794,-2.0928,0.0,-1.8532,-1.8001,-1.7412,0.0,-1.5857,-1.5297,-1.4965,-1.4782,-1.4857,-1.5174,-1.5449,-1.5517,-1.5468,-1.5292,-1.4897,-1.4419,-1.3998,-1.3547,-1.3145,-1.2881,-1.2881,-1.2881,-1.2881,-1.2881,-1.2881,0.0,0.0,0.0,0.0,0.0,0.0,0.0,0.0,0.0,0.0,0.0,0.0,0.0,0.0,0.0,0.0,0.0,0.0,0.0,0.0,0.0,0.0,0.0,0.0,0.0,0.0,0.0,0.0,-2.6863,-2.869,0.0,-2.9495,-2.8984,-2.9333,-3.0862,-3.2176,-3.3264,-3.4082,-3.6413,-3.7784,-3.7935,-3.9013,-3.921,-3.8461,-3.8702,-3.8217,-3.7094,-3.7364,-3.711,-3.6366,-3.6366,-3.6096,-3.5622,-3.5622,-3.5211,-3.4409,-3.2619,-3.0964,-2.9239,-2.6681,-2.5667,-2.5603,-2.5332,-2.5135,-2.5025,-2.4713,-2.4351,-2.3774,-2.3084,-2.1979,-2.0785,-2.0125,-1.9503,-1.8992,-1.8866,-1.9434,-2.0213,-2.074,-2.1857,-2.2937,-2.3301,-2.3552,-2.354,-2.2962,-2.241,-2.1744,-2.079,-1.955,-1.8673,-1.8749,-1.7438,-1.6187,-1.5701,-1.5569,-1.5365,-1.4841,-1.5146,-1.541,-1.541,-1.541,-1.5127,-1.4424,-1.4228,-1.3838,-1.3154,-1.2969,-1.2881,-1.2881,-1.2881,-1.2881,-1.2881,-1.2881,-1.2886,0.0,0.0,0.0,0.0,0.0,0.0,0.0,0.0,0.0,0.0,0.0,0.0,0.0,0.0,0.0,0.0,0.0,0.0,0.0,0.0,0.0,0.0,0.0,0.0,0.0,0.0,-2.9872,-3.1307,-3.288,-3.3813,-3.3778,-3.3189,-3.3456,-3.499,-3.6332,-3.7441,-3.8285,-4.0102,-4.1111,-4.1111,-4.1625,-4.1379,-4.027,-4.027,-3.9617,-3.8278,-3.8278,-3.7872,-3.7144,-3.6891,-3.6502,-3.5994,-3.574,-3.5513,-3.5274,-3.4037,-3.2886,-3.1646,-2.8935,-2.7775,-2.759,-2.759,-2.759,-2.7569,-2.7298,-2.6776,-2.6025,-2.4619,-2.3426,-2.2487,-2.2034,-2.1495,-2.0962,-2.0808,-2.1285,-2.187,-2.2246,-2.315,-2.4017,-2.423,-2.4406,-2.4381,-2.3828,-2.3276,-2.2774,-2.241,-2.0934,-1.9824,-1.9952,-1.8573,-1.7304,-1.6808,-1.6382,-1.5908,-1.53,-1.5332,-1.541,-1.541,-1.541,-1.5068,-1.4155,-1.4268,-1.3936,-1.2939,-1.3018,-1.3027,-1.2891,-1.3018,-1.3096,-1.3096,-1.3096,-1.2842,-1.2329,0.0,0.0,0.0,0.0,0.0,0.0,0.0,0.0,0.0,0.0,0.0,0.0,0.0,0.0,0.0,0.0,0.0,0.0,0.0,0.0,0.0,0.0,0.0,-2.6832,-3.0863,-3.393,-3.4236,-3.6545,-3.7866,-3.7197,-3.7451,-3.8303,-3.9882,-4.0726,-4.1534,-4.2304,-4.3075,-4.3497,-4.3497,-4.3497,-4.294,-4.181,-4.181,-4.0874,-3.9022,-3.9022,-3.865,-3.7922,-3.7161,-3.6806,-3.6772,-3.596,-3.6079,-3.6645,-3.4462,-3.3998,-3.4393,-3.1607,-3.0136,-2.9609,-2.9594,-2.9579,-2.949,-2.8831,-2.8158,-2.7488,-2.6774,-2.6159,-2.5747,-2.552,-2.4515,-2.3593,-2.4173,-2.4185,-2.4017,-2.4017,-2.4808,-2.5473,-2.4971,-2.5222,-2.546,-2.4958,-2.4406,-2.4017,-2.4017,-2.2698,-2.138,-2.0869,-2.0135,-1.938,-1.852,-1.7381,0.0,-1.6187,-1.5762,-1.5449,-1.5439,-1.5449,-1.5107,-1.4194,-1.4551,-1.4248,-1.2978,-1.3271,-1.3311,-1.29,-1.3271,-1.3486,-1.3486,-1.3445,-1.2757,-1.1313,0.0,0.0,0.0,0.0,0.0,0.0,0.0,0.0,0.0,0.0,0.0,0.0,0.0,0.0,0.0,0.0,0.0,0.0,0.0,0.0,0.0,0.0,-3.2102,-3.2102,-3.4611,-3.7375,-3.9872,-4.0438,-4.0999,-4.195,-4.1397,-4.1405,-4.2415,-4.2708,-4.2928,-4.3149,-4.3369,-4.3497,-4.3497,-4.3497,-4.294,-4.181,-4.181,-4.1153,-3.9783,-3.9783,-3.9394,-3.8667,-3.7922,-3.7601,-3.7516,-3.6197,-3.6038,-3.6622,-3.4489,-3.3752,-3.374,-3.1402,-3.0403,-3.0193,-2.9744,-2.9579,-2.949,-2.8831,-2.8472,-2.8233,-2.752,-2.7173,-2.6971,-2.6911,-2.6183,-2.5382,-2.5554,-2.5123,-2.4594,-2.4594,-2.5096,-2.5561,-2.5423,-2.5485,-2.5548,-2.541,-2.4971,-2.4594,-2.4594,-2.3904,-2.3,-2.2033,-2.135,-2.0729,-1.991,-1.9563,0.0,-1.7242,-1.7171,-1.694,-1.6038,-1.6172,-1.6016,-1.5137,-1.4893,-1.4365,-1.3398,-1.3164,-1.2998,-1.2881,-1.2988,-1.3047,-1.3047,-1.2782,-1.2175,0.0,0.0,0.0,0.0,0.0,0.0,0.0,0.0,0.0,0.0,0.0,0.0,0.0,0.0,0.0,0.0,0.0,0.0,0.0,0.0,0.0,0.0,-3.3795,-3.6834,-3.8219,-3.9531,-4.134,-4.402,-4.3742,-4.3587,-4.4177,-4.368,-4.3497,-4.3975,-4.4305,-4.4507,-4.4507,-4.4176,-4.4158,-4.4488,-4.3846,-4.3233,-4.2685,-4.2364,-4.1725,-4.0814,-4.0546,-4.0226,-3.9751,-3.8812,-3.8362,-3.8294,-3.7094,-3.7023,-3.7569,-3.5707,-3.4968,0.0,0.0,0.0,0.0,0.0,-3.0223,-2.9909,-2.9535,-2.922,-2.8951,-2.8547,-2.8388,-2.8316,-2.8052,-2.7314,-2.6492,-2.619,-2.5634,-2.5146,-2.5146,-2.5548,-2.5963,-2.5963,-2.5963,-2.5963,-2.5963,-2.5523,-2.5146,-2.5146,-2.4707,0.0,-2.3175,-2.2359,-2.1592,-2.0746,-2.0509,-1.9796,-1.8102,-1.7933,-1.7585,-1.6491,-1.6406,-1.6172,-1.5469,-1.5029,0.0,0.0,0.0,-1.3145,-1.3145,-1.3145,0.0,0.0,0.0,-1.2252,-1.1083,-1.087,0.0,0.0,-0.9512,-0.9633,0.0,0.0,0.0,0.0,0.0,0.0,0.0,0.0,0.0,0.0,0.0,0.0,0.0,0.0,0.0,0.0,-3.77,-4.1027,-4.4393,-4.4874,-4.5395,-4.6819,-4.6359,-4.5636,-4.4885,-4.4846,-4.4856,-4.4856,-4.5498,-4.5902,-4.5902,0.0,0.0,0.0,0.0,-4.3725,-4.3906,-4.309,-4.2342,-4.1664,-4.1178,-4.0856,-4.0763,-3.9569,-3.9039,-3.9073,-3.8261,-3.8362,-3.8989,-3.7453,-3.6694,-3.6246,-3.2886,-3.1541,-3.1482,-3.1482,-3.115,-3.0612,-3.0537,0.0,0.0,-2.9609,-2.9624,-2.9579,-2.8981,-2.815,-2.729,-2.6693,-2.6104,-2.5686,-2.5686,-2.6076,-2.6533,-2.6533,-2.6533,-2.6533,-2.6533,-2.605,-2.5686,-2.5686,-2.5272,-2.4757,-2.4268,-2.3251,-2.2225,-2.1344,-2.0948,-2.0264,-1.9048,-1.8603,-1.8071,-1.705,0.0,0.0,-1.5596,-1.5127,-1.4512,-1.3701,-1.3555,-1.3506,-1.3506,-1.3467,-1.3437,-1.3437,-1.3437,-1.2609,-1.0914,-1.0864,-1.0182,-0.8977,-0.9619,-0.9846,0.0,0.0,0.0,0.0,0.0,0.0,0.0,0.0,0.0,0.0,0.0,0.0,0.0,0.0,0.0,-3.8599,-4.1546,-4.4509,-4.7932,-4.8413,-4.8164,-4.7537,-4.7049,-4.66,-4.6177,-4.5867,-4.5663,-4.5663,-4.581,-4.5902,-4.5902,-4.5755,-4.5736,-4.5902,-4.4966,-4.4291,-4.3906,-4.309,-4.2162,-4.1087,0.0,0.0,-4.022,-3.9359,-3.9309,-3.9783,-3.8481,-3.865,-3.9699,-3.7669,-3.6136,-3.4898,-3.3061,-3.2003,-3.1482,-3.1482,-3.1392,-3.1255,-3.0702,-3.0417,-3.0238,-2.9744,-2.9924,-3.0298,-3.0178,-2.9434,0.0,-2.8505,-2.7458,-2.6302,-2.6302,-2.6445,-2.6533,-2.6533,-2.6533,-2.6533,-2.6533,-2.6445,-2.6302,-2.6302,-2.5837,-2.541,-2.5297,-2.4393,-2.3453,-2.2784,-2.2635,-2.2126,-2.0875,-2.0938,-2.0404,-1.8448,-1.8143,-1.7665,-1.6514,-1.5742,-1.5078,-1.457,-1.3887,-1.3506,-1.3506,-1.3184,-1.2998,-1.2998,-1.2998,-1.2537,-1.1616,-1.1065,-1.0514,-1.0009,-0.9357,-0.9158,0.0,0.0,0.0,0.0,0.0,0.0,0.0,0.0,0.0,0.0,0.0,-3.0706,0.0,0.0,-3.8581,-4.1867,-4.4201,-4.649,-4.9048,-4.9394,-4.9183,-4.8583,-4.7998,-4.741,-4.6794,-4.6601,-4.6507,-4.6507,-4.6874,-4.7095,-4.7095,-4.6728,-4.6691,-4.7095,-4.5553,-4.4766,-4.4909,-4.3688,-4.2657,-4.181,-4.149,-4.1059,-4.048,-3.9831,-3.9732,-4.0037,-3.9309,-3.9411,-3.9952,-3.8465,-3.7021,-3.5644,-3.4506,-3.3214,-3.1988,-3.1601,-3.1482,-3.1422,-3.1135,-3.1016,-3.0971,-3.0657,-3.0761,-3.0956,-3.0612,-2.9795,-2.8933,-2.8567,-2.7512,-2.6533,-2.6533,-2.6533,-2.6533,-2.6533,-2.6533,-2.6533,-2.6533,-2.6533,-2.6533,-2.6533,-2.6226,-2.5937,-2.5649,-2.5159,-2.4519,-2.369,-2.3565,-2.3046,-2.174,-2.1773,-2.1335,-1.9799,-1.8988,-1.8228,-1.7429,-1.595,-1.4912,-1.4492,-1.3857,-1.3506,-1.3506,-1.3105,-1.2978,-1.3193,-1.2988,-1.2769,-1.2471,-1.1921,-1.1292,-1.0602,-1.006,-0.9778,0.0,0.0,0.0,0.0,0.0,0.0,0.0,0.0,-2.9357,-3.1814,-3.3509,-3.5193,-3.7286,-3.9742,-4.2202,-4.4427,-4.6259,-4.7913,-4.9433,-4.9644,-4.9586,-4.9413,-4.8895,-4.8268,-4.756,-4.7389,-4.7352,-4.7352,-4.7939,-4.8306,-4.8306,-4.77,-4.7645,-4.8288,-4.6122,-4.5241,-4.5883,-4.4216,-4.3087,-4.2519,-4.1895,-4.1313,-4.0733,-4.0286,-4.007,-4.007,-4.007,-4.007,-4.007,-3.9368,-3.8292,-3.6926,-3.6153,-3.4662,-3.2796,-3.2018,-3.1661,-3.1704,-3.1526,-3.1482,-3.1497,-3.1616,-3.1661,-3.1614,-3.1061,-3.0203,-2.9261,-2.8526,-2.7669,-2.6904,-2.681,-2.6779,-2.6779,-2.6779,-2.6703,-2.6684,-2.6684,-2.6596,-2.6533,-2.6533,-2.6533,-2.6382,-2.585,-2.5762,-2.5398,-2.4318,-2.4067,-2.3567,-2.2478,-2.2197,-2.1815,-2.091,-1.9827,-1.8846,-1.8272,-1.6591,-1.532,-1.4795,-1.4235,-1.3856,-1.3633,-1.3301,-1.3242,-1.3506,-1.3262,-1.3202,-1.3304,-1.2823,-1.2107,-1.1168,-1.0994,-1.0632,-2.3173,-2.4305,-2.6179,-2.7532,-2.9042,-3.1237,0.0,0.0,-3.5496,-3.7358,-3.8446,-3.9334,-4.0198,-4.2442,-4.4698,-4.635,-4.8029,-4.9452,-5.0414,-5.0548,-5.026,-4.949,-4.9384,-4.9334,-4.9239,-4.8558,-4.8177,-4.8177,-4.8251,-4.8306,-4.8306,-4.8214,-4.8214,-4.8306,-4.6654,-4.581,-4.5902,-4.3813,-4.248,-4.1895,-4.1313,-4.0703,-4.0204,-4.0121,-4.007,-4.007,-4.007,-4.007,-4.007,-4.002,-3.9069,-3.763,-3.6917,-3.5677,-3.4098,-3.2856,-3.2407,-3.2317,-3.1676,-3.1482,-3.1571,-3.2213,-3.2407,-3.2392,-3.2317,-3.1674,-3.0782,-2.9836,-2.8946,-2.8183,-2.7986,-2.7921,-2.7921,-2.7921,-2.7544,-2.7193,-2.7193,-2.6804,-2.6533,-2.6533,-2.6533,-2.6508,-2.6445,-2.6433,-2.6,-2.4895,-2.4318,-2.3917,-2.3779,-2.3329,-2.2628,-2.1815,-2.128,-2.0449,-1.9227,-1.8516,-1.7805,-1.7106,-1.6161,-1.5126,-1.4072,-1.397,-1.3838,-1.3516,-1.3828,-1.398,-1.397,-1.3375,-1.2779,-1.2232,-1.1329,-1.0632,-2.8358,-2.818,-2.8491,0.0,-3.2943,-3.5191,-3.7533,-3.8104,-3.8787,-4.1049,-4.2115,-4.2863,-4.3587,-4.4967,-4.635,0.0,-4.8606,-4.9702,-5.0567,-5.026,-4.9798,-4.9433,-4.8585,-4.824,-4.8683,-4.8466,-4.8306,-4.8306,-4.8306,-4.8306,-4.8306,-4.8306,-4.8306,-4.8306,-4.7205,-4.6379,-4.5902,-4.4229,-4.2871,-4.1793,-4.1178,-4.0607,-4.007,-4.007,-4.007,-4.007,-4.007,-4.007,-4.007,-4.007,-3.9172,-3.7774,-3.747,-3.6453,-3.4921,-3.3574,-3.308,-3.3036,-3.2766,-3.2422,-3.2153,-3.2422,-3.2258,-3.2018,-3.2392,-3.1896,-3.1171,-3.1176,-3.0145,-2.9065,-2.8918,-2.8507,-2.8109,-2.8109,-2.7934,-2.7758,-2.7758,-2.7582,-2.7419,-2.7419,-2.7419,-2.7318,-2.6992,-2.6942,-2.6678,-2.5887,-2.5297,-2.4707,-2.4079,-2.3791,-2.3183,-2.2037,-2.1463,-2.0629,-1.9287,-1.8733,-1.8043,-1.6958,-1.6248,-1.5481,-1.4576,-1.4268,-1.417,-1.4248,-1.417,-1.4321,-1.4883,-1.4342,-1.3639,-1.2726,-1.2325,-1.1503,-3.0542,0.0,0.0,-3.4033,-3.6866,-3.9214,-4.0073,-4.0881,-4.1955,-4.3849,-4.4662,-4.5191,-4.5699,-4.6474,-4.7236,-4.7988,-4.8836,-4.9702,-5.0567,-4.9952,-4.9317,-4.9067,-4.7895,-4.7227,-4.7495,-4.7593,-4.7645,-4.7645,-4.7847,-4.7976,-4.7976,-4.8196,-4.8306,-4.8306,-4.7535,-4.6728,-4.5902,-4.4403,-4.3012,-4.181,-4.1059,-4.0497,-4.007,-4.007,-4.007,-4.007,-4.007,-4.007,-4.007,-4.007,-3.9332,-3.8092,-3.7863,-3.6995,-3.5661,-3.4727,-3.4089,-3.3739,-3.3559,-3.3185,-3.2826,-3.2991,-3.2736,-3.2437,-3.2901,-3.264,-3.2188,-3.2413,-3.1464,-3.0416,-3.0029,-2.945,-2.8905,-2.8635,-2.8448,-2.8335,-2.8335,-2.821,-2.8109,-2.8109,-2.8109,-2.7984,-2.7582,-2.7381,-2.7155,-2.6753,-2.6201,-2.5498,-2.4556,-2.418,-2.3517,-2.2383,-2.191,-2.1332,-2.0273,-1.9785,-1.9046,-1.7871,-1.7045,-1.6216,-1.5335,-1.4759,-1.458,-1.4785,-1.459,-1.4795,-1.541,-1.5107,-1.4408,-1.3312,-1.313,-1.2274,0.0,0.0,-3.3965,-3.7236,-4.0654,-4.3439,-4.4323,-4.514,-4.5724,-4.581,-4.584,-4.5843,-4.5815,-4.6474,-4.7236,-4.7988,-4.8836,-4.9702,-5.0567,-4.9952,-4.9086,-4.824,-4.775,-4.7067,0.0,-4.5923,-4.5975,-4.5975,-4.6709,-4.715,-4.715,-4.7884,-4.8306,-4.8306,-4.7535,-4.6728,-4.5902,-4.3989,-4.2597,-4.181,-4.0642,-4.0121,-4.007,-4.007,-4.007,-4.007,-4.007,-4.007,-4.007,-4.007,-3.961,-3.8799,-3.8092,-3.7279,-3.6538,-3.6507,-3.5614,-3.4352,-3.3724,-3.3484,-3.3574,-3.4203,-3.4412,-3.4382,-3.4412,-3.4412,-3.4207,-3.3303,-3.3039,-3.2684,-3.1481,-3.1127,-3.0843,-2.9947,-2.9315,-2.89,-2.89,-2.8486,-2.8109,-2.8109,-2.8109,-2.8097,-2.8084,-2.7632,-2.7268,-2.7256,-2.6791,-2.6214,-2.5624,-2.4632,-2.3778,-2.314,-2.3065,-2.304,-2.2955,-2.2514,-2.1885,-2.1141,-1.9414,-1.7899,-1.6676,-1.5823,-1.5186,-1.4795,-1.5176,-1.5391,-1.541,-1.54,-1.4972,-1.4145,-1.3373,-1.2573,0.0,0.0,-3.8336,-4.1634,-4.42,-4.5988,-4.6298,-4.6502,-4.6317,-4.5204,-4.4052,-4.3066,-4.2458,-4.3487,-4.4693,-4.55,-4.7758,-4.9702,-5.0567,-4.9952,-4.9086,-4.8202,-4.7274,0.0,0.0,0.0,0.0,-4.5938,-4.6654,-4.7113,-4.7113,-4.737,-4.7517,-4.7517,-4.6728,-4.592,-4.5112,-4.4111,-4.3012,-4.181,-4.0642,-4.007,-4.007,-4.007,-4.007,-4.007,-4.007,-4.007,-4.007,-4.007,-3.961,-3.8854,-3.8092,-3.7338,-3.6554,-3.6054,-3.5917,-3.583,-3.5615,-3.4956,-3.4188,-3.4412,-3.4188,-3.3903,-3.4352,-3.4472,-3.4498,-3.4688,-3.4236,-3.3632,-3.3185,-3.2105,-3.1106,-3.0833,-3.0126,-2.9503,-2.9503,-2.9365,-2.9227,-2.9227,-2.9227,-2.9101,-2.8712,-2.8499,-2.8134,-2.7394,-2.649,-2.5824,-2.5624,-2.4983,-2.433,-2.3766,-2.3703,-2.3401,-2.2648,-2.2422,-2.1599,-1.992,-1.8986,-1.7857,-1.6365,-1.5733,-1.5342,-1.5205,-1.5342,-1.541,-1.541,-1.541,-1.4991,-1.4204,-1.3906,-1.3053,0.0,-3.952,-4.1875,-4.5433,-4.6926,-4.7443,-4.7158,-4.679,-4.6027,-4.4346,-4.2377,-4.081,-4.0232,-4.0554,-4.1475,-4.325,-4.5343,-4.7545,-4.9932,-4.924,-4.8644,-4.899,-4.8066,-4.6892,0.0,0.0,0.0,-4.5165,-4.6324,-4.6837,-4.6287,-4.6801,-4.7113,-4.7113,-4.6324,-4.5645,-4.5131,-4.4111,-4.2803,-4.1196,-4.0466,-4.007,-4.007,-4.007,-4.007,-4.007,-4.007,-4.007,-4.007,-4.007,-3.961,-3.8854,-3.8092,-3.7338,-3.6554,-3.6054,-3.6165,-3.6554,-3.6275,-3.5765,-3.5228,-3.4958,-3.4562,-3.4292,-3.4726,-3.4846,-3.4936,-3.5385,-3.5052,-3.4461,-3.4095,-3.289,-3.1609,-3.1241,-3.0482,-2.9792,-2.9792,-2.9792,-2.9792,-2.9792,-2.9792,-2.9679,-2.9302,-2.9063,-2.8624,-2.7708,-2.6791,-2.605,-2.5649,-2.531,-2.4895,-2.4356,-2.4117,-2.3703,-2.2975,-2.2723,-2.1893,-2.022,-1.9258,-1.8185,-1.683,-1.5901,-1.541,-1.541,-1.541,-1.541,-1.541,-1.541,-1.5108,-1.4638,-1.4538,-1.3926,-4.1054,-4.3102,-4.4771,-4.8579,-4.8894,-4.8009,-4.7105,-4.6182,-4.5009,-4.322,-4.0823,-3.9017,0.0,0.0,-3.7989,-4.1326,-4.2049,-4.3933,-4.8868,-4.8179,-4.8048,0.0,0.0,0.0,0.0,0.0,0.0,-4.3965,0.0,-4.6452,-4.4911,-4.6287,-4.7113,-4.7113,-4.6287,-4.5847,-4.5847,-4.3894,-4.2002,-4.0121,-4.0121,-4.007,-4.007,-4.007,-4.007,-4.007,-4.007,-4.007,-4.007,-4.007,-3.9662,-3.8854,-3.8092,-3.7322,-3.6661,-3.6554,-3.6554,-3.6492,-3.5782,-3.6006,-3.6508,-3.5718,-3.5504,-3.5504,-3.5504,-3.5504,-3.5504,-3.5504,-3.5504,-3.5279,-3.4312,-3.338,-3.2464,-3.1536,-3.0558,-2.9856,-2.9856,-2.9869,-2.9792,-2.9792,-2.9792,-2.9792,-2.9792,-2.934,-2.8775,-2.8197,-2.7657,-2.6929,-2.5824,-2.5649,-2.5435,-2.4921,-2.4393,-2.4054,-2.4004,-2.3502,-2.2787,-2.1877,-2.0243,-1.8928,-1.8027,-1.6317,-1.5449,-1.5449,-1.5449,-1.543,-1.541,-1.543,-1.543,-1.5362,-1.5116,-1.4932,-4.5197,-4.8004,-5.0245,-5.1179,-5.0715,-4.949,-4.7375,-4.572,-4.364,-4.0092,-3.7353,-3.5021,0.0,0.0,0.0,-3.9715,-4.3701,0.0,-5.0028,-5.0529,0.0,-5.0683,0.0,-5.0753,-4.9434,-4.9219,0.0,0.0,-4.6946,-4.6929,-4.6526,-4.6893,-4.7113,-4.7113,-4.5755,-4.5021,-4.5021,-4.3086,-4.1639,-4.0703,-4.0286,-4.007,-4.007,-4.007,-4.007,-4.007,-4.007,-4.007,-4.007,-4.007,-3.9952,-3.9662,-3.8318,-3.769,-3.7338,-3.618,-3.6117,-3.6492,-3.5782,-3.6006,-3.6508,-3.5718,-3.5504,-3.5504,-3.5504,-3.5504,-3.5504,-3.5504,-3.5504,-3.5439,-3.5198,-3.4394,-3.3602,-3.331,-3.2033,-3.0833,-3.0833,-3.0279,-2.9792,-2.9792,-2.9792,-2.9792,-2.9792,-2.9666,-2.9239,-2.826,-2.7984,-2.7645,-2.6942,-2.649,-2.6025,-2.546,-2.5272,-2.487,-2.4067,-2.3866,-2.2946,-2.1071,-2.0195,-1.9116,-1.7586,-1.6481,-1.5898,-1.5898,-1.5898,-1.5732,-1.541,-1.5732,-1.5732,-1.542,-1.567,-1.5496,-4.9337,-5.1503,-5.2841,-5.269,-5.1674,-4.974,-4.6082,-4.3871,-4.1331,-3.6793,-3.3848,0.0,-3.0287,0.0,0.0,0.0,0.0,0.0,-4.9161,-5.0298,-5.1048,0.0,-5.2529,0.0,-5.0794,-5.076,-5.0147,0.0,-4.7885,-4.7333,-4.6617,-4.6929,-4.7113,-4.7113,-4.5553,-4.4418,-4.3816,-4.2499,-4.149,-4.0903,-4.0368,-4.007,-4.007,-4.007,-4.007,-4.007,0.0,-4.007,-4.007,-4.007,-3.9901,-3.9437,-3.8262,-3.7573,-3.716,-3.5973,-3.5943,-3.6492,-3.5782,-3.6006,-3.6508,-3.5718,-3.5504,-3.5504,-3.5504,-3.5504,-3.5504,-3.5504,-3.5504,-3.5504,-3.5504,-3.4758,-3.4027,-3.4027,-3.289,-3.1815,-3.1815,-3.1044,-3.0279,-2.9856,-2.9792,-2.9792,-2.9792,-2.9792,-2.9578,-2.8938,-2.8423,-2.7996,-2.7682,-2.6954,-2.6339,-2.6013,-2.5749,-2.5259,-2.4431,-2.4142,-2.3168,-2.1273,-2.037,-1.9291,-1.7995,-1.6898,-1.6357,-1.6357,-1.6357,-1.623,-1.5996,-1.623,-1.623,-1.6006,-1.6436,-1.6442,-5.2918,-5.3922,-5.3821,-5.3485,-5.1945,-4.9182,-4.4094,-4.1405,-3.8561,-3.353,0.0,-2.9071,-2.8964,-2.9939,-3.1912,-3.5445,0.0,-4.2665,-4.7673,-4.9143,-5.0587,-5.2914,-5.3972,-5.3772,-5.1907,-5.2144,-5.1516,-4.9323,-4.866,-4.7757,-4.6287,-4.6893,-4.7223,-4.7113,-4.5645,-4.4236,-4.2856,-4.2157,-4.149,-4.0903,-4.0368,-4.007,-4.007,-4.007,-4.007,-4.007,-4.007,-4.007,-4.007,-4.007,-3.9662,-3.8978,-3.8149,-3.7397,-3.6676,-3.5782,-3.5879,-3.6384,-3.5733,-3.5958,-3.6337,-3.5733,-3.5504,-3.5504,-3.5504,-3.5504,-3.5504,-3.5504,-3.5504,-3.5504,-3.5504,-3.4839,-3.4177,-3.4177,-3.3463,-3.282,-3.282,-3.196,-3.0895,-2.9998,-2.9792,-2.9792,-2.9792,-2.9792,-2.9767,-2.9691,-2.885,-2.8185,-2.8109,-2.7143,-2.6533,-2.6533,-2.6013,-2.5498,-2.4971,-2.4418,-2.3542,-2.2083,-2.0733,-1.9566,-1.8754,-1.747,-1.6816,-1.6816,-1.6758,-1.6636,-1.6641,-1.6641,-1.6641,-1.665,-1.709,-1.7334,-5.4147,-5.51,-5.5157,-5.3751,-5.1501,-4.8279,-4.3198,-3.9604,0.0,0.0,-2.8945,-2.7952,-2.7273,-2.9535,-3.2863,-3.7019,0.0,0.0,0.0,0.0,-5.1914,0.0,0.0,0.0,0.0,0.0,0.0,0.0,0.0,-4.8546,-4.794,-4.8031,-4.781,-4.7094,-4.6195,-4.5058,-4.3707,-4.2424,-4.149,-4.0903,-4.0368,-4.007,-4.007,-4.007,-4.007,-4.007,-4.007,0.0,-4.007,-4.007,-4.002,-3.9731,-3.8318,-3.769,-3.7397,-3.6022,-3.5554,-3.5668,-3.5554,-3.5554,-3.5668,-3.5569,-3.5504,-3.5504,-3.5504,-3.5504,-3.5504,-3.5504,-3.5504,-3.5504,-3.5504,-3.5359,-3.5213,-3.5213,-3.4476,-3.3739,-3.3739,-3.2393,-3.0895,-2.9998,-2.9792,-2.9792,-2.9792,-2.9792,-2.9628,-2.9151,-2.8913,-2.8624,-2.816,-2.7143,-2.6533,-2.6533,-2.6445,-2.6076,-2.5511,-2.4983,-2.4035,-2.2619,-2.125,-2.0083,-1.9238,-1.7931,-1.7275,-1.7275,-1.6914,-1.6553,-1.6182,-1.6182,-1.6182,-1.6191,-1.6641,-1.7041,-5.4996,-5.5741,-5.5401,-5.3266,-5.1057,-4.7605,-4.075,0.0,0.0,0.0,-2.6891,-2.6467,-2.6088,0.0,0.0,0.0,0.0,0.0,0.0,0.0,0.0,0.0,0.0,0.0,0.0,0.0,0.0,0.0,0.0,-4.893,-4.8326,-4.8306,-4.7755,-4.6526,-4.6104,-4.5187,-4.3707,-4.2739,-4.1979,-4.1358,-4.0797,-4.0368,-4.007,-4.007,-4.007,-4.007,-4.007,-4.007,-4.007,-4.007,-4.007,-3.9952,-3.8816,-3.8149,-3.7648,-3.6523,-3.5831,-3.5504,-3.5504,-3.5504,-3.5504,-3.5504,-3.5504,-3.5504,-3.5504,-3.5504,-3.5504,-3.5504,-3.5504,-3.5504,-3.5504,-3.5504,-3.5504,-3.5504,-3.5133,-3.4476,-3.3463,-3.2522,-3.1549,-3.0075,-2.9792,-2.9792,-2.9792,-2.9792,-2.9691,-2.9415,-2.9114,-2.8837,-2.8561,-2.7821,-2.7205,-2.6917,-2.6697,-2.6226,-2.5649,-2.536,-2.4663,-2.345,-2.1899,-2.0729,-2.002,-1.8517,-1.7705,-1.7705,-1.751,-1.7285,-1.708,-1.708,-1.708,-1.708,-1.7305,-1.751,-5.4905,-5.5695,-5.5258,-5.2685,-5.0598,-4.695,-3.8681,-3.5303,0.0,0.0,-2.5523,-2.5697,-2.5898,0.0,0.0,0.0,0.0,0.0,0.0,0.0,0.0,0.0,0.0,0.0,0.0,0.0,0.0,0.0,0.0,0.0,-4.8344,-4.8306,-4.7645,-4.6195,-4.5993,-4.5278,-4.403,-4.3158,-4.2472,-4.2041,-4.1248,-4.0607,-4.007,-4.007,-4.007,-4.007,-4.007,-4.007,-4.007,-4.007,-4.007,-4.002,-3.9032,-3.8302,-3.769,-3.6753,-3.6006,-3.5504,-3.5504,-3.5504,-3.5504,-3.5504,-3.5504,-3.5504,-3.5504,-3.5504,-3.5504,-3.5504,-3.5504,-3.5504,-3.5504,-3.5504,-3.5504,-3.5504,-3.5504,-3.4986,-3.3031,-3.2593,-3.2046,-3.0139,-2.9792,-2.9792,-2.9792,-2.9792,-2.9792,-2.9792,-2.9402,-2.9114,-2.9114,-2.8524,-2.7946,-2.7507,-2.6967,-2.6402,-2.5824,-2.5661,-2.5234,-2.4393,-2.2509,-2.1216,-2.077,-1.8972,-1.8008,-1.8008,-1.792,-1.7871,-1.7871,-1.7783,-1.7783,-1.7871,-1.7871,-1.793,-5.305,-5.4572,-5.511,-5.255,-5.0048,-4.6201,-3.8469,0.0,0.0,-2.637,-2.5928,-2.6727,-2.7516,-2.8516,-3.0537,0.0,0.0,0.0,0.0,0.0,0.0,0.0,0.0,0.0,0.0,0.0,0.0,0.0,0.0,0.0,-4.8326,-4.8306,-4.7902,-4.704,-4.6287,-4.5828,-4.5681,-4.3703,-4.2741,-4.2863,-4.1538,-4.0607,-4.007,-4.007,-4.007,-4.007,-4.007,0.0,0.0,-4.007,-4.007,-3.9952,-3.8486,-3.7863,-3.7648,-3.6133,-3.5554,-3.5504,-3.5504,-3.5504,-3.5504,-3.5504,-3.5504,-3.5504,-3.5504,-3.5504,-3.5504,-3.5504,-3.5504,-3.5504,-3.5504,-3.5504,-3.5504,-3.5504,-3.5504,-3.4986,-3.3031,-3.2593,-3.2046,-3.0139,-2.9792,-2.9792,-2.9792,-2.9792,-2.9792,-2.9792,-2.9741,-2.9716,-2.9716,-2.8775,-2.8084,-2.8034,-2.7544,-2.6979,-2.6427,-2.59,-2.5548,-2.5448,-2.2885,-2.1374,-2.1329,-1.9194,-1.8008,-1.8008,-1.7637,-1.7441,-1.7441,-1.7041,-1.7051,-1.7441,-1.7441,-1.7646,-5.2069,-5.3683,-5.3703,-5.1683,-4.8489,-4.4155,-3.7488,0.0,-3.0282,-2.614,-2.5986,-2.6717,-2.7044,-2.8198,-2.966,0.0,0.0,0.0,0.0,0.0,0.0,0.0,0.0,0.0,0.0,0.0,0.0,0.0,0.0,0.0,-4.7988,-4.7703,-4.7223,-4.6416,-4.5608,-4.4947,-4.4452,-4.3615,-4.3047,-4.2808,-4.1892,-4.1133,-4.0577,-4.0254,-4.007,-4.007,-4.007,0.0,0.0,-4.007,-4.007,-4.002,-3.887,-3.8206,-3.769,-3.6585,-3.5894,-3.5504,-3.5504,-3.5504,-3.5504,-3.5504,-3.5504,-3.5504,-3.5504,-3.5504,-3.5504,-3.5504,-3.5504,-3.5504,-3.5504,-3.5504,-3.5504,-3.5504,-3.5504,-3.5133,-3.3739,-3.3031,-3.2177,-3.0908,-3.0216,-2.9792,-2.9792,-2.9792,-2.9792,-2.9792,-2.9792,-2.9792,-2.9792,-2.9402,-2.8863,-2.8185,-2.7318,-2.6703,-2.6546,-2.6251,-2.5622,-2.4396,-2.3096,-2.1675,-2.0203,-1.8998,-1.8271,-1.8018,-1.7842,-1.7764,-1.7764,-1.7588,-1.7598,-1.7764,-1.7764,-1.7562,-4.9335,-5.151,-5.1991,-5.0048,-4.6583,-4.2133,0.0,0.0,-2.9175,-2.5947,-2.5986,-2.6601,-2.6601,-2.7967,-2.9179,0.0,0.0,-3.2468,0.0,0.0,0.0,0.0,0.0,0.0,0.0,0.0,0.0,0.0,0.0,0.0,-4.7554,-4.6895,-4.6248,-4.5571,-4.5002,-4.4433,-4.3864,-4.3608,-4.3324,-4.3036,-4.2187,-4.149,-4.0856,-4.0319,-4.007,-4.007,-4.007,-4.007,0.0,-4.007,-4.007,-4.002,-3.9193,-3.858,-3.8019,-3.6964,-3.6275,-3.5782,-3.5554,-3.5504,-3.5504,-3.5504,-3.5504,-3.5504,-3.5504,-3.5504,-3.5504,-3.5504,-3.5504,-3.5504,-3.5504,-3.5504,-3.5504,-3.5504,-3.5504,-3.5213,-3.4245,-3.3241,-3.2321,-3.1389,-3.0419,-2.9792,-2.9792,-2.9792,-2.9792,-2.9792,-2.9792,-2.9792,-2.9792,-2.9641,-2.9227,-2.8436,-2.7369,-2.664,-2.6546,-2.6245,-2.5473,-2.4014,-2.3037,-2.1697,-2.0018,-1.9083,-1.8496,-1.8203,-1.8076,-1.8008,-1.8008,-1.8008,-1.8008,-1.8008,-1.8008,-1.7501,-4.4045,-4.7544,-5.0106,-4.7567,-4.4374,-4.0489,0.0,0.0,-2.839,-2.5832,-2.5986,-2.6601,-2.6601,-2.7967,-2.9371,-3.0256,0.0,0.0,0.0,0.0,0.0,0.0,0.0,0.0,0.0,0.0,0.0,0.0,0.0,0.0,-4.7013,-4.587,-4.506,-4.4709,-4.4709,-4.4709,-4.469,-4.3901,-4.3652,-4.3888,-4.2478,-4.149,-4.0856,-4.0319,-4.007,-4.007,0.0,-4.007,0.0,-4.007,-4.007,-4.002,-3.9193,-3.8908,-3.8674,-3.7188,-3.6615,-3.6492,-3.5718,-3.5504,-3.5504,-3.5504,-3.5504,-3.5504,-3.5504,-3.5504,-3.5504,-3.5504,-3.5504,-3.5504,-3.5504,-3.5504,-3.5504,-3.5504,-3.5504,-3.5213,-3.4245,-3.3241,-3.2321,-3.1389,-3.0419,-2.9792,-2.9792,-2.9792,-2.9792,-2.9792,-2.9792,-2.9792,-2.9792,-2.9289,-2.8938,-2.8925,-2.7934,-2.7055,-2.6584,-2.5594,-2.5004,-2.4992,-2.2767,-2.1418,-2.1408,-1.9574,-1.8562,-1.8562,-1.8223,-1.8008,-1.8008,-1.8008,-1.8008,-1.8008,-1.8008,-1.7501,-3.909,-4.1004,-4.1835,-4.1027,-3.8286,-3.5059,-3.2249,0.0,-2.7056,-2.5601,-2.5986,-2.6601,-2.6601,-2.7525,-2.8756,-3.0179,-3.1141,0.0,0.0,0.0,0.0,0.0,0.0,0.0,0.0,0.0,0.0,0.0,0.0,0.0,-4.6256,-4.581,-4.5319,-4.4709,-4.4176,-4.3883,-4.3883,-4.3626,-4.3538,-4.3633,-4.2802,-4.2121,-4.149,-4.092,-4.0449,0.0,0.0,-4.007,-4.007,-4.007,-4.007,-4.002,-3.9193,-3.8908,-3.8799,-3.779,-3.7084,-3.6554,-3.6322,-3.5958,-3.5504,-3.5504,-3.5504,-3.5504,-3.5504,-3.5504,-3.5504,-3.5504,-3.5504,-3.5504,-3.5504,-3.5504,-3.5504,-3.5504,-3.5504,-3.5424,-3.5067,-3.3754,-3.2536,-3.2249,-3.0921,-2.9792,-2.9792,-2.9792,-2.9792,-2.9792,-2.9792,-2.9792,-2.9792,-2.9628,-2.9365,-2.8976,-2.7643,-2.6602,-2.6069,-2.5421,-2.4269,-2.2611,-2.2093,-2.1104,-1.9564,-1.9206,-1.8809,-1.8223,-1.8076,-1.8008,-1.8008,-1.8008,-1.8008,-1.8008,-1.7354,-1.6567,0.0,-3.6309,-3.6988,-3.6642,-3.4263,0.0,0.0,0.0,-2.6006,-2.5428,-2.5726,-2.612,-2.612,-2.6813,-2.7755,-2.8813,-2.9948,0.0,0.0,0.0,0.0,0.0,0.0,0.0,0.0,0.0,0.0,0.0,0.0,0.0,-4.5583,-4.5413,-4.5058,-4.4469,-4.3839,-4.3497,-4.3497,-4.3497,-4.3497,-4.3479,-4.2939,-4.2519,-4.2121,-4.1268,-4.0703,0.0,0.0,-4.007,0.0,-4.007,-4.007,-4.007,-3.9542,-3.9368,-3.9262,-3.8486,-3.7732,-3.7024,-3.6737,-3.6117,-3.5504,-3.5504,-3.5504,-3.5504,-3.5504,-3.5504,-3.5504,-3.5504,-3.5504,-3.5504,-3.5504,-3.5504,-3.5504,-3.5504,-3.5504,-3.5504,-3.5504,-3.3973,-3.2593,-3.2593,-3.1057,-2.9792,-2.9792,-2.9792,-2.9792,-2.9792,-2.9792,-2.9792,-2.9792,-2.9792,-2.9654,-2.9289,-2.7782,-2.6605,-2.5832,-2.4613,-2.3245,-2.1702,-2.1515,-2.0858,-1.9394,-1.9316,-1.9033,-1.8506,-1.8174,-1.8008,-1.8008,-1.8008,-1.8008,-1.8008,-1.707,-1.607,0.0,0.0,0.0,0.0,0.0,0.0,0.0,0.0,0.0,0.0,0.0,-2.5322,-2.538,-2.6053,-2.6649,-2.6851,0.0,0.0,0.0,0.0,0.0,0.0,0.0,0.0,0.0,0.0,0.0,0.0,0.0,0.0,-4.5118,-4.4781,-4.4419,-4.3998,-4.366,-4.3497,-4.3497,-4.3497,-4.3497,-4.3479,-4.2976,-4.275,-4.2655,-4.1534,-4.0995,0.0,-4.0417,-4.0154,-4.0121,-4.0121,-4.0121,-4.007,-4.007,-4.007,-4.002,-3.9262,-3.8525,-3.7748,-3.6964,-3.6228,-3.5554,-3.5504,-3.5504,-3.5504,-3.5504,-3.5504,-3.5504,-3.5504,-3.5504,-3.5504,-3.5504,-3.5504,-3.5504,-3.5504,-3.5504,-3.5504,-3.5504,-3.3973,-3.2593,-3.2593,-3.1057,-2.9792,-2.9792,-2.9792,-2.9792,-2.9792,-2.9792,-2.9792,-2.9792,-2.9792,-2.9792,-2.9792,-2.8215,-2.6819,-2.5847,-2.3457,-2.2004,-2.1928,-2.1098,-2.0557,-2.0518,-1.9756,-1.9307,-1.9238,-1.8428,-1.8027,-1.8057,-1.8027,-1.8008,-1.8008,-1.707,-1.607,0.0,0.0,0.0,0.0,0.0,0.0,0.0,0.0,0.0,0.0,0.0,0.0,0.0,0.0,0.0,0.0,0.0,0.0,0.0,0.0,0.0,0.0,0.0,0.0,0.0,0.0,0.0,0.0,0.0,-4.5438,-4.5118,-4.4781,-4.4419,-4.3998,-4.366,-4.3497,-4.3497,-4.3497,-4.3497,-4.3497,-4.3375,-4.3105,-4.2711,-4.24,-4.175,-4.0903,-4.1268,-4.0908,-4.0121,-4.0528,-4.0449,-4.007,-4.007,-4.007,-4.007,-3.9901,-3.9315,-3.8525,-3.779,-3.698,-3.6275,-3.5668,-3.5504,-3.5504,-3.5504,-3.5504,-3.5504,-3.5504,-3.5504,-3.5504,-3.5504,-3.5504,-3.5504,-3.5504,-3.5504,-3.5504,-3.5504,-3.3973,-3.2593,-3.2593,-3.1057,-2.9792,-2.9792,-2.9792,-2.9792,-2.9792,-2.9792,-2.9792,-2.9792,-2.9792,-2.9792,-2.9792,-2.7644,-2.5893,-2.5374,-2.3654,-2.2195,-2.1451,-2.0899,-2.042,-2.0078,-1.9873,-1.9463,-1.8799,-1.8271,-1.8164,-1.8486,-1.8164,-1.8008,-1.8008,-1.707,-1.607,-2.4101,-2.4428,-2.4928,-2.5697,-2.5591,0.0,0.0,0.0,0.0,0.0,0.0,0.0,0.0,0.0,0.0,0.0,0.0,0.0,0.0,0.0,0.0,0.0,0.0,0.0,0.0,0.0,0.0,0.0,0.0,-4.5513,-4.5342,-4.5011,-4.4657,-4.429,-4.3912,-4.3646,-4.3479,-4.3497,-4.3497,-4.3497,-4.3497,-4.3339,-4.305,-4.2826,-4.2342,-4.1707,-4.149,-4.1059,-4.0449,-4.048,-4.0163,-3.9614,-3.9952,-3.9868,-3.9631,-3.9952,-3.961,-3.8854,-3.8414,-3.7541,-3.6554,-3.6102,-3.5782,-3.5504,-3.5504,-3.5504,-3.5504,-3.5504,-3.5504,-3.5504,-3.5504,-3.5504,-3.5504,-3.5504,-3.5504,-3.5504,-3.5504,-3.3973,-3.2593,-3.2593,-3.1057,-2.9792,-2.9792,-2.9792,-2.9792,-2.9792,-2.9792,-2.9792,-2.9792,-2.9792,-2.9792,-2.9792,-2.762,-2.6049,-2.579,-2.3805,-2.21,-2.0967,-2.0889,-2.0674,-2.0234,-2.0019,-1.9609,-1.8945,-1.8711,-1.8613,-1.8562,-1.8408,-1.8193,-1.8008,-1.7501,-1.6507,-2.3055,-2.3583,-2.4601,-2.588,-2.5735,-2.5485,0.0,0.0,0.0,0.0,0.0,0.0,0.0,0.0,0.0,0.0,0.0,0.0,0.0,0.0,0.0,0.0,0.0,0.0,0.0,0.0,0.0,0.0,0.0,-4.5586,-4.5586,-4.5109,-4.4706,-4.4417,-4.3847,-4.3402,-4.313,-4.3369,-4.3424,-4.3314,-4.3424,-4.3424,-4.3314,-4.285,-4.2607,-4.2456,0.0,0.0,-4.051,-4.0075,-3.9459,-3.8903,-3.9631,-3.9529,-3.9089,-3.9817,-3.9662,-3.9086,-3.8962,-3.7987,-3.6783,-3.6676,-3.6104,-3.5484,-3.5524,-3.5429,-3.537,-3.5474,-3.5504,-3.5504,-3.5504,-3.5504,-3.5504,-3.5504,-3.5504,-3.5504,-3.5504,-3.4124,-3.2749,-3.2593,-3.1206,-3.0011,-2.9792,-2.9792,-2.9792,-2.9792,-2.9792,-2.9792,-2.9792,-2.9792,-2.9792,-2.9792,-2.7959,-2.6685,-2.6699,-2.4336,-2.231,-2.1144,-2.1134,-2.1035,-2.0586,-2.0146,-1.9775,-1.9492,-1.9355,-1.9141,-1.8838,-1.8769,-1.8516,-1.8105,-1.7812,-1.6778,-2.3539,-2.4396,-2.4994,-2.4513,-2.4819,0.0,0.0,0.0,0.0,0.0,0.0,0.0,0.0,0.0,0.0,0.0,0.0,0.0,0.0,0.0,0.0,0.0,0.0,0.0,0.0,0.0,0.0,0.0,0.0,-4.5586,-4.5586,-4.4306,-4.3542,-4.3511,-4.2222,-4.1526,-4.1479,-4.2818,-4.3149,-4.2488,-4.3167,-4.313,-4.2488,-4.2402,-4.2103,-4.1537,0.0,-3.9851,-3.8936,-3.8908,-3.8591,-3.8142,-3.887,-3.9089,-3.9089,-3.9817,-4.002,-3.9833,-3.9139,-3.8358,-3.7515,-3.6843,-3.6167,-3.5584,-3.5503,-3.51,-3.4756,-3.534,-3.5504,-3.5504,-3.5504,-3.5504,-3.5504,-3.5504,-3.5504,-3.5504,-3.5504,-3.4624,-3.3518,-3.2749,-3.1756,-3.0771,-2.9934,-2.9792,-2.9792,-2.9792,-2.9792,-2.9792,-2.9792,-2.9792,-2.9792,-2.9792,-2.8609,-2.7758,-2.7411,-2.5563,-2.4013,-2.3116,-2.193,-2.1035,-2.0586,-2.0146,-2.0059,-2.0361,-1.9658,-1.9424,-1.9717,-1.9365,-1.8965,-1.8465,-1.6857,-1.5812,-2.1939,-2.2477,-2.3303,-2.3809,-2.5644,-2.7424,0.0,0.0,0.0,0.0,0.0,0.0,0.0,0.0,0.0,0.0,0.0,0.0,0.0,0.0,0.0,0.0,0.0,0.0,0.0,0.0,0.0,0.0,0.0,0.0,-4.4259,-4.358,-4.3025,-4.2661,-4.1986,-4.1456,-4.1111,-4.1827,-4.2029,-4.1662,-4.2029,-4.2011,-4.1662,-4.1662,-4.1492,-4.1212,0.0,-3.9789,-3.9063,-3.8764,-3.8105,-3.7381,-3.8108,-3.8159,-3.7889,-3.8633,-3.8903,-3.8854,-3.8506,-3.784,-3.7096,-3.6372,-3.5634,-3.4997,-3.4964,-3.4487,-3.4083,-3.4756,-3.522,-3.5504,-3.5504,-3.5504,-3.5504,-3.5504,-3.5504,-3.5504,-3.5504,-3.4327,-3.3101,-3.2664,-3.1402,-3.0279,-2.9856,-2.9792,-2.9792,-2.9792,-2.9792,-2.9792,-2.9792,-2.9792,-2.9792,-2.9792,-2.8767,-2.8001,-2.7842,-2.6572,-2.4826,-2.2788,-2.1698,-2.1035,-2.0586,-2.0371,-2.0361,-2.0634,-2.0176,-1.9961,-1.9912,-1.9492,-1.9062,-1.8562,-1.7459,-1.6607,-2.0627,-2.1098,-2.2276,-2.3556,0.0,-2.8307,-2.9958,0.0,0.0,0.0,0.0,0.0,0.0,0.0,0.0,0.0,0.0,0.0,0.0,0.0,0.0,0.0,0.0,0.0,0.0,0.0,0.0,0.0,0.0,0.0,-4.2835,-4.2343,-4.1858,-4.134,-4.1003,-4.0595,-4.0081,-4.0189,-4.0451,-4.0836,-4.102,-4.102,-4.0836,-4.0836,-4.0836,-4.0785,-4.0002,-3.9405,-3.8903,-3.8328,-3.7487,-3.6586,-3.7347,-3.7398,-3.711,-3.7702,-3.7905,-3.7905,-3.7905,-3.7517,-3.6834,-3.5964,-3.5197,-3.4519,-3.4317,-3.3784,-3.344,-3.4247,-3.4861,-3.5265,-3.5265,-3.5385,-3.5504,-3.5504,-3.5504,-3.5504,-3.5504,-3.4341,-3.3171,-3.2678,-3.1402,-3.0292,-2.9869,-2.9792,-2.9792,-2.9792,-2.9792,-2.9792,-2.9792,-2.9792,-2.9792,-2.9792,-2.9028,-2.8426,-2.8096,-2.736,-2.5568,-2.2481,-2.1627,-2.1035,-2.0586,-2.0566,-2.0566,-2.0566,-2.0566,-2.04,-2.0068,-1.9639,-1.9209,-1.8779,-1.8141,-1.7241,-2.1126,-2.2338,-2.3664,-2.3786,0.0,0.0,-2.9289,-2.9535,0.0,0.0,0.0,0.0,0.0,0.0,0.0,0.0,0.0,0.0,0.0,0.0,0.0,0.0,0.0,0.0,0.0,0.0,0.0,0.0,0.0,0.0,-4.1912,-4.0116,-3.909,-3.9032,-3.776,-3.7061,-3.7028,-3.7505,-3.8505,-3.9992,-4.0744,-4.0726,-3.9992,-3.9992,-3.9992,-3.9887,-3.8622,-3.7775,-3.7312,-3.676,-3.6234,-3.5774,-3.6552,-3.7263,-3.7838,-3.7889,-3.7905,-3.7905,-3.7905,-3.7858,-3.7565,-3.6141,-3.5262,-3.4539,-3.3803,-3.3095,-3.2841,-3.4128,-3.4502,-3.4547,-3.4547,-3.5026,-3.5504,-3.5504,-3.5504,-3.5504,-3.5504,-3.5359,-3.4773,-3.2961,-3.2464,-3.1829,-3.0075,-2.9792,-2.9792,-2.9792,-2.9792,-2.9792,-2.9792,-2.9792,-2.9792,-2.9792,-2.9714,-2.9275,-2.8176,-2.8004,-2.6668,-2.3556,-2.2,-2.1035,-2.0586,-2.0566,-2.0566,-2.0566,-2.0566,-2.0547,-2.0518,-2.0078,-1.9648,-1.9228,-1.7912,-1.6572,-2.0577,-2.1972,-2.3599,-2.3757,0.0,0.0,0.0,0.0,0.0,0.0,0.0,0.0,0.0,0.0,0.0,0.0,0.0,0.0,0.0,0.0,0.0,0.0,0.0,0.0,0.0,0.0,0.0,0.0,0.0,0.0,-3.9469,-3.8719,-3.8221,-3.8004,-3.7487,-3.7058,-3.6708,-3.6912,-3.723,-3.7679,-3.8982,-3.946,-3.9148,-3.9148,-3.9148,-3.9148,-3.8624,-3.7929,-3.7173,-3.6999,-3.6357,-3.5656,-3.5943,-3.6231,-3.6485,-3.6485,-3.6485,-3.6485,-3.6485,-3.6485,-3.6329,-3.5317,-3.4552,-3.3969,-3.3578,-3.273,-3.2093,-3.3006,-3.3559,-3.4068,-3.4906,-3.531,-3.5504,-3.5504,-3.5504,-3.5504,-3.5504,-3.4986,-3.4177,-3.289,-3.2105,-3.1328,-2.9998,-2.9792,-2.9792,-2.9792,-2.9792,-2.9792,-2.9792,-2.9792,-2.9792,-2.9792,-2.9792,-2.9624,-2.9197,-2.7652,-2.6041,-2.4657,-2.3345,-2.1989,-2.0673,-2.0566,-2.0566,-2.0566,-2.0566,-2.0566,-2.0566,-2.0127,-1.9834,-1.9658,-1.7998,-1.6956,-2.0066,-2.1274,-2.2759,0.0,0.0,0.0,0.0,0.0,0.0,0.0,0.0,0.0,0.0,0.0,0.0,0.0,0.0,0.0,0.0,0.0,0.0,0.0,0.0,0.0,0.0,0.0,0.0,0.0,0.0,0.0,0.0,-3.6796,-3.6699,-3.6485,-3.6629,-3.6558,-3.6193,-3.6285,-3.6233,-3.6049,-3.7432,-3.8166,-3.8322,-3.8579,-3.8707,-3.8707,-3.8707,-3.799,-3.6856,-3.7122,-3.6406,-3.5267,-3.5267,-3.5267,-3.5301,-3.5537,-3.5622,-3.5622,-3.5622,-3.5622,-3.547,-3.483,-3.4137,-3.3575,-3.3318,-3.2399,-3.1616,-3.2332,-3.2841,-3.344,-3.4577,-3.519,-3.5504,-3.5504,-3.5504,-3.5504,-3.5504,-3.4986,-3.4109,-3.282,-3.2105,-3.1254,-2.9998,-2.9792,-2.9792,-2.9792,-2.9792,-2.9792,-2.9792,-2.9628,-2.9515,-2.9515,-2.9365,-2.9251,-2.9093,-2.7226,-2.5599,-2.4581,-2.3756,-2.2474,-2.0673,-2.0566,-2.0566,-2.0566,-2.0566,-2.0566,-2.0566,-2.0127,-1.9844,-1.9697,-1.8007,-1.6965,-1.9738,-2.0439,0.0,0.0,0.0,0.0,0.0,0.0,0.0,0.0,0.0,0.0,0.0,0.0,0.0,0.0,0.0,0.0,0.0,0.0,0.0,0.0,0.0,0.0,0.0,0.0,0.0,0.0,0.0,0.0,0.0,-3.418,-3.418,-3.418,-3.4779,-3.5086,-3.5086,-3.5356,-3.5485,-3.5504,-3.6298,-3.697,-3.7514,-3.8322,-3.8689,-3.8689,-3.8689,-3.7645,-3.6059,-3.6874,-3.6115,-3.4472,-3.4472,-3.4472,-3.4573,-3.5318,-3.5605,-3.5605,-3.5605,-3.5605,-3.5453,-3.483,-3.412,-3.3479,-3.2788,-3.212,-3.1674,-3.2317,-3.2512,-3.2662,-3.332,-3.4472,-3.5489,-3.5489,-3.5489,-3.5489,-3.5489,-3.5489,-3.4905,-3.2947,-3.2593,-3.196,-3.0139,-2.9779,-2.9779,-2.9792,-2.9792,-2.9792,-2.9779,-2.9289,-2.8925,-2.8925,-2.8436,-2.7928,-2.7519,-2.6912,-2.5535,-2.3083,-2.2896,-2.2242,-2.0654,-2.0566,-2.0566,-2.0566,-2.0566,-2.0566,-2.0566,-2.0127,-1.9697,-1.9277,-1.7886,-1.6464,-1.9849,0.0,0.0,0.0,0.0,0.0,0.0,0.0,0.0,0.0,0.0,0.0,0.0,0.0,0.0,0.0,0.0,0.0,0.0,0.0,0.0,0.0,0.0,0.0,0.0,0.0,0.0,0.0,0.0,0.0,0.0,-3.3295,-3.3295,-3.3295,-3.3454,-3.3662,-3.3904,-3.3972,-3.4101,-3.4315,-3.51,-3.5892,-3.6681,-3.711,-3.7193,-3.7019,-3.7019,-3.6497,-3.5626,-3.5199,-3.4502,-3.3728,-3.3728,-3.3728,-3.3744,-3.3981,-3.4066,-3.4066,-3.4066,-3.4066,-3.4107,-3.4404,-3.4084,-3.3486,-3.3335,-3.2841,-3.2221,-3.188,-3.2153,-3.2557,-3.2751,-3.344,-3.4203,-3.4666,-3.4427,-3.4218,-3.4681,-3.4786,-3.408,-3.176,-3.1751,-3.1409,-2.9541,-2.9189,-2.9327,-2.9729,-2.9792,-2.9641,-2.9239,-2.9038,-2.8787,-2.8398,-2.8197,-2.7779,-2.6904,-2.6,-2.4703,-2.3006,-2.2145,-2.1332,-2.0664,-2.0566,-2.0566,-2.0566,-2.0566,-2.0566,-2.0566,-2.0127,-1.9853,-1.9632,-1.7331,-1.6007,-2.0113,0.0,0.0,0.0,0.0,0.0,0.0,0.0,0.0,0.0,0.0,0.0,0.0,0.0,0.0,0.0,0.0,0.0,0.0,0.0,0.0,0.0,0.0,0.0,0.0,0.0,0.0,0.0,0.0,0.0,0.0,-3.2237,-3.2429,-3.2429,-3.2737,-3.2996,-3.3211,-3.3015,-3.3004,-3.317,-3.3549,-3.3957,-3.4394,-3.5863,-3.6445,-3.6266,-3.5773,-3.5514,-3.5379,-3.3825,-3.3188,-3.3219,-3.3032,-3.2949,-3.3,-3.3288,-3.3406,-3.3406,-3.3406,-3.3406,-3.3525,-3.4252,-3.3706,-3.2787,-3.3108,-3.2337,-3.1387,-3.1159,-3.1405,-3.1779,-3.2048,-3.2422,-3.2946,-3.3858,-3.3784,-3.3604,-3.4008,-3.4083,-3.3416,-3.1202,-3.1169,-3.0798,-2.887,-2.8599,-2.8725,-2.9063,-2.9126,-2.8913,-2.8348,-2.8273,-2.8147,-2.7821,-2.7582,-2.6991,-2.5819,-2.4892,-2.3678,-2.2113,-2.1342,-2.085,-2.0576,-2.0566,-2.0566,-2.0566,-2.0566,-2.0566,-2.0566,-2.0303,-2.0,-1.9574,-1.716,-1.5896,0.0,0.0,0.0,0.0,0.0,0.0,0.0,0.0,0.0,0.0,0.0,0.0,0.0,0.0,0.0,0.0,0.0,0.0,0.0,0.0,0.0,0.0,0.0,0.0,0.0,0.0,0.0,0.0,0.0,0.0,-3.0206,-3.0987,-3.1468,-3.1468,-3.2256,-3.2686,-3.275,-3.2338,-3.2128,-3.2147,-3.1927,-3.1663,-3.1494,-3.4513,-3.5909,-3.5889,-3.4733,-3.4641,-3.5109,-3.2809,-3.2277,-3.2824,-3.2395,-3.2188,-3.2256,-3.2949,-3.3203,-3.3203,-3.3203,-3.3203,-3.3322,-3.4049,-3.3061,-3.1709,-3.232,-3.1228,-2.9831,-3.0308,-3.0462,-3.0657,-3.1228,-3.1422,-3.1839,-3.3036,-3.332,-3.3335,-3.3395,-3.341,-3.2842,-3.0978,-3.0687,-3.0174,-2.8371,-2.8034,-2.8047,-2.8097,-2.8109,-2.7908,-2.7356,-2.7281,-2.7268,-2.7218,-2.6753,-2.5917,-2.4528,-2.3846,-2.2713,-2.0867,-2.0644,-2.0566,-2.0566,-2.0566,-2.0566,-2.0566,-2.0566,-2.0566,-2.0566,-2.0527,-2.0107,-1.9346,-1.7349,-1.6054,0.0,0.0,0.0,0.0,0.0,0.0,0.0,0.0,0.0,0.0,0.0,0.0,0.0,0.0,0.0,0.0,0.0,0.0,0.0,0.0,0.0,0.0,0.0,0.0,0.0,0.0,0.0,0.0,0.0,0.0,-2.8448,-2.9198,-2.966,-2.966,-3.0487,-3.1162,-3.1641,-3.155,-3.1635,-3.1902,-3.1837,-3.1658,-3.1427,-3.2358,-3.2995,-3.3385,-3.3121,-3.3247,-3.3622,-3.2707,-3.2232,-3.2012,-3.1589,-3.1427,-3.1444,-3.1613,-3.1664,-3.1664,-3.1664,-3.1664,-3.1782,-3.251,-3.2504,-3.2091,-3.1835,-3.1453,-3.0895,-3.0023,-3.0133,-3.0537,-3.0687,-3.1135,-3.1541,-3.1884,-3.1958,-3.2093,-3.2617,-3.2721,-3.2046,-2.9806,-2.9841,-2.9564,-2.7786,-2.7457,-2.7607,-2.8047,-2.8109,-2.7908,-2.7356,-2.7281,-2.7118,-2.6747,-2.6596,-2.6062,-2.4932,-2.4032,-2.2999,-2.1811,-2.1011,-2.0566,-2.0566,-2.0566,-2.0566,-2.0566,-2.0566,-2.0566,-2.0566,-2.0225,-1.9961,-1.9766,-1.7889,-1.6538,0.0,0.0,0.0,0.0,0.0,0.0,0.0,0.0,0.0,0.0,0.0,0.0,0.0,0.0,0.0,0.0,0.0,0.0,0.0,0.0,0.0,0.0,0.0,0.0,0.0,0.0,0.0,0.0,0.0,-2.789,-2.789,-2.8294,-2.8525,-2.8525,-2.8967,-2.9344,-2.9666,-2.9966,-3.0181,-3.0376,-3.0558,-3.0528,-3.0283,-3.1191,-3.1758,-3.2027,-3.2027,-3.2143,-3.2292,-3.1653,-3.1452,-3.1515,-3.0899,-3.0886,-3.119,-3.119,-3.119,-3.119,-3.119,-3.119,-3.1309,-3.2036,-3.1857,-3.1341,-3.141,-3.0781,-3.0066,-3.0026,-2.9833,-2.9729,-3.0342,-3.0776,-3.1046,-3.1046,-3.13,-3.1498,-3.1456,-3.147,-3.0855,-2.8817,-2.8685,-2.8505,-2.7145,-2.6892,-2.6979,-2.7268,-2.7318,-2.7218,-2.6929,-2.6892,-2.6779,-2.6559,-2.6533,-2.6094,-2.5087,-2.4108,-2.3073,-2.2027,-2.1155,-2.0566,-2.0566,-2.0566,-2.0566,-2.0566,-2.0566,-2.0469,-2.0254,-2.0029,-1.9707,-1.9214,-1.7814,-1.6857,0.0,0.0,0.0,0.0,0.0,0.0,0.0,0.0,0.0,0.0,0.0,0.0,0.0,0.0,0.0,0.0,0.0,0.0,0.0,0.0,0.0,0.0,0.0,0.0,0.0,0.0,0.0,0.0,0.0,-2.7448,-2.7448,-2.7582,-2.7678,-2.7678,-2.7813,-2.789,-2.789,-2.8396,-2.863,-2.8569,-2.8838,-2.8915,-2.8879,-3.0197,-3.0925,-3.1182,-3.1182,-3.1256,-3.1334,-3.0603,-3.0601,-3.1059,-3.0278,-3.0336,-3.0835,-3.0954,-3.1004,-3.1021,-3.1157,-3.119,-3.1292,-3.1901,-3.1282,-3.0408,-3.0898,-2.9854,-2.8695,-2.9739,-2.931,-2.8846,-2.9894,-3.0342,-3.0507,-3.0507,-3.0941,-3.1202,-3.0629,-3.0437,-2.9883,-2.822,-2.767,-2.7297,-2.6589,-2.6533,-2.6533,-2.6533,-2.6533,-2.6533,-2.6533,-2.6533,-2.6533,-2.6533,-2.6533,-2.6094,-2.5087,-2.4108,-2.3073,-2.2027,-2.1155,-2.0527,-2.0459,-2.0449,-2.042,-2.0342,-2.042,-2.0273,-1.9912,-1.9844,-1.9443,-1.8679,-1.7872,-1.7142,0.0,0.0,0.0,0.0,0.0,0.0,0.0,0.0,0.0,0.0,0.0,0.0,0.0,0.0,0.0,0.0,0.0,0.0,0.0,0.0,0.0,0.0,0.0,0.0,0.0,0.0,0.0,0.0,-2.5649,-2.5649,-2.5649,-2.637,-2.6774,-2.6774,-2.7505,-2.789,-2.789,-2.7984,-2.7903,-2.766,-2.7375,-2.7567,-2.8214,-2.8264,-2.9035,-3.0356,-3.0356,-3.076,-3.1359,-3.0921,-3.0558,-3.0296,-2.9779,-2.9451,-2.9347,-3.0006,-3.026,-3.0345,-3.097,-3.119,-3.1207,-3.1309,-3.0864,-3.0225,-2.9786,-2.9121,-2.8414,-2.8072,-2.8306,-2.8637,-2.8816,-2.9669,-3.0507,-3.0507,-3.0567,-3.075,-3.1217,-3.0875,-3.0133,-2.9018,-2.767,-2.6658,-2.6521,-2.6533,-2.6533,-2.6533,-2.6533,-2.6533,-2.6533,-2.6533,-2.6533,-2.6533,-2.6533,-2.6094,-2.5087,-2.4108,-2.3073,-2.2027,-2.1155,-2.0391,-2.0019,-2.0,-1.9834,-1.9463,-1.9814,-1.9971,-1.9912,-1.9551,-1.9316,-1.9189,-1.8666,-1.7948,0.0,0.0,0.0,0.0,0.0,0.0,0.0,0.0,0.0,0.0,0.0,0.0,0.0,0.0,0.0,0.0,0.0,0.0,0.0,0.0,0.0,0.0,0.0,0.0,0.0,0.0,0.0,0.0,-2.5303,-2.5303,-2.5303,-2.5649,-2.587,-2.587,-2.6236,-2.6447,-2.6447,-2.6814,-2.7103,-2.7327,-2.727,-2.7315,-2.7419,-2.7358,-2.8101,-2.9549,-2.9549,-2.9732,-3.0015,-2.9422,-2.9318,-2.9453,-2.8799,-2.873,-2.9025,-2.9347,-2.9753,-3.0159,-3.048,-3.0852,-3.119,-3.119,-3.0797,-3.0251,-2.9978,-2.9225,-2.8493,-2.8633,-2.8359,-2.8113,-2.8502,-2.9026,-2.9445,-2.9445,-2.9445,-2.9624,-3.0298,-3.0125,-2.9491,-2.8434,-2.767,-2.704,-2.6589,-2.6189,-2.6088,-2.6483,-2.6189,-2.6101,-2.6483,-2.6533,-2.6533,-2.6533,-2.6533,-2.6094,-2.5087,-2.4108,-2.3073,-2.2027,-2.1155,-2.0371,-1.9932,-1.9912,-1.9717,-1.9297,-1.9473,-1.9443,-1.9199,-1.9014,-1.8799,-1.8564,-1.8369,-1.8064,0.0,0.0,0.0,0.0,0.0,0.0,0.0,0.0,0.0,0.0,0.0,0.0,0.0,0.0,0.0,0.0,0.0,0.0,0.0,0.0,0.0,0.0,0.0,0.0,0.0,0.0,0.0,0.0,-2.5303,-2.5274,-2.5224,-2.5224,-2.5203,-2.5171,-2.5171,-2.5171,-2.5171,-2.5703,-2.6192,-2.6639,-2.6787,-2.6816,-2.6742,-2.6637,-2.7395,-2.8776,-2.8727,-2.8705,-2.8659,-2.8314,-2.8403,-2.8659,-2.8056,-2.8083,-2.8416,-2.8619,-2.9042,-2.955,-2.9753,-3.0176,-3.0632,-3.0632,-3.0266,-2.9802,-2.9802,-2.9082,-2.8394,-2.8885,-2.8338,-2.7745,-2.8203,-2.8472,-2.8607,-2.8607,-2.8607,-2.8742,-2.922,-2.9068,-2.8552,-2.7709,-2.7236,-2.6789,-2.6173,-2.5686,-2.5548,-2.5975,-2.5674,-2.5548,-2.5988,-2.6163,-2.6239,-2.6239,-2.6445,-2.6025,-2.4707,-2.3849,-2.2823,-2.1569,-2.0731,-2.0049,-1.9609,-1.959,-1.9394,-1.8975,-1.8965,-1.8857,-1.8562,-1.8525,-1.832,-1.8008,-1.8008,-1.8008,0.0,0.0,0.0,0.0,0.0,0.0,0.0,0.0,0.0,0.0,0.0,0.0,0.0,0.0,0.0,0.0,0.0,0.0,0.0,0.0,0.0,0.0,0.0,0.0,0.0,0.0,0.0,0.0,-2.5303,-2.5214,-2.5022,-2.5022,-2.4968,-2.4832,-2.4832,-2.4832,-2.4832,-2.4994,-2.5075,-2.5113,-2.5132,-2.5558,-2.6312,-2.5951,-2.6637,-2.8142,-2.7951,-2.786,-2.7915,-2.864,-2.8569,-2.795,-2.7893,-2.7434,-2.6894,-2.7621,-2.7874,-2.8044,-2.8789,-2.9059,-2.9093,-2.9093,-2.8791,-2.8398,-2.8398,-2.8062,-2.7675,-2.7705,-2.764,-2.7625,-2.767,-2.8113,-2.8607,-2.8607,-2.8607,-2.8607,-2.8637,-2.7937,-2.7308,-2.723,-2.5975,-2.4973,-2.4908,-2.4883,-2.487,-2.4895,-2.4883,-2.487,-2.4895,-2.5335,-2.5636,-2.5636,-2.6138,-2.5721,-2.3734,-2.3172,-2.2114,-2.0167,-1.9644,-1.916,-1.8721,-1.8701,-1.8506,-1.8086,-1.8076,-1.8262,-1.8562,-1.8242,-1.8037,-1.8008,-1.8008,-1.8008,0.0,0.0,0.0,0.0,0.0,0.0,0.0,0.0,0.0,0.0,0.0,0.0,0.0,0.0,0.0,0.0,0.0,0.0,0.0,0.0,0.0,0.0,0.0,0.0,0.0,0.0,0.0,0.0,0.0,-2.5077,-2.4991,-2.493,-2.4855,-2.4804,-2.4804,-2.4746,-2.4607,-2.4785,-2.4809,-2.4678,-2.4809,-2.4965,-2.5152,-2.4991,-2.517,-2.565,-2.6618,-2.7622,-2.8572,-2.8597,-2.8316,-2.7869,-2.7636,-2.7178,-2.6725,-2.6996,-2.7402,-2.7823,-2.8146,-2.8569,-2.9011,-2.9011,-2.8395,-2.7758,-2.8163,-2.7674,-2.7036,-2.7505,-2.7625,-2.7625,-2.7625,-2.7754,-2.7934,-2.7934,-2.7934,-2.7934,-2.7934,-2.7963,-2.7824,-2.7312,-2.6363,-2.5484,-2.4885,-2.4519,-2.4406,-2.477,-2.4519,-2.4418,-2.477,-2.4983,-2.5096,-2.5096,-2.4785,-2.3994,-2.2632,-2.1936,-2.0997,-1.9585,-1.9375,-1.9092,-1.8652,-1.8562,-1.8437,-1.8018,-1.8008,-1.8086,-1.8232,-1.8086,-1.8008,-1.8008,-1.8008,-1.8008,0.0,0.0,0.0,0.0,0.0,0.0,0.0,0.0,0.0,0.0,0.0,0.0,0.0,0.0,0.0,0.0,0.0,0.0,0.0,0.0,0.0,0.0,0.0,0.0,0.0,0.0,0.0,0.0,0.0,0.0,-2.4845,-2.4756,-2.467,-2.4591,-2.4591,-2.4526,-2.441,-2.4591,-2.4623,-2.4512,-2.47,-2.4731,-2.4591,-2.4545,-2.4558,-2.4764,-2.5772,-2.6961,-2.8223,-2.8488,-2.8316,-2.7869,-2.7607,-2.7178,-2.6691,-2.6691,-2.7012,-2.7452,-2.7452,-2.7774,-2.8213,-2.8213,-2.7765,-2.7227,-2.7502,-2.7237,-2.6904,-2.721,-2.7445,-2.7625,-2.7625,-2.7625,-2.7625,-2.7625,-2.7625,-2.7625,-2.7625,-2.7695,-2.7553,-2.6773,-2.6013,-2.5197,-2.4381,-2.3954,-2.3841,-2.4205,-2.3941,-2.3841,-2.4205,-2.4431,-2.4544,-2.4544,-2.3891,-2.3089,-2.2104,-2.1155,-2.0112,-1.9144,-1.8936,-1.873,-1.8437,-1.8428,-1.8291,-1.8018,-1.8008,-1.8008,-1.8008,-1.8008,-1.8008,-1.8008,-1.8008,-1.8008,0.0,0.0,0.0,0.0,0.0,0.0,0.0,0.0,0.0,0.0,0.0,0.0,0.0,0.0,0.0,0.0,0.0,0.0,0.0,0.0,0.0,0.0,0.0,0.0,0.0,0.0,0.0,0.0,-2.4917,-2.4845,-2.4528,-2.4495,-2.441,-2.4209,-2.419,-2.419,-2.419,-2.4393,-2.4495,-2.4495,-2.4685,-2.479,-2.4775,-2.4575,-2.4925,-2.5652,-2.5483,-2.5841,-2.6704,-2.8297,-2.854,-2.7897,-2.7897,-2.7409,-2.6691,-2.6691,-2.6691,-2.6691,-2.6691,-2.6691,-2.6691,-2.6691,-2.6781,-2.6825,-2.6406,-2.6796,-2.7303,-2.6796,-2.713,-2.7625,-2.7625,-2.7625,-2.7625,-2.7625,-2.7625,-2.7625,-2.7625,-2.7034,-2.6283,-2.5563,-2.4794,-2.406,-2.3245,-2.3078,-2.3078,-2.3078,-2.3078,-2.3078,-2.3078,-2.3627,-2.3966,-2.3966,-2.3636,-2.3042,-2.207,-2.0831,-1.9627,-1.8684,-1.8232,-1.8008,-1.8008,-1.8008,-1.8008,-1.8008,-1.8008,-1.8008,-1.8008,-1.8008,-1.8008,-1.8008,-1.8008,-1.8008,-1.9344,0.0,0.0,0.0,0.0,0.0,0.0,0.0,0.0,0.0,0.0,0.0,0.0,0.0,0.0,0.0,0.0,0.0,0.0,0.0,0.0,0.0,0.0,0.0,0.0,0.0,0.0,0.0,-2.4697,-2.4588,-2.4512,-2.4357,-2.4266,-2.419,-2.419,-2.419,-2.419,-2.4266,-2.4284,-2.4284,-2.4339,-2.4357,-2.4357,-2.4303,-2.4413,-2.4634,-2.5165,-2.5531,-2.586,-2.7475,-2.8033,-2.7897,-2.7897,-2.7409,-2.6691,-2.6691,-2.6691,-2.6691,-2.6691,-2.6691,-2.6691,-2.6691,-2.6868,-2.7125,-2.748,-2.7546,-2.752,-2.7904,-2.7807,-2.7625,-2.7625,-2.7625,-2.7625,-2.7625,-2.7625,-2.7625,-2.7625,-2.7458,-2.6916,-2.5673,-2.4794,-2.406,-2.3245,-2.3078,-2.3078,-2.3078,-2.3078,-2.3078,-2.3078,-2.3276,-2.3376,-2.3376,-2.2736,-2.2242,-2.1975,-2.0479,-1.9431,-1.9096,-1.8397,-1.8008,-1.8008,-1.8008,-1.8008,-1.8008,-1.8008,-1.8008,-1.8008,-1.8008,-1.8008,-1.8008,-1.8008,-1.8008,0.0,0.0,0.0,0.0,0.0,0.0,-2.0886,-2.1437,-2.2026,0.0,0.0,0.0,0.0,0.0,0.0,0.0,0.0,0.0,0.0,0.0,0.0,0.0,0.0,0.0,0.0,-2.4036,-2.4132,-2.4524,-2.4211,-2.4107,-2.4356,-2.4247,-2.419,-2.419,-2.419,-2.419,-2.419,-2.419,-2.419,-2.419,-2.419,-2.419,-2.419,-2.419,-2.419,-2.4226,-2.4685,-2.509,-2.5476,-2.6392,-2.7108,-2.7576,-2.7457,-2.7238,-2.6939,-2.6758,-2.6691,-2.6691,-2.6691,-2.6691,-2.6742,-2.7063,-2.7278,-2.7474,-2.7998,-2.8167,-2.824,-2.8415,-2.8247,-2.791,-2.7675,-2.7625,-2.7625,-2.7625,-2.7625,-2.7625,-2.7625,-2.7625,-2.724,-2.6108,-2.5231,-2.4509,-2.3708,-2.3305,-2.3078,-2.3078,-2.3078,-2.3078,-2.3078,-2.3078,-2.2977,-2.2811,-2.2043,-2.1327,-2.0799,-1.9659,-1.883,-1.8512,-1.817,-1.8008,-1.8008,-1.8008,-1.8008,-1.8008,-1.8008,-1.8008,-1.8008,-1.8008,-1.8008,-1.8008,-1.8008,-1.8008,0.0,0.0,0.0,0.0,0.0,0.0,-2.1178,-2.1527,-2.1862,-2.3048,0.0,0.0,0.0,0.0,0.0,0.0,0.0,0.0,0.0,0.0,0.0,0.0,0.0,0.0,-2.3502,-2.3044,-2.3069,-2.3949,-2.3654,-2.3633,-2.4172,-2.419,-2.419,-2.419,-2.419,-2.419,-2.419,-2.419,-2.419,-2.419,-2.419,-2.419,-2.419,-2.419,-2.419,-2.419,-2.419,-2.4612,-2.5274,-2.5274,-2.6038,-2.7162,-2.6837,-2.6941,-2.7241,-2.6841,-2.6691,-2.6691,-2.6691,-2.6691,-2.681,-2.7469,-2.7722,-2.7853,-2.8189,-2.8708,-2.9083,-2.8522,-2.843,-2.8352,-2.772,-2.7615,-2.7625,-2.7625,-2.7625,-2.7595,-2.7535,-2.7505,-2.7274,-2.6518,-2.5861,-2.5148,-2.4315,-2.3551,-2.3078,-2.3078,-2.3027,-2.2977,-2.2977,-2.2987,-2.2761,-2.2272,-2.1543,-2.0629,-1.9522,-1.9051,-1.852,-1.7956,-1.8078,-1.8152,-1.8134,-1.8094,-1.8027,-1.8008,-1.8008,-1.8008,-1.8008,-1.8008,-1.8008,-1.8008,-1.8008,-1.8008,0.0,0.0,0.0,0.0,0.0,0.0,-1.9709,-1.9801,-1.9945,0.0,0.0,0.0,0.0,0.0,0.0,0.0,0.0,0.0,0.0,0.0,0.0,0.0,0.0,0.0,-2.2429,-2.2321,-2.2413,-2.2874,-2.3601,-2.4081,-2.419,-2.419,-2.419,-2.419,-2.419,-2.419,-2.419,-2.419,-2.419,-2.419,-2.419,-2.419,-2.419,-2.419,-2.419,-2.419,-2.419,-2.4281,-2.4428,-2.4428,-2.5524,-2.7162,-2.6837,-2.6941,-2.7241,-2.6841,-2.6691,-2.6691,-2.6691,-2.6691,-2.6725,-2.686,-2.7334,-2.7924,-2.8612,-2.9015,-2.9067,-2.848,-2.843,-2.834,-2.7595,-2.7549,-2.7625,-2.7625,-2.7625,-2.7475,-2.6901,-2.6782,-2.6568,-2.5901,-2.5583,-2.5011,-2.3702,-2.3282,-2.3078,-2.3078,-2.2761,-2.2472,-2.2472,-2.2083,-2.1769,-2.1656,-2.1519,-2.1485,-2.1633,-2.095,-2.0638,-2.1003,-2.0039,-1.9361,-1.9023,-1.8627,-1.8289,-1.8008,-1.8008,-1.8008,-1.8008,-1.8008,-1.8008,-1.8008,-1.8008,-1.8008,0.0,0.0,0.0,-1.9305,0.0,0.0,0.0,-2.0554,-2.0784,0.0,0.0,0.0,0.0,0.0,0.0,0.0,0.0,0.0,0.0,0.0,0.0,0.0,0.0,0.0,-2.2398,-2.2036,-2.1852,-2.194,-2.3186,-2.3852,-2.3602,-2.3988,-2.419,-2.419,-2.419,-2.419,-2.419,-2.419,-2.419,-2.419,-2.419,-2.419,-2.419,-2.419,-2.419,-2.419,-2.419,-2.419,-2.419,-2.419,-2.5283,-2.6853,-2.632,-2.6476,-2.6993,-2.677,-2.6691,-2.6691,-2.6691,-2.6691,-2.6759,-2.7131,-2.752,-2.7941,-2.8755,-2.9278,-2.952,-2.8902,-2.8823,-2.8542,-2.7238,-2.6965,-2.6957,-2.6684,-2.6587,-2.6497,-2.6168,-2.6093,-2.5899,-2.5255,-2.5046,-2.464,-2.3608,-2.3336,-2.3007,-2.2405,-2.2083,-2.1895,-2.1895,-2.1656,-2.138,-2.1104,-2.1079,-2.0957,-2.0545,-2.0553,-2.0546,-2.0514,-2.0336,-1.9951,-1.9288,-1.9013,-1.8619,-1.8008,-1.8008,-1.8008,-1.8008,-1.8008,-1.8008,-1.8008,-1.8008,-1.8008,0.0,0.0,0.0,0.0,0.0,-1.9709,0.0,0.0,0.0,0.0,0.0,0.0,0.0,0.0,0.0,0.0,0.0,0.0,0.0,0.0,0.0,0.0,0.0,0.0,-2.2237,-2.17,-2.136,-2.136,-2.2695,-2.342,-2.3142,-2.3822,-2.419,-2.419,-2.419,-2.419,-2.419,-2.419,-2.419,-2.419,-2.419,-2.419,-2.419,-2.419,-2.419,-2.419,-2.419,-2.419,-2.419,-2.419,-2.4961,-2.6091,-2.5732,-2.6145,-2.6908,-2.6828,-2.6758,-2.6691,-2.6691,-2.6691,-2.6793,-2.7402,-2.7671,-2.7943,-2.8569,-2.9279,-2.9762,-2.9121,-2.8973,-2.8608,-2.6941,-2.6445,-2.6287,-2.5863,-2.5708,-2.557,-2.545,-2.542,-2.5226,-2.4552,-2.4464,-2.4296,-2.3511,-2.3326,-2.2789,-2.1655,-2.1393,-2.133,-2.133,-2.123,-2.0991,-2.0552,-2.0555,-2.0138,-1.9172,-1.9821,-2.0062,-1.9574,-2.0293,-2.0407,-1.9673,-1.9444,-1.8911,-1.8008,-1.8008,-1.8008,-1.8008,-1.8008,-1.8008,-1.8008,-1.8008,-1.8008,0.0,0.0,0.0,0.0,-1.9305,0.0,0.0,0.0,-2.0653,-2.0679,0.0,0.0,0.0,0.0,0.0,0.0,0.0,0.0,0.0,0.0,0.0,0.0,0.0,0.0,0.0,-2.0668,-2.1027,-2.1533,-2.2407,-2.3113,-2.3593,-2.3999,-2.419,-2.419,-2.419,-2.419,-2.419,-2.419,-2.419,-2.419,-2.419,-2.419,-2.419,-2.419,-2.419,-2.419,-2.419,-2.419,-2.419,-2.419,-2.43,-2.4572,-2.5561,-2.6701,-2.7717,-2.7344,-2.7004,-2.6691,-2.6691,-2.6691,-2.6708,-2.6793,-2.7283,-2.7806,-2.7926,-2.8484,-2.8958,-2.8193,-2.8077,-2.8007,-2.7059,-2.6608,-2.6377,-2.6332,-2.5955,-2.545,-2.4821,-2.4686,-2.4537,-2.3849,-2.4179,-2.4197,-2.2958,-2.2602,-2.2278,-2.1605,-2.1121,-2.0806,-2.0806,-2.0313,-1.9974,-1.9911,-1.9899,-2.0087,-2.042,-2.0569,-2.0789,-2.1219,-2.1299,-2.1226,-2.0827,-1.9845,-1.8911,-1.8008,-1.8008,-1.8008,-1.8008,-1.8008,-1.8008,-1.8008,-1.8008,-1.8008,0.0,0.0,0.0,0.0,0.0,0.0,-2.1051,0.0,-2.0761,0.0,0.0,0.0,0.0,0.0,0.0,0.0,-1.9224,0.0,0.0,0.0,0.0,0.0,0.0,0.0,0.0,0.0,0.0,-2.152,-2.2136,-2.2659,-2.2986,-2.376,-2.419,-2.419,-2.419,-2.419,-2.419,-2.419,-2.419,-2.419,-2.419,-2.419,-2.419,-2.419,-2.419,-2.419,-2.419,-2.419,-2.419,-2.419,-2.4483,-2.4961,-2.5439,-2.6003,-2.6549,-2.6851,-2.6841,-2.6691,-2.6691,-2.6691,-2.6691,-2.6691,-2.6911,-2.7249,-2.7654,-2.8061,-2.8247,-2.7891,-2.7866,-2.7607,-2.6271,-2.5799,-2.555,-2.493,-2.4611,-2.4358,-2.4088,-2.4029,-2.3939,-2.3655,-2.3834,-2.3748,-2.2804,-2.2636,-2.2098,-2.0711,-2.0313,-2.0162,-2.0162,-1.9949,-1.9798,-1.9798,-1.9798,-1.9899,-2.015,-2.0476,-2.0819,-2.0991,-2.0646,-2.0542,-2.0756,-1.9325,-1.8395,-1.8008,-1.8008,-1.8008,-1.8008,-1.8008,-1.8008,-1.8008,-1.8008,-1.8008,-2.2281,0.0,0.0,0.0,0.0,0.0,0.0,0.0,0.0,0.0,0.0,0.0,0.0,0.0,0.0,0.0,0.0,0.0,0.0,0.0,0.0,0.0,0.0,0.0,0.0,0.0,0.0,-2.142,-2.1812,-2.2228,-2.2661,-2.3648,-2.419,-2.419,-2.419,-2.419,-2.419,-2.419,-2.419,-2.419,-2.419,-2.419,-2.419,-2.419,-2.419,-2.419,-2.419,-2.419,-2.419,-2.419,-2.4538,-2.5071,-2.509,-2.5134,-2.5271,-2.6087,-2.6379,-2.6404,-2.6404,-2.6522,-2.6691,-2.6691,-2.6691,-2.6793,-2.7351,-2.752,-2.752,-2.752,-2.7264,-2.6751,-2.5489,-2.4932,-2.4445,-2.3488,-2.3318,-2.3295,-2.3116,-2.3071,-2.3131,-2.331,-2.334,-2.317,-2.2515,-2.2432,-2.1893,-2.0309,-1.9901,-1.9798,-1.9798,-1.9798,-1.9798,-1.9798,-1.9798,-1.9798,-1.9798,-2.0188,-2.0542,-2.0706,-2.0355,-2.0354,-2.0682,-1.9684,-1.8854,-1.8405,-1.8327,-1.8269,-1.8008,-1.8008,-1.8008,-1.8008,-1.8008,-1.8008,0.0,0.0,0.0,-2.0758,0.0,0.0,0.0,0.0,-2.0521,0.0,0.0,0.0,0.0,0.0,0.0,0.0,0.0,0.0,0.0,0.0,0.0,0.0,0.0,0.0,0.0,0.0,-1.9893,-2.1208,-2.1322,-2.1872,-2.3106,-2.3837,-2.419,-2.419,-2.419,-2.419,-2.419,-2.419,-2.419,-2.419,-2.419,-2.419,-2.419,-2.419,-2.419,-2.419,-2.419,-2.419,-2.419,-2.419,-2.4208,-2.4241,-2.4307,-2.4325,-2.4423,-2.5226,-2.5594,-2.5642,-2.5642,-2.6099,-2.6691,-2.6691,-2.6691,-2.6691,-2.6725,-2.6725,-2.6725,-2.6725,-2.5933,-2.5059,-2.5008,-2.4248,-2.3282,-2.2614,-2.2589,-2.2532,-2.1889,-2.1754,-2.1934,-2.2619,-2.2753,-2.2523,-2.1848,-2.171,-2.15,-2.0845,-2.0207,-1.9798,-1.9798,-1.9798,-1.9798,-1.9798,-1.9798,-1.9798,-1.9798,-1.9823,-2.0075,-2.068,-2.1149,-2.1334,-2.1009,-2.1469,-2.0974,-1.9299,-1.9243,-1.8854,-1.8008,-1.8008,-1.8008,-1.8008,-1.8008,-1.8008,0.0,0.0,-2.3309,-2.3015,0.0,0.0,0.0,0.0,0.0,0.0,0.0,0.0,0.0,0.0,0.0,0.0,0.0,0.0,0.0,0.0,0.0,0.0,0.0,0.0,0.0,0.0,0.0,-2.1172,-2.1475,-2.2081,-2.3136,-2.3628,-2.3976,-2.419,-2.419,-2.419,-2.419,-2.419,-2.419,-2.419,-2.419,-2.419,-2.419,-2.419,-2.419,-2.419,-2.419,-2.419,-2.419,-2.419,-2.4074,-2.3873,-2.3894,-2.3644,-2.3363,-2.4447,-2.5162,-2.5609,-2.5609,-2.6082,-2.6623,-2.6133,-2.5981,-2.5981,-2.5981,-2.5625,-2.522,-2.522,-2.4987,-2.4577,-2.4249,-2.3686,-2.3065,-2.2474,-2.2519,-2.2544,-2.1844,-2.2039,-2.2278,-2.2069,-2.2024,-2.1957,-2.1725,-2.1373,-2.0772,-1.9767,-1.9725,-1.9673,-1.9334,-1.9585,-1.9798,-1.9798,-1.9798,-1.9798,-1.9798,-1.9798,-2.0049,-2.068,-2.0312,-2.0249,-2.0463,-2.0442,-2.0149,-1.9583,-1.9392,-1.9177,-1.8854,-1.8269,-1.8008,-1.8008,-1.8008,-1.8008,-2.419,-2.419,0.0,-2.3841,-2.305,0.0,-2.149,0.0,-1.9874,0.0,0.0,0.0,0.0,0.0,0.0,0.0,0.0,0.0,0.0,-1.8426,0.0,0.0,0.0,0.0,0.0,0.0,-1.9884,-2.0841,-2.1264,-2.1884,0.0,-2.34,-2.3837,-2.419,-2.419,-2.419,-2.419,-2.419,-2.419,-2.419,-2.419,-2.419,-2.419,-2.419,-2.419,-2.419,-2.419,-2.419,-2.419,-2.419,-2.3996,-2.3692,-2.3566,-2.3189,-2.279,-2.3596,-2.4292,-2.4898,-2.5423,-2.5744,-2.5862,-2.5676,-2.5423,-2.5203,-2.5203,-2.4864,-2.4557,-2.4814,-2.4382,-2.3857,-2.3786,-2.3102,-2.2303,-2.1745,-2.1789,-2.1799,-2.1126,-2.1321,-2.156,-2.138,-2.135,-2.1332,-2.134,-2.1237,-2.0717,-1.9533,-1.9611,-1.961,-1.9046,-1.9484,-1.9798,-1.9798,-1.9798,-1.9798,-1.9798,-1.9798,-1.9962,-2.0338,-2.003,-2.0012,-2.035,-2.057,-2.0502,-2.0198,-1.9887,-1.9628,-1.9299,-1.8405,-1.8008,-1.8008,-1.8008,-1.8008]},{"header":{"parameterUnit":"m.s-1","parameterCategory":1,"la1":30.6,"la2":29.2853,"lo1":-89.7004,"lo2":-87.6739,"dy":0.0162,"dx":0.0183,"nx":112,"ny":82,"refTime":"2023-03-07T06:00:00:Z","depth":0,"parameterNumber":3,"parameterNumberName":"V-component_of_WINDS"},"data":[0.0,0.0,0.0,0.0,0.0,0.0,0.0,0.0,0.0,0.0,0.0,0.0,0.0,0.0,0.0,0.0,0.0,0.0,0.0,0.0,0.0,0.0,0.0,0.0,0.0,0.0,0.0,0.0,0.0,0.0,0.0,0.0,0.0,0.0,0.0,0.0,0.0,0.0,0.0,0.0,0.0,0.0,0.0,0.0,0.0,0.0,0.0,0.0,0.0,0.0,0.0,0.0,0.0,0.0,0.0,0.0,0.0,0.0,0.0,0.0,0.0,0.0,0.0,0.0,0.0,0.0,0.0,0.0,0.0,0.0,0.0,0.0,0.0,0.0,0.0,0.0,0.0,0.0,0.0,0.0,0.0,0.0,0.0,0.0,0.0,0.0,0.0,0.0,0.0,0.0,-1.7774,-1.9678,-1.9851,-1.936,-1.8322,-1.6538,-1.5308,-1.4869,0.0,0.0,0.0,0.0,0.0,0.0,0.0,0.0,0.0,0.0,0.0,0.0,0.0,0.0,0.0,0.0,0.0,0.0,0.0,0.0,0.0,0.0,0.0,0.0,0.0,0.0,0.0,0.0,0.0,0.0,0.0,0.0,0.0,0.0,0.0,0.0,0.0,0.0,0.0,0.0,0.0,0.0,0.0,0.0,0.0,0.0,0.0,0.0,0.0,0.0,0.0,0.0,0.0,0.0,0.0,0.0,0.0,0.0,0.0,0.0,0.0,0.0,0.0,0.0,0.0,0.0,0.0,0.0,0.0,0.0,0.0,0.0,0.0,0.0,0.0,0.0,0.0,0.0,0.0,0.0,0.0,0.0,0.0,0.0,0.0,0.0,0.0,0.0,0.0,0.0,0.0,0.0,0.0,0.0,0.0,0.0,0.0,0.0,0.0,0.0,0.0,0.0,0.0,0.0,-1.988,-2.1169,-2.0847,-2.0069,-1.8891,-1.7301,-1.6112,-1.549,0.0,0.0,0.0,0.0,0.0,0.0,0.0,0.0,0.0,0.0,0.0,0.0,0.0,0.0,0.0,0.0,0.0,0.0,0.0,0.0,0.0,0.0,0.0,0.0,0.0,0.0,0.0,0.0,0.0,0.0,0.0,0.0,0.0,0.0,0.0,0.0,0.0,0.0,0.0,0.0,0.0,0.0,0.0,0.0,0.0,0.0,0.0,0.0,0.0,0.0,0.0,0.0,0.0,0.0,0.0,0.0,0.0,0.0,0.0,0.0,0.0,0.0,0.0,0.0,0.0,0.0,0.0,0.0,0.0,0.0,0.0,0.0,0.0,0.0,0.0,0.0,0.0,0.0,0.0,0.0,0.0,0.0,0.0,0.0,0.0,0.0,0.0,0.0,0.0,0.0,0.0,0.0,0.0,0.0,0.0,0.0,0.0,0.0,0.0,0.0,0.0,0.0,0.0,-1.9768,-2.0097,-2.1046,-2.1155,-2.0532,-1.9064,-1.7797,-1.6741,-1.6132,-1.5874,0.0,0.0,0.0,0.0,0.0,0.0,0.0,0.0,0.0,0.0,0.0,0.0,0.0,0.0,0.0,0.0,0.0,0.0,0.0,0.0,0.0,0.0,0.0,0.0,0.0,0.0,0.0,0.0,0.0,0.0,0.0,0.0,0.0,0.0,0.0,0.0,0.0,0.0,0.0,0.0,0.0,0.0,0.0,0.0,0.0,0.0,0.0,0.0,0.0,0.0,0.0,0.0,0.0,0.0,0.0,0.0,0.0,0.0,0.0,0.0,0.0,0.0,0.0,0.0,0.0,0.0,0.0,0.0,0.0,0.0,0.0,0.0,0.0,0.0,0.0,0.0,0.0,0.0,0.0,0.0,0.0,0.0,0.0,0.0,0.0,0.0,0.0,0.0,0.0,0.0,0.0,0.0,0.0,0.0,0.0,0.0,0.0,0.0,0.0,0.0,0.0,0.0,-2.0164,-2.0468,-2.1547,-2.1721,-2.1234,-1.9986,-1.8469,-1.7472,-1.714,-1.6729,0.0,0.0,0.0,0.0,0.0,0.0,0.0,0.0,0.0,0.0,0.0,0.0,0.0,0.0,0.0,0.0,0.0,0.0,0.0,0.0,0.0,0.0,0.0,0.0,0.0,0.0,0.0,0.0,0.0,0.0,0.0,0.0,0.0,0.0,0.0,0.0,0.0,0.0,0.0,0.0,0.0,0.0,0.0,0.0,0.0,0.0,0.0,0.0,0.0,0.0,0.0,0.0,0.0,0.0,0.0,0.0,0.0,0.0,0.0,0.0,0.0,0.0,0.0,0.0,0.0,0.0,0.0,0.0,0.0,0.0,0.0,0.0,0.0,0.0,0.0,0.0,0.0,0.0,0.0,0.0,0.0,0.0,0.0,0.0,0.0,0.0,0.0,0.0,0.0,0.0,0.0,0.0,0.0,0.0,0.0,0.0,0.0,0.0,0.0,0.0,0.0,0.0,-2.1525,-2.2164,-2.4055,-2.3195,-2.2514,-2.2427,-1.9876,-1.8443,-1.8893,-1.7424,0.0,0.0,0.0,0.0,0.0,0.0,0.0,0.0,0.0,0.0,0.0,0.0,0.0,0.0,0.0,0.0,0.0,0.0,0.0,0.0,0.0,0.0,0.0,0.0,0.0,0.0,0.0,0.0,0.0,0.0,0.0,0.0,0.0,0.0,0.0,0.0,0.0,0.0,0.0,0.0,0.0,0.0,0.0,0.0,0.0,0.0,0.0,0.0,0.0,0.0,0.0,0.0,0.0,0.0,0.0,0.0,0.0,0.0,0.0,0.0,0.0,0.0,0.0,0.0,0.0,0.0,0.0,0.0,0.0,0.0,0.0,0.0,0.0,0.0,0.0,0.0,0.0,0.0,0.0,0.0,0.0,0.0,0.0,0.0,0.0,0.0,0.0,0.0,0.0,0.0,0.0,0.0,0.0,0.0,0.0,0.0,0.0,0.0,0.0,0.0,0.0,0.0,-2.1701,-2.2217,0.0,-2.3497,-2.2774,-2.1627,-2.0137,-1.907,-1.8519,0.0,0.0,0.0,0.0,0.0,0.0,0.0,0.0,0.0,0.0,0.0,0.0,0.0,0.0,0.0,0.0,0.0,0.0,0.0,0.0,0.0,0.0,0.0,0.0,0.0,0.0,0.0,0.0,0.0,0.0,0.0,0.0,0.0,0.0,0.0,0.0,0.0,0.0,0.0,0.0,0.0,0.0,0.0,0.0,0.0,0.0,0.0,0.0,0.0,0.0,0.0,0.0,0.0,0.0,0.0,0.0,0.0,0.0,0.0,0.0,0.0,0.0,0.0,0.0,0.0,0.0,0.0,0.0,0.0,0.0,0.0,0.0,0.0,0.0,0.0,0.0,0.0,0.0,0.0,0.0,0.0,0.0,0.0,0.0,0.0,0.0,0.0,0.0,0.0,0.0,0.0,0.0,0.0,0.0,0.0,0.0,0.0,0.0,0.0,0.0,0.0,0.0,-2.1476,-2.1685,-2.2238,0.0,-2.3703,-2.3079,-2.179,-2.0415,-1.9443,-1.8967,0.0,0.0,0.0,0.0,0.0,0.0,0.0,0.0,0.0,0.0,0.0,0.0,0.0,0.0,0.0,0.0,0.0,0.0,0.0,0.0,0.0,0.0,0.0,0.0,0.0,0.0,0.0,0.0,0.0,0.0,0.0,0.0,0.0,0.0,0.0,0.0,0.0,0.0,0.0,0.0,0.0,0.0,0.0,0.0,0.0,0.0,0.0,0.0,0.0,0.0,0.0,0.0,0.0,0.0,0.0,0.0,0.0,0.0,0.0,0.0,0.0,0.0,0.0,0.0,0.0,0.0,0.0,0.0,0.0,0.0,0.0,0.0,0.0,0.0,0.0,0.0,0.0,0.0,0.0,0.0,0.0,0.0,0.0,0.0,0.0,0.0,0.0,0.0,0.0,0.0,0.0,0.0,0.0,0.0,0.0,0.0,0.0,0.0,0.0,0.0,0.0,0.0,-2.1515,-2.171,-2.2458,-2.4358,-2.4014,-2.3595,-2.358,-2.0847,-1.9581,0.0,0.0,0.0,0.0,0.0,0.0,0.0,0.0,0.0,0.0,0.0,0.0,0.0,0.0,0.0,0.0,0.0,0.0,0.0,0.0,0.0,0.0,0.0,0.0,0.0,0.0,0.0,0.0,0.0,0.0,0.0,0.0,0.0,0.0,0.0,0.0,0.0,0.0,0.0,0.0,0.0,0.0,0.0,0.0,0.0,0.0,0.0,0.0,0.0,0.0,0.0,0.0,0.0,0.0,0.0,0.0,0.0,0.0,0.0,0.0,0.0,0.0,0.0,0.0,0.0,0.0,0.0,0.0,0.0,0.0,0.0,0.0,0.0,0.0,0.0,0.0,0.0,0.0,0.0,0.0,0.0,0.0,0.0,0.0,0.0,0.0,0.0,0.0,0.0,0.0,0.0,0.0,0.0,0.0,0.0,0.0,0.0,0.0,0.0,0.0,0.0,0.0,0.0,-2.1515,-2.2099,-2.2772,-2.3789,-2.4163,-2.3759,-2.2383,-2.101,-2.0176,-2.0004,0.0,0.0,0.0,0.0,0.0,0.0,0.0,0.0,0.0,0.0,0.0,0.0,0.0,0.0,0.0,0.0,0.0,0.0,0.0,0.0,0.0,0.0,0.0,0.0,0.0,0.0,0.0,0.0,0.0,0.0,0.0,0.0,0.0,0.0,0.0,0.0,0.0,0.0,0.0,0.0,0.0,0.0,0.0,0.0,0.0,0.0,0.0,0.0,0.0,0.0,0.0,0.0,0.0,0.0,0.0,0.0,0.0,0.0,0.0,0.0,0.0,0.0,0.0,0.0,0.0,0.0,0.0,0.0,0.0,0.0,0.0,0.0,0.0,0.0,0.0,0.0,0.0,0.0,0.0,0.0,0.0,0.0,0.0,0.0,0.0,0.0,0.0,0.0,0.0,0.0,0.0,0.0,0.0,0.0,0.0,0.0,0.0,0.0,0.0,0.0,0.0,0.0,-2.1515,-2.2039,-2.2622,-2.3505,-2.3744,-2.3266,-2.1814,-2.0842,-2.0004,-1.9331,0.0,0.0,0.0,0.0,0.0,0.0,0.0,0.0,0.0,0.0,0.0,0.0,0.0,0.0,0.0,0.0,0.0,0.0,0.0,0.0,0.0,0.0,0.0,0.0,0.0,0.0,0.0,0.0,0.0,0.0,0.0,0.0,0.0,0.0,0.0,0.0,0.0,0.0,0.0,0.0,0.0,0.0,0.0,0.0,0.0,0.0,0.0,0.0,0.0,0.0,0.0,0.0,0.0,0.0,0.0,0.0,0.0,0.0,0.0,0.0,0.0,0.0,0.0,0.0,0.0,0.0,0.0,0.0,0.0,0.0,0.0,0.0,0.0,0.0,0.0,0.0,0.0,0.0,0.0,0.0,0.0,0.0,0.0,0.0,0.0,0.0,0.0,0.0,0.0,0.0,0.0,0.0,0.0,0.0,0.0,0.0,0.0,0.0,0.0,0.0,0.0,0.0,-2.1594,-2.1734,-2.2188,-2.346,-2.3101,-2.2473,-2.1754,-2.0528,-1.9501,-1.8781,0.0,0.0,0.0,0.0,0.0,0.0,0.0,0.0,0.0,0.0,0.0,0.0,0.0,0.0,0.0,0.0,0.0,0.0,0.0,0.0,0.0,0.0,0.0,0.0,0.0,0.0,0.0,0.0,0.0,0.0,0.0,0.0,0.0,0.0,0.0,0.0,0.0,0.0,0.0,0.0,0.0,0.0,0.0,0.0,0.0,0.0,0.0,0.0,0.0,0.0,0.0,0.0,0.0,0.0,0.0,0.0,0.0,0.0,0.0,0.0,-1.0732,0.0,0.0,0.0,0.0,0.0,0.0,0.0,0.0,0.0,0.0,0.0,0.0,0.0,0.0,0.0,0.0,0.0,0.0,0.0,0.0,0.0,0.0,0.0,0.0,0.0,0.0,0.0,0.0,0.0,0.0,0.0,0.0,0.0,0.0,0.0,0.0,0.0,0.0,0.0,0.0,0.0,-2.1972,-2.1901,-2.2188,-2.346,-2.3475,-2.2936,-2.1799,-2.0961,-2.0083,-1.9152,-1.8936,0.0,0.0,0.0,0.0,0.0,0.0,0.0,0.0,0.0,0.0,0.0,0.0,0.0,0.0,0.0,0.0,0.0,0.0,0.0,0.0,0.0,0.0,0.0,0.0,0.0,0.0,0.0,0.0,0.0,0.0,0.0,0.0,0.0,0.0,0.0,0.0,0.0,0.0,0.0,0.0,0.0,0.0,0.0,0.0,0.0,0.0,0.0,0.0,0.0,0.0,0.0,0.0,0.0,0.0,0.0,0.0,0.0,0.0,0.0,0.0,-1.1374,0.0,0.0,0.0,0.0,0.0,0.0,0.0,0.0,0.0,0.0,0.0,0.0,0.0,0.0,0.0,0.0,0.0,0.0,0.0,0.0,0.0,0.0,0.0,0.0,0.0,0.0,0.0,0.0,0.0,0.0,0.0,0.0,0.0,0.0,0.0,0.0,0.0,0.0,0.0,0.0,-2.1835,-2.2041,-2.2425,-2.3503,-2.3549,-2.3,-2.1809,-2.1243,-2.0513,-1.9366,-1.9672,0.0,0.0,0.0,0.0,0.0,0.0,0.0,0.0,0.0,0.0,0.0,0.0,0.0,0.0,0.0,0.0,0.0,0.0,0.0,0.0,0.0,0.0,0.0,0.0,0.0,0.0,0.0,0.0,0.0,0.0,0.0,0.0,0.0,0.0,0.0,0.0,0.0,0.0,0.0,0.0,0.0,0.0,0.0,0.0,0.0,0.0,0.0,0.0,0.0,0.0,0.0,0.0,0.0,-1.311,-1.3917,-1.5518,-1.5332,-1.5234,-1.5186,-1.4199,-1.3214,-1.2307,-1.2764,0.0,0.0,0.0,0.0,0.0,0.0,0.0,0.0,0.0,0.0,0.0,0.0,0.0,0.0,0.0,0.0,0.0,0.0,0.0,0.0,0.0,0.0,0.0,0.0,-2.147,-2.156,-2.0453,0.0,0.0,0.0,0.0,0.0,0.0,0.0,0.0,0.0,0.0,0.0,-2.1912,-2.2446,-2.301,-2.3785,-2.3773,-2.3289,-2.2245,-2.183,-2.1073,-1.9861,-2.0496,-2.0852,0.0,0.0,0.0,0.0,0.0,0.0,0.0,0.0,0.0,0.0,0.0,0.0,0.0,0.0,0.0,0.0,0.0,0.0,0.0,0.0,0.0,0.0,0.0,0.0,0.0,0.0,0.0,0.0,0.0,0.0,0.0,0.0,-0.4349,-0.4885,0.0,0.0,0.0,0.0,0.0,0.0,0.0,0.0,0.0,0.0,0.0,0.0,0.0,-1.1644,-1.3323,-1.3708,-1.4282,-1.5051,-1.543,-1.5737,-1.6006,-1.6719,-1.7041,-1.7051,-1.7246,0.0,-1.3322,-1.3579,0.0,0.0,0.0,0.0,0.0,0.0,0.0,0.0,0.0,0.0,0.0,0.0,0.0,0.0,0.0,0.0,0.0,0.0,0.0,0.0,0.0,0.0,-2.0782,-2.2099,-2.2488,-2.2544,0.0,-2.1455,-2.0722,-2.0722,-2.0228,0.0,0.0,0.0,0.0,0.0,0.0,0.0,-2.3304,-2.3742,-2.4228,-2.4932,-2.4971,-2.4675,-2.3952,-2.3251,-2.2435,-2.1381,-2.0836,-2.0726,-2.1123,-2.1154,0.0,0.0,0.0,0.0,0.0,0.0,0.0,0.0,0.0,0.0,0.0,0.0,0.0,0.0,0.0,0.0,0.0,0.0,0.0,0.0,0.0,0.0,0.0,0.0,0.0,0.0,0.0,0.0,0.0,-0.4119,-0.5,-0.4881,-0.5636,-0.6073,0.0,0.0,0.0,0.0,0.0,0.0,0.0,0.0,0.0,-1.0221,-1.1323,-1.2615,-1.4054,-1.4362,-1.5299,-1.6885,-1.6825,-1.7203,-1.7891,-1.8281,-1.8457,-1.8467,-1.8652,-1.7842,-1.6341,-1.5797,-1.5157,-1.4558,0.0,0.0,0.0,0.0,-1.6303,-1.6449,-1.7664,-1.7832,-1.757,-1.8058,0.0,0.0,0.0,0.0,0.0,0.0,0.0,0.0,0.0,0.0,-2.2143,-2.346,-2.4059,-2.4223,-2.3849,-2.3011,-2.2233,0.0,-2.1477,-2.136,-2.1935,0.0,0.0,0.0,0.0,-2.2671,-2.3268,-2.4102,-2.4782,-2.5141,-2.5449,-2.5086,-2.3683,-2.3474,-2.2916,-2.168,-2.1553,-2.1603,-2.182,-2.182,-2.1972,0.0,0.0,0.0,0.0,0.0,0.0,0.0,0.0,0.0,0.0,0.0,0.0,0.0,0.0,0.0,0.0,0.0,0.0,0.0,0.0,0.0,0.0,0.0,0.0,0.0,0.0,0.0,0.0,-0.4985,-0.5798,-0.5066,-0.6271,-0.6894,0.0,0.0,0.0,0.0,0.0,0.0,-0.9121,-1.0151,-1.0994,-1.1489,-1.2582,-1.3863,-1.5262,-1.5562,-1.6697,-1.8672,-1.8502,-1.8805,-1.9609,-1.9609,-1.9609,-1.9609,-1.9609,-1.9365,-1.886,-1.7503,-1.6686,-1.6311,-1.6433,-1.6739,-1.7186,-1.786,-1.802,-1.8155,-1.983,-1.9971,-1.9489,-1.9763,-1.9697,-1.9287,-1.8332,0.0,0.0,0.0,0.0,-1.9989,-2.1156,-2.2562,-2.3924,-2.4896,-2.563,-2.5929,-2.527,-2.4597,-2.3834,0.0,-2.2394,-2.2332,-2.3003,0.0,0.0,0.0,0.0,-2.3505,-2.373,-2.4743,-2.5473,-2.557,-2.5944,-2.552,-2.3874,-2.3852,-2.3371,-2.2142,-2.2207,-2.231,-2.231,-2.231,-2.231,-2.231,0.0,0.0,0.0,0.0,0.0,0.0,0.0,0.0,0.0,0.0,0.0,0.0,0.0,0.0,0.0,0.0,0.0,0.0,0.0,0.0,0.0,0.0,0.0,0.0,0.0,0.0,0.0,0.0,0.0,-0.5867,-0.7747,0.0,0.0,0.0,0.0,-0.9582,-0.9897,-1.0314,-1.0868,-1.173,-1.2774,-1.4015,-1.4669,-1.6103,-1.8417,-1.8905,-1.9592,-2.0439,-2.081,-2.081,-2.0498,-2.0498,-2.0498,-2.0498,-2.0498,-2.0254,-1.9687,-1.7615,-1.741,-1.8338,-1.7364,-1.7937,-1.9302,-1.9021,-1.9079,-1.9233,-1.8853,-1.8845,-1.9206,-2.0369,-2.0793,-2.0927,-2.1628,-2.1101,0.0,0.0,-2.1813,-2.2664,-2.3281,-2.4911,-2.6408,-2.6482,-2.6991,-2.734,-2.6632,-2.5974,-2.4941,0.0,-2.2184,-2.1838,-2.2286,0.0,-2.3181,-2.3555,-2.4662,-2.5475,-2.5476,-2.6151,-2.6624,-2.6607,-2.6657,-2.6353,-2.5544,-2.485,-2.4123,-2.3346,-2.2654,-2.231,-2.231,-2.231,-2.231,-2.231,-2.231,0.0,0.0,0.0,0.0,0.0,0.0,0.0,0.0,0.0,0.0,0.0,0.0,0.0,0.0,0.0,0.0,0.0,0.0,0.0,0.0,0.0,0.0,0.0,0.0,0.0,0.0,0.0,0.0,-0.6325,-0.8498,0.0,-0.8527,-0.9139,-0.9957,-1.0853,-1.1473,-1.2025,-1.2405,-1.3253,-1.3939,-1.4372,-1.4781,-1.6141,-1.8448,-1.8668,-1.9683,-2.1416,-2.1572,-2.1426,-2.0996,-2.0996,-2.084,-2.0566,-2.0566,-2.0844,-2.1189,-2.0185,-1.9917,-2.0284,-2.038,-2.0785,-2.1294,-2.1162,-2.1184,-2.1373,-2.2057,-2.2022,-2.1785,-2.181,-2.1883,-2.1903,-2.1771,-2.2044,-2.2435,-2.2286,-2.3059,-2.4088,-2.4717,-2.6048,-2.7335,-2.7769,-2.8068,-2.8053,-2.7365,-2.6707,-2.5914,-2.4777,-2.3927,-2.358,-2.4215,-2.3566,-2.3333,-2.4293,-2.4795,-2.5196,-2.5576,-2.6234,-2.6691,-2.6691,-2.6691,-2.6201,-2.4983,-2.4644,-2.3968,-2.2784,-2.2462,-2.231,-2.231,-2.231,-2.231,-2.231,-2.231,-2.2892,0.0,0.0,0.0,0.0,0.0,0.0,0.0,0.0,0.0,0.0,0.0,0.0,0.0,0.0,0.0,0.0,0.0,0.0,0.0,0.0,0.0,0.0,0.0,0.0,0.0,0.0,-0.7587,-0.6583,-0.9118,-1.058,-0.9606,-1.0544,-1.1601,-1.2477,-1.3134,-1.3627,-1.3935,-1.4596,-1.4963,-1.4963,-1.515,-1.6404,-1.8778,-1.8778,-1.986,-2.21,-2.21,-2.1865,-2.1445,-2.1299,-2.1074,-2.0781,-2.0635,-2.1023,-2.1722,-2.1999,-2.2182,-2.2262,-2.2606,-2.2896,-2.315,-2.315,-2.315,-2.3236,-2.394,-2.3794,-2.3228,-2.3058,-2.292,-2.2783,-2.2817,-2.3457,-2.422,-2.4043,-2.4921,-2.6063,-2.6512,-2.759,-2.8622,-2.8876,-2.9086,-2.9056,-2.8397,-2.7739,-2.7141,-2.6707,-2.5621,-2.4811,-2.5083,-2.4424,-2.4147,-2.5155,-2.5226,-2.5458,-2.6236,-2.6556,-2.6691,-2.6691,-2.6691,-2.6099,-2.4642,-2.4712,-2.4137,-2.2412,-2.2547,-2.2564,-2.2327,-2.2547,-2.2682,-2.2682,-2.2682,-2.3408,-2.4865,0.0,0.0,0.0,0.0,0.0,0.0,0.0,0.0,0.0,0.0,0.0,0.0,0.0,0.0,0.0,0.0,0.0,0.0,0.0,0.0,0.0,0.0,0.0,-0.4731,-0.6701,-0.7755,-0.6888,-0.9707,-1.1487,-1.093,-1.2531,-1.3941,-1.4516,-1.4823,-1.5117,-1.5398,-1.5678,-1.5832,-1.5832,-1.5832,-1.7023,-1.9497,-1.9497,-2.0491,-2.2529,-2.2529,-2.2314,-2.1894,-2.1455,-2.125,-2.123,-2.0762,-2.083,-2.1371,-2.2918,-2.3806,-2.4194,-2.371,-2.4079,-2.4845,-2.4833,-2.482,-2.4745,-2.4192,-2.3627,-2.3271,-2.4002,-2.3866,-2.3593,-2.4969,-2.5497,-2.5747,-2.6381,-2.7577,-2.8622,-2.8622,-2.9564,-3.0357,-2.9759,-3.0058,-3.0342,-2.9744,-2.9086,-2.8622,-2.8622,-2.7051,-2.548,-2.4761,-2.5087,-2.5601,-2.6206,-2.6135,0.0,-2.7618,-2.7164,-2.6759,-2.6742,-2.6759,-2.6167,-2.4709,-2.5203,-2.4678,-2.2479,-2.2987,-2.3054,-2.2344,-2.2987,-2.3359,-2.3359,-2.3405,-2.3743,-2.4399,0.0,0.0,0.0,0.0,0.0,0.0,0.0,0.0,0.0,0.0,0.0,0.0,0.0,0.0,0.0,0.0,0.0,0.0,0.0,0.0,0.0,0.0,-0.5661,-0.5661,-0.7199,-0.8457,-0.8657,-1.1025,-1.273,-1.3026,-1.4153,-1.507,-1.5438,-1.5545,-1.5625,-1.5705,-1.5785,-1.5832,-1.5832,-1.5832,-1.7023,-1.9497,-1.9497,-2.0631,-2.2969,-2.2969,-2.2744,-2.2324,-2.1894,-2.1709,-2.166,-2.0898,-2.144,-2.2773,-2.3263,-2.4186,-2.5195,-2.5091,-2.5174,-2.5335,-2.4958,-2.482,-2.4745,-2.4192,-2.3891,-2.369,-2.3504,-2.3935,-2.4714,-2.5095,-2.6297,-2.7578,-2.7765,-2.8521,-2.931,-2.931,-2.9909,-3.0462,-3.0298,-3.0372,-3.0447,-3.0283,-2.9759,-2.931,-2.931,-2.8487,-2.741,-2.6258,-2.5785,-2.5712,-2.6302,-2.6318,0.0,-2.7064,-2.7479,-2.7644,-2.7501,-2.801,-2.774,-2.6218,-2.5795,-2.4881,-2.3207,-2.2801,-2.2513,-2.231,-2.2496,-2.2598,-2.2598,-2.3419,-2.4025,0.0,0.0,0.0,0.0,0.0,0.0,0.0,0.0,0.0,0.0,0.0,0.0,0.0,0.0,0.0,0.0,0.0,0.0,0.0,0.0,0.0,0.0,-0.5959,-0.6495,-0.6739,-0.7595,-0.8317,-0.8956,-1.1211,-1.2808,-1.3086,-1.4721,-1.5832,-1.6005,-1.6126,-1.6199,-1.6199,-1.6079,-1.6072,-1.6192,-1.5959,-1.6812,-1.8893,-1.8751,-1.9679,-2.1587,-2.2129,-2.2183,-2.2034,-2.2071,-2.2148,-2.2109,-2.1416,-2.1808,-2.3023,-2.33,-2.4258,0.0,0.0,0.0,0.0,0.0,-2.536,-2.5096,-2.4782,-2.4519,-2.4293,-2.3954,-2.4353,-2.4942,-2.4709,-2.6148,-2.7795,-2.7598,-2.872,-2.9968,-2.9968,-3.0447,-3.0941,-3.0941,-3.0941,-3.0941,-3.0941,-3.0417,-2.9968,-2.9968,-2.9445,0.0,-2.7619,-2.6647,-2.6193,-2.6794,-2.6607,-2.6753,-2.7741,-2.8014,-2.8141,-2.8277,-2.8416,-2.801,-2.6793,-2.6031,0.0,0.0,0.0,-2.2767,-2.2767,-2.2767,0.0,0.0,0.0,-2.3788,-2.3903,-2.4557,0.0,0.0,-2.6135,-2.6465,0.0,0.0,0.0,0.0,0.0,0.0,0.0,0.0,0.0,0.0,0.0,0.0,0.0,0.0,0.0,0.0,-0.6647,-0.7234,-0.7828,-0.7913,-0.8107,-0.8466,-1.0703,-1.2228,-1.2237,-1.468,-1.6326,-1.6326,-1.656,-1.6707,-1.6707,0.0,0.0,0.0,0.0,-1.6566,-1.8074,-1.7849,-1.8411,-1.9761,-2.0755,-2.1382,-2.156,-2.216,-2.2539,-2.2559,-2.209,-2.2148,-2.2624,-2.3063,-2.4287,-2.5735,-2.6394,-2.6584,-2.6533,-2.6533,-2.6138,-2.5686,-2.5624,0.0,0.0,-2.4845,-2.4858,-2.482,-2.4318,-2.5682,-2.729,-2.681,-2.8612,-3.0612,-3.0612,-3.1076,-3.1482,-3.1482,-3.1482,-3.1482,-3.1482,-3.1046,-3.0612,-3.0612,-3.0118,-2.9505,-2.8921,-2.7709,-2.6962,-2.7442,-2.6933,-2.7136,-2.8779,-2.851,-2.8366,-2.8945,0.0,0.0,-2.7012,-2.6201,-2.5135,-2.3731,-2.3477,-2.3393,-2.3393,-2.3325,-2.3274,-2.3274,-2.3274,-2.3223,-2.3141,-2.3165,-2.3558,-2.4334,-2.6429,-2.7053,0.0,0.0,0.0,0.0,0.0,0.0,0.0,0.0,0.0,0.0,0.0,0.0,0.0,0.0,0.0,-0.6719,-0.7326,-0.7848,-0.8452,-0.8537,-0.8927,-0.9888,-1.1513,-1.2923,-1.3898,-1.557,-1.662,-1.662,-1.6673,-1.6707,-1.6707,-1.6653,-1.6647,-1.6707,-1.6366,-1.678,-1.8074,-1.7849,-1.8772,-2.0935,0.0,0.0,-2.2755,-2.2609,-2.2695,-2.2969,-2.2217,-2.2314,-2.3036,-2.3197,-2.4489,-2.6417,-2.6892,-2.6854,-2.6533,-2.6533,-2.6458,-2.6226,-2.5762,-2.5523,-2.5372,-2.4958,-2.5109,-2.5423,-2.5322,-2.6854,0.0,-2.8505,-2.9834,-3.1345,-3.1345,-3.1377,-3.1482,-3.1482,-3.1482,-3.1482,-3.1482,-3.1377,-3.1345,-3.1345,-3.0791,-3.0283,-3.0148,-2.9071,-2.8075,-2.764,-2.7459,-2.7446,-2.7703,-2.8168,-2.8605,-2.9098,-2.9036,-2.8826,-2.8602,-2.7266,-2.6116,-2.5236,-2.4052,-2.3393,-2.3393,-2.2835,-2.2513,-2.2513,-2.2513,-2.2617,-2.2797,-2.3069,-2.3754,-2.4773,-2.486,-2.5162,0.0,0.0,0.0,0.0,0.0,0.0,0.0,0.0,0.0,0.0,0.0,-0.2417,0.0,0.0,-0.5594,-0.7194,-0.7794,-0.8197,-0.8648,-0.871,-0.8894,-0.9444,-1.1413,-1.2925,-1.3529,-1.5593,-1.6927,-1.6927,-1.7061,-1.7141,-1.7141,-1.7007,-1.6994,-1.7141,-1.658,-1.6626,-1.7351,-1.6989,-1.7669,-1.9497,-2.0124,-2.1033,-2.2208,-2.265,-2.2939,-2.3115,-2.2695,-2.2754,-2.3183,-2.3803,-2.4854,-2.6135,-2.6959,-2.7137,-2.6841,-2.6634,-2.6533,-2.6483,-2.6126,-2.6025,-2.5988,-2.5724,-2.5812,-2.5975,-2.5686,-2.7183,-2.8933,-2.8692,-3.0024,-3.1482,-3.1482,-3.1482,-3.1482,-3.1482,-3.1482,-3.1482,-3.1482,-3.1482,-3.1482,-3.1482,-3.1255,-3.0911,-3.0567,-2.9983,-2.922,-2.8233,-2.8083,-2.8082,-2.7951,-2.8247,-2.8701,-2.9216,-2.9239,-2.9029,-2.8581,-2.7077,-2.5828,-2.5101,-2.4002,-2.3393,-2.3393,-2.2699,-2.2479,-2.2852,-2.2496,-2.2801,-2.3829,-2.365,-2.4215,-2.5438,-2.5216,-2.564,0.0,0.0,0.0,0.0,0.0,0.0,0.0,0.0,-0.1474,-0.118,-0.1317,-0.2075,-0.4001,-0.4704,-0.565,-0.7634,-0.8157,-0.8448,-0.8716,-0.8754,-0.8743,-0.8713,-1.1176,-1.282,-1.2744,-1.5512,-1.7235,-1.7235,-1.7448,-1.7582,-1.7582,-1.7361,-1.7341,-1.7575,-1.6787,-1.6466,-1.67,-1.6312,-1.6756,-1.8048,-1.9314,-2.0486,-2.1658,-2.2677,-2.3135,-2.3135,-2.3135,-2.3135,-2.3135,-2.4125,-2.4986,-2.5856,-2.663,-2.7203,-2.7519,-2.6866,-2.6684,-2.6603,-2.6571,-2.6533,-2.6546,-2.6647,-2.6684,-2.6527,-2.6063,-2.7315,-2.8881,-2.865,-2.9932,-3.15,-3.181,-3.1913,-3.1913,-3.1913,-3.1824,-3.1661,-3.1661,-3.1556,-3.1482,-3.1482,-3.1482,-3.1302,-3.0806,-3.0702,-3.0268,-2.8981,-2.8682,-2.8589,-2.8514,-2.8411,-2.8559,-2.918,-2.8984,-2.8608,-2.8003,-2.6551,-2.5497,-2.4992,-2.4166,-2.3641,-2.3613,-2.3038,-2.2936,-2.3393,-2.297,-2.3454,-2.489,-2.4372,-2.4822,-2.6152,-2.6057,-2.6649,-0.0708,-0.0743,-0.08,-0.1202,-0.1078,-0.0886,0.0,0.0,-0.0929,-0.0652,-0.0923,-0.1803,-0.3517,-0.4461,-0.5686,-0.786,-0.8469,-0.872,-0.8889,-0.8913,-0.8862,-0.8726,-1.1401,-1.3219,-1.3194,-1.5895,-1.7535,-1.7535,-1.7562,-1.7582,-1.7582,-1.7549,-1.7549,-1.7582,-1.6981,-1.6673,-1.6707,-1.7258,-1.8141,-1.9314,-2.0486,-2.1756,-2.2862,-2.3047,-2.3135,-2.3135,-2.3135,-2.3135,-2.3135,-2.3222,-2.4532,-2.6349,-2.597,-2.7007,-2.8612,-2.757,-2.7193,-2.7118,-2.6697,-2.6533,-2.6609,-2.703,-2.7193,-2.718,-2.7118,-2.7777,-2.8705,-2.9577,-3.0502,-3.1576,-3.2913,-3.3275,-3.3275,-3.3275,-3.2826,-3.2407,-3.2407,-3.1943,-3.1482,-3.1482,-3.1482,-3.1452,-3.1377,-3.1362,-3.0986,-2.9669,-2.8981,-2.8629,-2.8591,-2.8051,-2.7944,-2.8559,-2.7984,-2.7509,-2.7332,-2.6567,-2.6273,-2.6595,-2.5368,-2.4564,-2.4374,-2.432,-2.3968,-2.341,-2.3951,-2.4337,-2.4567,-2.4763,-2.5492,-2.6686,-2.6211,-2.6649,-0.0247,-0.043,-0.0559,0.0,-0.0647,-0.0537,-0.0655,-0.1247,-0.1778,-0.1433,-0.2115,-0.3279,-0.4774,-0.5422,-0.6308,0.0,-0.857,-0.8764,-0.8916,-0.8862,-0.8781,-0.8716,-1.1217,-1.2926,-1.3158,-1.5864,-1.7582,-1.7582,-1.7582,-1.7582,-1.7582,-1.7582,-1.7582,-1.7582,-1.7181,-1.6881,-1.6707,-1.7534,-1.8419,-1.9488,-2.0755,-2.1933,-2.3135,-2.3135,-2.3135,-2.3135,-2.3135,-2.3135,-2.3135,-2.3135,-2.4478,-2.6449,-2.6237,-2.747,-2.9302,-2.8172,-2.7758,-2.772,-2.7494,-2.7205,-2.6979,-2.7205,-2.7067,-2.6866,-2.718,-2.785,-2.8688,-2.9456,-3.0675,-3.1858,-3.2543,-3.3084,-3.3499,-3.3499,-3.329,-3.308,-3.308,-3.2871,-3.2677,-3.2677,-3.2677,-3.2557,-3.2168,-3.2108,-3.1794,-3.0851,-3.0148,-2.9445,-2.8697,-2.8353,-2.8248,-2.8462,-2.7845,-2.7375,-2.729,-2.663,-2.6253,-2.6365,-2.5382,-2.4895,-2.512,-2.4712,-2.4543,-2.4678,-2.4543,-2.4929,-2.5778,-2.5479,-2.6061,-2.7447,-2.7201,-2.7601,-0.0533,0.0,0.0,-0.1412,-0.1448,-0.1369,-0.1399,-0.2142,-0.2842,-0.2586,-0.3319,-0.4451,-0.5712,-0.6118,-0.6744,-0.8246,-0.8611,-0.8764,-0.8916,-0.8808,-0.8696,-0.8652,-1.0728,-1.2324,-1.2837,-1.5579,-1.7341,-1.7341,-1.7415,-1.7462,-1.7462,-1.7542,-1.7582,-1.7582,-1.7301,-1.7007,-1.6707,-1.794,-1.8926,-1.9497,-2.1033,-2.2217,-2.3135,-2.3135,-2.3135,-2.3135,-2.3135,-2.3135,-2.3135,-2.3135,-2.4221,-2.6058,-2.6389,-2.7626,-2.9266,-2.8373,-2.8226,-2.831,-2.816,-2.7846,-2.7544,-2.7682,-2.7469,-2.7218,-2.7607,-2.8125,-2.8729,-2.9442,-3.0651,-3.1773,-3.2485,-3.3141,-3.3695,-3.3976,-3.3903,-3.3769,-3.3769,-3.3619,-3.3499,-3.3499,-3.3499,-3.335,-3.2871,-3.2632,-3.2362,-3.1884,-3.1225,-3.0387,-2.9265,-2.8816,-2.8529,-2.8266,-2.7793,-2.7427,-2.7397,-2.6738,-2.6335,-2.637,-2.5631,-2.5332,-2.5648,-2.5308,-2.5253,-2.5609,-2.527,-2.5625,-2.6691,-2.6167,-2.6536,-2.7754,-2.784,-2.8228,0.0,0.0,-0.2301,-0.3914,-0.4094,-0.3896,-0.3878,-0.3949,-0.4,-0.3907,-0.4011,-0.4414,-0.5727,-0.6118,-0.6744,-0.8246,-0.8611,-0.8764,-0.8916,-0.8808,-0.8655,-0.8506,-0.9823,-1.1191,0.0,-1.5032,-1.6734,-1.6734,-1.7001,-1.7161,-1.7161,-1.7428,-1.7582,-1.7582,-1.7301,-1.7007,-1.6707,-1.8785,-1.975,-1.9497,-2.1952,-2.3047,-2.3135,-2.3135,-2.3135,-2.3135,-2.3135,-2.3135,-2.3135,-2.3135,-2.38,-2.4957,-2.6058,-2.7209,-2.8164,-2.814,-2.8456,-2.8825,-2.8298,-2.8097,-2.8172,-2.8699,-2.8875,-2.885,-2.8875,-2.8875,-2.9087,-3.0118,-3.0408,-3.1016,-3.332,-3.3969,-3.4254,-3.5219,-3.4936,-3.4442,-3.4442,-3.3948,-3.3499,-3.3499,-3.3499,-3.3484,-3.3469,-3.2931,-3.2497,-3.2482,-3.1928,-3.124,-3.0537,-2.9355,-2.8338,-2.77,-2.761,-2.758,-2.76,-2.695,-2.6786,-2.7303,-2.6598,-2.6044,-2.5803,-2.6334,-2.6302,-2.5625,-2.6285,-2.6657,-2.6691,-2.6674,-2.6872,-2.7317,-2.7725,-2.8075,0.0,0.0,-0.2513,-0.4101,-0.4353,-0.4327,-0.4152,-0.4888,-0.5482,-0.525,-0.5506,-0.5957,-0.6345,-0.6596,-0.6979,-0.7614,-0.8314,-0.8764,-0.8916,-0.8808,-0.8655,-0.8499,-0.9618,0.0,0.0,0.0,0.0,-1.6607,-1.6981,-1.7148,-1.7148,-1.7241,-1.7295,-1.7295,-1.7007,-1.6714,-1.642,-1.7934,-1.8926,-1.9497,-2.1952,-2.3135,-2.3135,-2.3135,-2.3135,-2.3135,-2.3135,-2.3135,-2.3135,-2.3135,-2.38,-2.4872,-2.6058,-2.7128,-2.8176,-2.8937,-2.8827,-2.8373,-2.8203,-2.8307,-2.8687,-2.8875,-2.8687,-2.8448,-2.8825,-2.8925,-2.9076,-2.9757,-3.0423,-3.109,-3.1906,-3.3101,-3.4095,-3.4394,-3.4809,-3.516,-3.516,-3.4996,-3.4831,-3.4831,-3.4831,-3.4681,-3.4218,-3.3963,-3.3529,-3.2647,-3.1569,-3.0776,-3.0537,-2.9774,-2.8996,-2.8323,-2.8248,-2.7889,-2.6991,-2.6722,-2.6792,-2.7292,-2.6618,-2.6474,-2.7102,-2.6842,-2.6573,-2.6336,-2.6573,-2.6691,-2.6691,-2.6691,-2.6906,-2.7286,-2.7439,-2.7833,0.0,-0.2937,-0.3388,-0.5478,-0.597,-0.593,-0.5686,-0.6264,-0.6776,-0.6529,-0.6617,-0.6646,-0.6552,-0.6514,-0.6569,-0.685,-0.7486,-0.817,-0.858,-0.8572,-0.8577,-0.8638,-0.9234,-1.0288,0.0,0.0,0.0,-1.6216,-1.686,-1.7163,-1.6847,-1.7034,-1.7148,-1.7148,-1.686,-1.6613,-1.6426,-1.7934,-1.9394,-2.0764,-2.2315,-2.3135,-2.3135,-2.3135,-2.3135,-2.3135,-2.3135,-2.3135,-2.3135,-2.3135,-2.38,-2.4872,-2.6058,-2.7128,-2.8176,-2.8937,-2.8767,-2.8176,-2.8597,-2.8704,-2.8654,-2.9074,-2.9001,-2.8775,-2.9139,-2.9239,-2.9315,-2.9691,-3.0203,-3.0758,-3.1106,-3.2321,-3.3602,-3.3945,-3.4758,-3.5504,-3.5504,-3.5504,-3.5504,-3.5504,-3.5504,-3.537,-3.4921,-3.4637,-3.4113,-3.3021,-3.1928,-3.1046,-3.0567,-3.0163,-2.9669,-2.9026,-2.8742,-2.8248,-2.738,-2.7081,-2.7157,-2.7703,-2.6999,-2.696,-2.7871,-2.7129,-2.6691,-2.6691,-2.6691,-2.6691,-2.6691,-2.6691,-2.6841,-2.71,-2.7486,-2.7932,-0.3592,-0.434,-0.4903,-0.7912,-0.8511,-0.8465,-0.8306,-0.8143,-0.7936,-0.7621,-0.6923,-0.6354,0.0,0.0,-0.5593,-0.5992,-0.6566,-0.7155,-0.7959,-0.8171,-0.8472,0.0,0.0,0.0,0.0,0.0,0.0,-1.5569,0.0,-1.6907,-1.6346,-1.6847,-1.7148,-1.7148,-1.6847,-1.6687,-1.6687,-1.8858,-2.0942,-2.3047,-2.3047,-2.3135,-2.3135,-2.3135,-2.3135,-2.3135,-2.3135,-2.3135,-2.3135,-2.3135,-2.3714,-2.4872,-2.6058,-2.7116,-2.8004,-2.8176,-2.8176,-2.8255,-2.9365,-2.9028,-2.8267,-2.9443,-2.9792,-2.9792,-2.9792,-2.9792,-2.9792,-2.9792,-2.9792,-2.9998,-3.0895,-3.1815,-3.2749,-3.3671,-3.4691,-3.5424,-3.5424,-3.5439,-3.5504,-3.5504,-3.5504,-3.5504,-3.5504,-3.4966,-3.4292,-3.3604,-3.2961,-3.2093,-3.0776,-3.0567,-3.0313,-2.9699,-2.9071,-2.8667,-2.8607,-2.8008,-2.789,-2.8511,-2.7734,-2.7541,-2.8162,-2.7291,-2.6759,-2.6759,-2.6759,-2.6725,-2.6691,-2.6725,-2.6725,-2.6742,-2.7841,-2.8382,-0.227,-0.3673,-0.4949,-0.6738,-0.8033,-0.8726,-0.8353,-0.8062,-0.7597,-0.6799,-0.6,-0.5234,0.0,0.0,0.0,-0.5935,-0.7117,0.0,-0.8596,-0.8796,0.0,-0.8937,0.0,-0.9636,-1.1186,-1.25,0.0,0.0,-1.6394,-1.7081,-1.6934,-1.7068,-1.7148,-1.7148,-1.6653,-1.6386,-1.6386,-1.8511,-2.0309,-2.1756,-2.2677,-2.3135,-2.3135,-2.3135,-2.3135,-2.3135,-2.3135,-2.3135,-2.3135,-2.3135,-2.3299,-2.3714,-2.5724,-2.6637,-2.7128,-2.8779,-2.8858,-2.8255,-2.9365,-2.9028,-2.8267,-2.9443,-2.9792,-2.9792,-2.9792,-2.9792,-2.9792,-2.9792,-2.9792,-2.9869,-3.0062,-3.0833,-3.1609,-3.1888,-3.3171,-3.4394,-3.4394,-3.4986,-3.5504,-3.5504,-3.5504,-3.5504,-3.5504,-3.5355,-3.4846,-3.3679,-3.335,-3.2946,-3.2108,-3.1569,-3.1016,-3.0342,-3.0118,-2.9639,-2.8682,-2.8442,-2.8591,-2.9136,-2.8443,-2.8475,-2.9559,-2.826,-2.7537,-2.7537,-2.7537,-2.7249,-2.6691,-2.7249,-2.7249,-2.6708,-2.7555,-2.81,-0.1938,-0.3489,-0.5088,-0.647,-0.7838,-0.8659,-0.7918,-0.7637,-0.7195,-0.6157,-0.5285,0.0,-0.4122,0.0,0.0,0.0,0.0,0.0,-0.8337,-0.8756,-0.9001,0.0,-0.9262,0.0,-1.0912,-1.1952,-1.3202,0.0,-1.6488,-1.7228,-1.6967,-1.7081,-1.7148,-1.7148,-1.658,-1.6497,-1.6929,-1.8589,-2.0124,-2.1293,-2.2492,-2.3135,-2.3135,-2.3135,-2.3135,-2.3135,0.0,-2.3135,-2.3135,-2.3135,-2.3387,-2.4049,-2.5808,-2.6801,-2.7371,-2.9131,-2.9106,-2.8255,-2.9365,-2.9028,-2.8267,-2.9443,-2.9792,-2.9792,-2.9792,-2.9792,-2.9792,-2.9792,-2.9792,-2.9792,-2.9792,-3.0482,-3.118,-3.118,-3.2321,-3.338,-3.338,-3.4177,-3.4986,-3.5424,-3.5504,-3.5504,-3.5504,-3.5504,-3.525,-3.4487,-3.3873,-3.3365,-3.2991,-3.2123,-3.139,-3.1001,-3.0687,-3.0103,-2.9116,-2.8771,-2.8738,-2.9013,-2.8558,-2.8735,-2.9655,-2.8831,-2.8332,-2.8332,-2.8332,-2.8112,-2.7706,-2.8112,-2.8112,-2.7723,-2.8467,-2.8914,-0.231,-0.3889,-0.5301,-0.6567,-0.7879,-0.8562,-0.7379,-0.7115,-0.6713,-0.5536,0.0,-0.4215,-0.4135,-0.4074,-0.4201,-0.4745,0.0,-0.7044,-0.7764,-0.8444,-0.892,-0.933,-0.9517,-0.9966,-1.1033,-1.1322,-1.2487,-1.4962,-1.6518,-1.7147,-1.6847,-1.7068,-1.7188,-1.7148,-1.6613,-1.676,-1.7751,-1.888,-2.0124,-2.1293,-2.2492,-2.3135,-2.3135,-2.3135,-2.3135,-2.3135,-2.3135,-2.3135,-2.3135,-2.3135,-2.3714,-2.4713,-2.5975,-2.7046,-2.8016,-2.9365,-2.9184,-2.8426,-2.9456,-2.9118,-2.8518,-2.9456,-2.9792,-2.9792,-2.9792,-2.9792,-2.9792,-2.9792,-2.9792,-2.9792,-2.9792,-3.0419,-3.1044,-3.1044,-3.1756,-3.2393,-3.2393,-3.3241,-3.4312,-3.5279,-3.5504,-3.5504,-3.5504,-3.5504,-3.5474,-3.5385,-3.4382,-3.3589,-3.3499,-3.2347,-3.1482,-3.1482,-3.1001,-3.0387,-2.9759,-2.9101,-2.8686,-2.8649,-2.8537,-2.8737,-2.9297,-2.9219,-2.9127,-2.9127,-2.9025,-2.896,-2.8822,-2.8822,-2.8822,-2.8839,-2.96,-3.0023,-0.4024,-0.567,-0.6895,-0.6957,-0.7812,-0.8513,-0.752,-0.6983,0.0,0.0,-0.4649,-0.4302,-0.3954,-0.4414,-0.5132,-0.5863,0.0,0.0,0.0,0.0,-0.9154,0.0,0.0,0.0,0.0,0.0,0.0,0.0,0.0,-1.6243,-1.733,-1.7482,-1.7402,-1.7257,-1.6814,-1.7071,-1.7992,-1.8999,-2.0124,-2.1293,-2.2492,-2.3135,-2.3135,-2.3135,-2.3135,-2.3135,-2.3135,0.0,-2.3135,-2.3135,-2.3222,-2.3637,-2.5724,-2.6637,-2.7046,-2.904,-2.9702,-2.9534,-2.9702,-2.9702,-2.9534,-2.9714,-2.9792,-2.9792,-2.9792,-2.9792,-2.9792,-2.9792,-2.9792,-2.9792,-2.9792,-2.9934,-3.0075,-3.0075,-3.0771,-3.1462,-3.1462,-3.282,-3.4312,-3.5279,-3.5504,-3.5504,-3.5504,-3.5504,-3.531,-3.4741,-3.4457,-3.4113,-3.3559,-3.2347,-3.1482,-3.1482,-3.1377,-3.1076,-3.0402,-2.9774,-2.9418,-2.9345,-2.9248,-2.9496,-3.0053,-2.999,-2.9922,-2.9922,-2.9296,-2.867,-2.8027,-2.8027,-2.8027,-2.8044,-2.8822,-2.9516,-0.4691,-0.6105,-0.7294,-0.6894,-0.7744,-0.8394,-0.7002,0.0,0.0,0.0,-0.4259,-0.4192,-0.3957,0.0,0.0,0.0,0.0,0.0,0.0,0.0,0.0,0.0,0.0,0.0,0.0,0.0,0.0,0.0,0.0,-1.531,-1.747,-1.7582,-1.7382,-1.6934,-1.678,-1.6783,-1.6887,-1.8031,-1.9131,-2.0395,-2.1578,-2.2492,-2.3135,-2.3135,-2.3135,-2.3135,-2.3135,-2.3135,-2.3135,-2.3135,-2.3135,-2.3299,-2.4967,-2.5975,-2.673,-2.8279,-2.9275,-2.9792,-2.9792,-2.9792,-2.9792,-2.9792,-2.9792,-2.9792,-2.9792,-2.9792,-2.9792,-2.9792,-2.9792,-2.9792,-2.9792,-2.9792,-2.9792,-2.9792,-3.0139,-3.0771,-3.1756,-3.2664,-3.3685,-3.5213,-3.5504,-3.5504,-3.5504,-3.5504,-3.5385,-3.5055,-3.4696,-3.4367,-3.4038,-3.3155,-3.2422,-3.2078,-3.1676,-3.1255,-3.0567,-3.0223,-2.9786,-2.9088,-2.9595,-2.9881,-2.9821,-3.0366,-3.0666,-3.0666,-3.0328,-2.9939,-2.9583,-2.9583,-2.9583,-2.9583,-2.9973,-3.0328,-0.565,-0.6838,-0.7766,-0.7404,-0.7901,-0.8173,-0.6473,-0.6066,0.0,0.0,-0.4157,-0.4185,-0.416,0.0,0.0,0.0,0.0,0.0,0.0,0.0,0.0,0.0,0.0,0.0,0.0,0.0,0.0,0.0,0.0,0.0,-1.7477,-1.7582,-1.7341,-1.6814,-1.674,-1.648,-1.6025,-1.7109,-1.8357,-1.9604,-2.0791,-2.1933,-2.3135,-2.3135,-2.3135,-2.3135,-2.3135,-2.3135,-2.3135,-2.3135,-2.3135,-2.3222,-2.4628,-2.5714,-2.6637,-2.7947,-2.9028,-2.9792,-2.9792,-2.9792,-2.9792,-2.9792,-2.9792,-2.9792,-2.9792,-2.9792,-2.9792,-2.9792,-2.9792,-2.9792,-2.9792,-2.9792,-2.9792,-2.9792,-2.9792,-3.0279,-3.2177,-3.2593,-3.3185,-3.5133,-3.5504,-3.5504,-3.5504,-3.5504,-3.5504,-3.5504,-3.504,-3.4696,-3.4696,-3.3993,-3.3305,-3.2781,-3.2138,-3.1465,-3.0776,-3.0582,-3.0073,-2.9071,-2.9871,-3.016,-2.9662,-3.0659,-3.119,-3.119,-3.1038,-3.0954,-3.0954,-3.0801,-3.0801,-3.0954,-3.0954,-3.1055,-0.8402,-0.9255,-0.947,-0.903,-0.8712,-0.8147,-0.6783,0.0,0.0,-0.465,-0.4572,-0.4653,-0.479,-0.4964,-0.5316,0.0,0.0,0.0,0.0,0.0,0.0,0.0,0.0,0.0,0.0,0.0,0.0,0.0,0.0,0.0,-1.747,-1.7582,-1.7435,-1.7121,-1.6847,-1.668,-1.6627,-1.7325,-1.8474,-1.9874,-2.0823,-2.1933,-2.3135,-2.3135,-2.3135,-2.3135,-2.3135,0.0,0.0,-2.3135,-2.3135,-2.3299,-2.5473,-2.6389,-2.673,-2.887,-2.9702,-2.9792,-2.9792,-2.9792,-2.9792,-2.9792,-2.9792,-2.9792,-2.9792,-2.9792,-2.9792,-2.9792,-2.9792,-2.9792,-2.9792,-2.9792,-2.9792,-2.9792,-2.9792,-3.0279,-3.2177,-3.2593,-3.3185,-3.5133,-3.5504,-3.5504,-3.5504,-3.5504,-3.5504,-3.5504,-3.5444,-3.5415,-3.5415,-3.4292,-3.3469,-3.341,-3.2826,-3.2153,-3.1495,-3.0866,-3.0447,-3.0328,-3.037,-3.0384,-3.032,-3.0866,-3.119,-3.119,-3.0548,-3.0209,-3.0209,-2.9516,-2.9533,-3.0209,-3.0209,-3.0565,-0.8947,-0.9466,-0.9469,-0.9113,-0.8441,-0.7488,-0.661,0.0,-0.5067,-0.4609,-0.4582,-0.4711,-0.4769,-0.4972,-0.523,0.0,0.0,0.0,0.0,0.0,0.0,0.0,0.0,0.0,0.0,0.0,0.0,0.0,0.0,0.0,-1.594,-1.6892,-1.7188,-1.6894,-1.66,-1.6359,-1.6179,-1.6415,-1.7283,-1.8613,-1.9646,-2.0845,-2.2031,-2.2775,-2.3135,-2.3135,-2.3135,0.0,0.0,-2.3135,-2.3135,-2.3222,-2.4882,-2.5891,-2.6637,-2.8199,-2.9197,-2.9792,-2.9792,-2.9792,-2.9792,-2.9792,-2.9792,-2.9792,-2.9792,-2.9792,-2.9792,-2.9792,-2.9792,-2.9792,-2.9792,-2.9792,-2.9792,-2.9792,-2.9792,-3.0139,-3.1462,-3.2177,-3.3031,-3.4327,-3.5067,-3.5504,-3.5504,-3.5504,-3.5504,-3.5504,-3.5504,-3.5504,-3.5504,-3.504,-3.4397,-3.3589,-3.2557,-3.1824,-3.1497,-3.1285,-3.0945,-3.0533,-3.1212,-3.1245,-3.038,-3.1308,-3.1647,-3.1207,-3.0903,-3.0768,-3.0768,-3.0463,-3.048,-3.0768,-3.0768,-3.104,-0.8477,-0.8967,-0.9167,-0.8825,-0.8004,-0.7145,0.0,0.0,-0.4817,-0.4575,-0.4582,-0.4691,-0.4691,-0.4931,-0.5145,0.0,0.0,-0.5725,0.0,0.0,0.0,0.0,0.0,0.0,0.0,0.0,0.0,0.0,0.0,0.0,-1.4199,-1.5577,-1.6377,-1.6587,-1.638,-1.6172,-1.5965,-1.5872,-1.6522,-1.7826,-1.9004,-2.0124,-2.1382,-2.258,-2.3135,-2.3135,-2.3135,-2.3135,0.0,-2.3135,-2.3135,-2.3222,-2.4372,-2.5294,-2.613,-2.7602,-2.8597,-2.9365,-2.9702,-2.9792,-2.9792,-2.9792,-2.9792,-2.9792,-2.9792,-2.9792,-2.9792,-2.9792,-2.9792,-2.9792,-2.9792,-2.9792,-2.9792,-2.9792,-2.9792,-3.0075,-3.097,-3.196,-3.289,-3.3808,-3.4839,-3.5504,-3.5504,-3.5504,-3.5504,-3.5504,-3.5504,-3.5504,-3.5504,-3.5325,-3.4831,-3.3888,-3.2617,-3.1749,-3.1497,-3.1697,-3.1597,-3.1155,-3.2149,-3.2318,-3.1271,-3.1918,-3.2036,-3.1529,-3.1309,-3.119,-3.119,-3.119,-3.119,-3.119,-3.119,-3.1411,-0.7075,-0.8063,-0.8835,-0.8387,-0.7824,-0.7139,0.0,0.0,-0.5006,-0.4555,-0.4582,-0.4691,-0.4691,-0.4931,-0.5179,-0.5335,0.0,0.0,0.0,0.0,0.0,0.0,0.0,0.0,0.0,0.0,0.0,0.0,0.0,0.0,-1.2597,-1.3696,-1.4967,-1.6273,-1.6273,-1.6273,-1.6266,-1.5979,-1.6538,-1.8067,-1.9023,-2.0124,-2.1382,-2.258,-2.3135,-2.3135,0.0,-2.3135,0.0,-2.3135,-2.3135,-2.3222,-2.4372,-2.4787,-2.5115,-2.7267,-2.8096,-2.8255,-2.9443,-2.9792,-2.9792,-2.9792,-2.9792,-2.9792,-2.9792,-2.9792,-2.9792,-2.9792,-2.9792,-2.9792,-2.9792,-2.9792,-2.9792,-2.9792,-2.9792,-3.0075,-3.097,-3.196,-3.289,-3.3808,-3.4839,-3.5504,-3.5504,-3.5504,-3.5504,-3.5504,-3.5504,-3.5504,-3.5504,-3.4906,-3.4487,-3.4472,-3.329,-3.2243,-3.1541,-3.2176,-3.2586,-3.2571,-3.3126,-3.3458,-3.3442,-3.2739,-3.2313,-3.2313,-3.1562,-3.119,-3.119,-3.119,-3.119,-3.119,-3.119,-3.1411,-0.6629,-0.7138,-0.7377,-0.7234,-0.6579,-0.5867,-0.5614,0.0,-0.4467,-0.4514,-0.4582,-0.4691,-0.4691,-0.4853,-0.507,-0.5321,-0.5491,0.0,0.0,0.0,0.0,0.0,0.0,0.0,0.0,0.0,0.0,0.0,0.0,0.0,-1.2178,-1.2704,-1.3964,-1.6273,-1.6079,-1.5972,-1.5972,-1.5879,-1.6062,-1.6531,-1.7729,-1.8864,-2.0124,-2.1302,-2.2306,0.0,0.0,-2.3135,-2.3135,-2.3135,-2.3135,-2.3222,-2.4372,-2.4787,-2.4957,-2.6461,-2.7441,-2.8176,-2.8505,-2.9118,-2.9792,-2.9792,-2.9792,-2.9792,-2.9792,-2.9792,-2.9792,-2.9792,-2.9792,-2.9792,-2.9792,-2.9792,-2.9792,-2.9792,-2.9792,-2.9856,-3.0216,-3.1476,-3.2678,-3.2961,-3.4341,-3.5504,-3.5504,-3.5504,-3.5504,-3.5504,-3.5504,-3.5504,-3.5504,-3.531,-3.4996,-3.4532,-3.4137,-3.3594,-3.292,-3.2684,-3.2798,-3.3209,-3.3859,-3.3773,-3.2722,-3.2934,-3.2577,-3.1562,-3.1309,-3.119,-3.119,-3.119,-3.119,-3.119,-3.147,-3.1825,0.0,-0.6321,-0.6522,-0.6461,-0.5888,0.0,0.0,0.0,-0.4352,-0.4484,-0.4594,-0.4606,-0.4606,-0.4728,-0.4894,-0.5081,-0.5281,0.0,0.0,0.0,0.0,0.0,0.0,0.0,0.0,0.0,0.0,0.0,0.0,0.0,-1.126,-1.185,-1.3133,-1.5312,-1.5632,-1.5832,-1.5832,-1.5832,-1.5832,-1.5825,-1.7131,-1.8048,-1.8864,-2.0576,-2.1756,0.0,0.0,-2.3135,0.0,-2.3135,-2.3135,-2.3135,-2.3877,-2.4125,-2.4296,-2.5473,-2.6543,-2.7522,-2.7936,-2.8858,-2.9792,-2.9792,-2.9792,-2.9792,-2.9792,-2.9792,-2.9792,-2.9792,-2.9792,-2.9792,-2.9792,-2.9792,-2.9792,-2.9792,-2.9792,-2.9792,-2.9792,-3.1267,-3.2593,-3.2593,-3.4192,-3.5504,-3.5504,-3.5504,-3.5504,-3.5504,-3.5504,-3.5504,-3.5504,-3.5504,-3.534,-3.4906,-3.4927,-3.4829,-3.4751,-3.3878,-3.3508,-3.3902,-3.4598,-3.4543,-3.3592,-3.3457,-3.2966,-3.2053,-3.1478,-3.119,-3.119,-3.119,-3.119,-3.119,-3.1603,-3.2057,0.0,0.0,0.0,0.0,0.0,0.0,0.0,0.0,0.0,0.0,0.0,-0.4522,-0.4532,-0.4652,-0.4759,-0.4735,0.0,0.0,0.0,0.0,0.0,0.0,0.0,0.0,0.0,0.0,0.0,0.0,0.0,0.0,-0.9899,-1.1165,-1.2528,-1.3872,-1.514,-1.5832,-1.5832,-1.5832,-1.5832,-1.5825,-1.7037,-1.7598,-1.7777,-2.0034,-2.1114,0.0,-2.2403,-2.295,-2.3047,-2.3047,-2.3047,-2.3135,-2.3135,-2.3135,-2.3222,-2.4296,-2.5378,-2.6554,-2.7602,-2.8688,-2.9702,-2.9792,-2.9792,-2.9792,-2.9792,-2.9792,-2.9792,-2.9792,-2.9792,-2.9792,-2.9792,-2.9792,-2.9792,-2.9792,-2.9792,-2.9792,-2.9792,-3.1267,-3.2593,-3.2593,-3.4192,-3.5504,-3.5504,-3.5504,-3.5504,-3.5504,-3.5504,-3.5504,-3.5504,-3.5504,-3.5504,-3.5504,-3.563,-3.5915,-3.6573,-3.544,-3.4706,-3.4754,-3.5287,-3.5605,-3.5537,-3.4218,-3.344,-3.3322,-3.1918,-3.1224,-3.1275,-3.1224,-3.119,-3.119,-3.1603,-3.2057,0.0,0.0,0.0,0.0,0.0,0.0,0.0,0.0,0.0,0.0,0.0,0.0,0.0,0.0,0.0,0.0,0.0,0.0,0.0,0.0,0.0,0.0,0.0,0.0,0.0,0.0,0.0,0.0,0.0,-0.8627,-0.9899,-1.1165,-1.2528,-1.3872,-1.514,-1.5832,-1.5832,-1.5832,-1.5832,-1.5832,-1.6109,-1.6763,-1.7692,-1.8326,-1.9579,-2.1293,-2.0576,-2.1409,-2.3047,-2.212,-2.2306,-2.3135,-2.3135,-2.3135,-2.3135,-2.3387,-2.4211,-2.5378,-2.6461,-2.7614,-2.8597,-2.9534,-2.9792,-2.9792,-2.9792,-2.9792,-2.9792,-2.9792,-2.9792,-2.9792,-2.9792,-2.9792,-2.9792,-2.9792,-2.9792,-2.9792,-2.9792,-3.1267,-3.2593,-3.2593,-3.4192,-3.5504,-3.5504,-3.5504,-3.5504,-3.5504,-3.5504,-3.5504,-3.5504,-3.5504,-3.5504,-3.5504,-3.6026,-3.6301,-3.5903,-3.5568,-3.5693,-3.6236,-3.5836,-3.5368,-3.4776,-3.4421,-3.3711,-3.256,-3.1647,-3.1461,-3.2019,-3.1461,-3.119,-3.119,-3.1603,-3.2057,-0.4467,-0.4417,-0.4395,-0.4531,-0.457,0.0,0.0,0.0,0.0,0.0,0.0,0.0,0.0,0.0,0.0,0.0,0.0,0.0,0.0,0.0,0.0,0.0,0.0,0.0,0.0,0.0,0.0,0.0,0.0,-0.8333,-0.9019,-1.0288,-1.1653,-1.2909,-1.4268,-1.5242,-1.5825,-1.5832,-1.5832,-1.5832,-1.5832,-1.6204,-1.685,-1.7412,-1.8411,-1.967,-2.0124,-2.1033,-2.2306,-2.2208,-2.2378,-2.2871,-2.3066,-2.3018,-2.2881,-2.3066,-2.38,-2.4872,-2.5546,-2.6778,-2.8176,-2.8846,-2.9365,-2.9792,-2.9792,-2.9792,-2.9792,-2.9792,-2.9792,-2.9792,-2.9792,-2.9792,-2.9792,-2.9792,-2.9792,-2.9792,-2.9792,-3.1267,-3.2593,-3.2593,-3.4192,-3.5504,-3.5504,-3.5504,-3.5504,-3.5504,-3.5504,-3.5504,-3.5504,-3.5504,-3.5504,-3.5504,-3.6487,-3.7029,-3.6662,-3.7009,-3.6963,-3.6315,-3.618,-3.5808,-3.5047,-3.4675,-3.3964,-3.2814,-3.2408,-3.2239,-3.2313,-3.1884,-3.1512,-3.119,-3.1411,-3.1878,-0.4534,-0.4371,-0.4338,-0.4622,-0.4654,-0.4608,0.0,0.0,0.0,0.0,0.0,0.0,0.0,0.0,0.0,0.0,0.0,0.0,0.0,0.0,0.0,0.0,0.0,0.0,0.0,0.0,0.0,0.0,0.0,-0.8038,-0.8038,-0.9383,-1.0733,-1.1798,-1.3301,-1.4627,-1.5698,-1.5785,-1.5805,-1.5765,-1.5805,-1.5805,-1.5765,-1.6879,-1.7431,-1.7695,0.0,0.0,-2.1201,-2.2214,-2.2553,-2.2461,-2.2881,-2.2822,-2.2568,-2.2988,-2.3714,-2.4542,-2.4702,-2.6108,-2.7844,-2.8016,-2.8718,-2.9512,-2.9677,-2.9729,-2.9679,-2.9767,-2.9792,-2.9792,-2.9792,-2.9792,-2.9792,-2.9792,-2.9792,-2.9792,-2.9792,-3.1132,-3.2464,-3.2593,-3.4056,-3.5294,-3.5504,-3.5504,-3.5504,-3.5504,-3.5504,-3.5504,-3.5504,-3.5504,-3.5504,-3.5504,-3.6768,-3.7584,-3.743,-3.8385,-3.8065,-3.5896,-3.6422,-3.6434,-3.5656,-3.4895,-3.4252,-3.3761,-3.3525,-3.3152,-3.2628,-3.251,-3.207,-3.136,-3.1482,-3.1891,-0.4896,-0.4797,-0.4689,-0.4709,-0.4768,0.0,0.0,0.0,0.0,0.0,0.0,0.0,0.0,0.0,0.0,0.0,0.0,0.0,0.0,0.0,0.0,0.0,0.0,0.0,0.0,0.0,0.0,0.0,0.0,-0.8038,-0.8038,-1.0127,-1.1362,-1.1557,-1.3719,-1.4909,-1.5097,-1.5585,-1.5705,-1.5464,-1.5712,-1.5698,-1.5464,-1.5643,-1.6267,-1.7311,0.0,-1.8477,-2.0377,-2.0471,-2.1062,-2.2021,-2.2441,-2.2568,-2.2568,-2.2988,-2.3222,-2.3464,-2.4457,-2.563,-2.6883,-2.7763,-2.7877,-2.7927,-2.9397,-2.9453,-2.9164,-2.9654,-2.9792,-2.9792,-2.9792,-2.9792,-2.9792,-2.9792,-2.9792,-2.9792,-2.9792,-3.0633,-3.1669,-3.2464,-3.3463,-3.4476,-3.5359,-3.5504,-3.5504,-3.5504,-3.5504,-3.5504,-3.5504,-3.5504,-3.5504,-3.5504,-3.629,-3.6504,-3.5885,-3.772,-3.8242,-3.6637,-3.6678,-3.6434,-3.5656,-3.4895,-3.4742,-3.5267,-3.4049,-3.3643,-3.415,-3.3541,-3.2848,-3.2144,-3.2906,-3.2966,-0.4814,-0.4726,-0.4688,-0.4844,-0.4927,-0.5083,0.0,0.0,0.0,0.0,0.0,0.0,0.0,0.0,0.0,0.0,0.0,0.0,0.0,0.0,0.0,0.0,0.0,0.0,0.0,0.0,0.0,0.0,0.0,0.0,-0.7804,-0.8767,-1.0032,-1.1331,-1.2437,-1.367,-1.4963,-1.5224,-1.5297,-1.5164,-1.5297,-1.5291,-1.5164,-1.5164,-1.5513,-1.6027,0.0,-1.7715,-1.9264,-1.9858,-2.0689,-2.1582,-2.2002,-2.2031,-2.1875,-2.2305,-2.2461,-2.2546,-2.3022,-2.3991,-2.5022,-2.6064,-2.6609,-2.722,-2.8822,-2.8938,-2.8599,-2.9164,-2.9553,-2.9792,-2.9792,-2.9792,-2.9792,-2.9792,-2.9792,-2.9792,-2.9792,-3.0908,-3.2105,-3.2522,-3.3822,-3.4986,-3.5424,-3.5504,-3.5504,-3.5504,-3.5504,-3.5504,-3.5504,-3.5504,-3.5504,-3.5504,-3.6165,-3.6491,-3.6121,-3.7425,-3.8046,-3.7369,-3.702,-3.6434,-3.5656,-3.5284,-3.5267,-3.556,-3.4945,-3.4573,-3.4489,-3.3761,-3.3017,-3.2313,-3.2324,-3.2244,-0.4857,-0.4726,-0.4735,-0.5007,0.0,-0.5246,-0.5552,0.0,0.0,0.0,0.0,0.0,0.0,0.0,0.0,0.0,0.0,0.0,0.0,0.0,0.0,0.0,0.0,0.0,0.0,0.0,0.0,0.0,0.0,0.0,-0.7553,-0.7752,-0.8706,-1.0595,-1.1179,-1.2314,-1.4193,-1.4528,-1.4723,-1.4863,-1.493,-1.493,-1.4863,-1.4863,-1.4863,-1.4945,-1.606,-1.7134,-1.8244,-1.9424,-2.0354,-2.1123,-2.1562,-2.1592,-2.1426,-2.1768,-2.1885,-2.1885,-2.1885,-2.2431,-2.3353,-2.4602,-2.5455,-2.6368,-2.8164,-2.8348,-2.8059,-2.8737,-2.9252,-2.9591,-2.9591,-2.9691,-2.9792,-2.9792,-2.9792,-2.9792,-2.9792,-3.0921,-3.2033,-3.2536,-3.3822,-3.5001,-3.5439,-3.5504,-3.5504,-3.5504,-3.5504,-3.5504,-3.5504,-3.5504,-3.5504,-3.5504,-3.6006,-3.6384,-3.6615,-3.7144,-3.7552,-3.76,-3.7084,-3.6434,-3.5656,-3.5622,-3.5622,-3.5622,-3.5622,-3.5334,-3.4759,-3.4015,-3.3271,-3.2527,-3.1902,-3.1754,-0.5365,-0.526,-0.5246,-0.5328,0.0,0.0,-0.6025,-0.6278,0.0,0.0,0.0,0.0,0.0,0.0,0.0,0.0,0.0,0.0,0.0,0.0,0.0,0.0,0.0,0.0,0.0,0.0,0.0,0.0,0.0,0.0,-0.739,-0.8162,-0.8666,-0.8922,-1.0739,-1.1774,-1.1942,-1.3097,-1.4015,-1.4556,-1.483,-1.4823,-1.4556,-1.4556,-1.4556,-1.4616,-1.5408,-1.6425,-1.7498,-1.8629,-1.9673,-2.0654,-2.1103,-2.1514,-2.1846,-2.1875,-2.1885,-2.1885,-2.1885,-2.1967,-2.2349,-2.4377,-2.4691,-2.4865,-2.7373,-2.777,-2.7557,-2.8637,-2.895,-2.8988,-2.8988,-2.939,-2.9792,-2.9792,-2.9792,-2.9792,-2.9792,-2.9934,-3.0495,-3.2249,-3.2749,-3.3394,-3.5213,-3.5504,-3.5504,-3.5504,-3.5504,-3.5504,-3.5504,-3.5504,-3.5504,-3.5504,-3.5569,-3.5831,-3.6554,-3.6661,-3.6706,-3.6798,-3.6796,-3.6434,-3.5656,-3.5622,-3.5622,-3.5622,-3.5622,-3.5588,-3.5537,-3.4776,-3.4032,-3.3305,-3.299,-3.2701,-0.5226,-0.5682,-0.6103,-0.5539,0.0,0.0,0.0,0.0,0.0,0.0,0.0,0.0,0.0,0.0,0.0,0.0,0.0,0.0,0.0,0.0,0.0,0.0,0.0,0.0,0.0,0.0,0.0,0.0,0.0,0.0,-0.6959,-0.7264,-0.7776,-0.8512,-0.926,-1.0277,-1.1662,-1.2172,-1.2819,-1.3714,-1.4188,-1.4362,-1.4249,-1.4249,-1.4249,-1.4249,-1.4537,-1.5711,-1.7334,-1.7747,-1.9027,-2.0586,-2.0752,-2.0918,-2.1064,-2.1064,-2.1064,-2.1064,-2.1064,-2.1064,-2.1293,-2.2717,-2.3415,-2.4118,-2.6116,-2.6742,-2.6929,-2.7695,-2.816,-2.8586,-2.9289,-2.9628,-2.9792,-2.9792,-2.9792,-2.9792,-2.9792,-3.0279,-3.1044,-3.2321,-3.3101,-3.3891,-3.5279,-3.5504,-3.5504,-3.5504,-3.5504,-3.5504,-3.5504,-3.5504,-3.5504,-3.5504,-3.5504,-3.5619,-3.5894,-3.6364,-3.6508,-3.6045,-3.6469,-3.6415,-3.5628,-3.5622,-3.5622,-3.5622,-3.5622,-3.5622,-3.5622,-3.4861,-3.4353,-3.4049,-3.3321,-3.2921,-0.533,-0.58,-0.6365,0.0,0.0,0.0,0.0,0.0,0.0,0.0,0.0,0.0,0.0,0.0,0.0,0.0,0.0,0.0,0.0,0.0,0.0,0.0,0.0,0.0,0.0,0.0,0.0,0.0,0.0,0.0,0.0,-0.6488,-0.6802,-0.7589,-0.8037,-0.8946,-1.0464,-1.118,-1.186,-1.2589,-1.3072,-1.3515,-1.3948,-1.4041,-1.4088,-1.4088,-1.4088,-1.5253,-1.7088,-1.7212,-1.855,-2.0361,-2.0361,-2.0361,-2.0381,-2.0518,-2.0566,-2.0566,-2.0566,-2.0566,-2.0789,-2.1659,-2.2702,-2.3728,-2.5107,-2.6003,-2.6647,-2.713,-2.7557,-2.8059,-2.9013,-2.9528,-2.9792,-2.9792,-2.9792,-2.9792,-2.9792,-3.0279,-3.1119,-3.2393,-3.3101,-3.3959,-3.5279,-3.5504,-3.5504,-3.5504,-3.5504,-3.5504,-3.5504,-3.531,-3.5175,-3.5175,-3.4996,-3.5015,-3.545,-3.5804,-3.5888,-3.5599,-3.6062,-3.6141,-3.5628,-3.5622,-3.5622,-3.5622,-3.5622,-3.5622,-3.5622,-3.4861,-3.437,-3.4117,-3.3338,-3.2939,-0.5707,-0.5668,0.0,0.0,0.0,0.0,0.0,0.0,0.0,0.0,0.0,0.0,0.0,0.0,0.0,0.0,0.0,0.0,0.0,0.0,0.0,0.0,0.0,0.0,0.0,0.0,0.0,0.0,0.0,0.0,0.0,-0.6027,-0.6027,-0.6027,-0.7155,-0.7778,-0.7778,-1.0055,-1.1188,-1.1194,-1.1532,-1.237,-1.3654,-1.3948,-1.4082,-1.4082,-1.4082,-1.5114,-1.6719,-1.7097,-1.8303,-1.9902,-1.9902,-1.9902,-1.9961,-2.0391,-2.0557,-2.0557,-2.0557,-2.0557,-2.0779,-2.1659,-2.2691,-2.3661,-2.4707,-2.5664,-2.6578,-2.7118,-2.7281,-2.7406,-2.7959,-2.8925,-2.9779,-2.9779,-2.9779,-2.9779,-2.9779,-2.9779,-3.0343,-3.2236,-3.2593,-3.3241,-3.5133,-3.5489,-3.5489,-3.5504,-3.5504,-3.5504,-3.5489,-3.4906,-3.4472,-3.4472,-3.3888,-3.403,-3.5382,-3.4914,-3.4825,-3.5545,-3.5596,-3.5595,-3.5594,-3.5622,-3.5622,-3.5622,-3.5622,-3.5622,-3.5622,-3.4861,-3.4117,-3.3389,-3.3115,-3.2842,-0.6021,0.0,0.0,0.0,0.0,0.0,0.0,0.0,0.0,0.0,0.0,0.0,0.0,0.0,0.0,0.0,0.0,0.0,0.0,0.0,0.0,0.0,0.0,0.0,0.0,0.0,0.0,0.0,0.0,0.0,0.0,-0.5871,-0.5871,-0.5871,-0.62,-0.7155,-0.8689,-0.9421,-1.0507,-1.1983,-1.2343,-1.2798,-1.326,-1.2687,-1.2806,-1.3474,-1.3474,-1.4193,-1.549,-1.7073,-1.8442,-1.9473,-1.9473,-1.9473,-1.9482,-1.9619,-1.9668,-1.9668,-1.9668,-1.9668,-1.9791,-2.0367,-2.1195,-2.2269,-2.3559,-2.4636,-2.563,-2.6514,-2.6979,-2.7318,-2.7482,-2.8059,-2.8699,-2.9089,-2.8888,-2.8712,-2.9101,-2.9189,-2.9625,-3.1075,-3.1612,-3.2525,-3.4436,-3.4786,-3.4951,-3.5429,-3.5504,-3.5325,-3.4846,-3.4607,-3.4307,-3.3844,-3.3604,-3.3849,-3.4747,-3.5137,-3.5444,-3.5595,-3.6137,-3.6215,-3.5611,-3.5622,-3.5622,-3.5622,-3.5622,-3.5622,-3.5622,-3.4861,-3.4387,-3.4176,-3.3651,-3.3371,-0.6487,0.0,0.0,0.0,0.0,0.0,0.0,0.0,0.0,0.0,0.0,0.0,0.0,0.0,0.0,0.0,0.0,0.0,0.0,0.0,0.0,0.0,0.0,0.0,0.0,0.0,0.0,0.0,0.0,0.0,0.0,-0.5684,-0.5718,-0.5718,-0.5772,-0.6414,-0.7744,-0.8538,-0.9542,-1.0858,-1.1388,-1.1942,-1.2518,-1.2349,-1.2638,-1.32,-1.3464,-1.4079,-1.4926,-1.6681,-1.7833,-1.8508,-1.8879,-1.9023,-1.9053,-1.9219,-1.9287,-1.9287,-1.9287,-1.9287,-1.9355,-1.9775,-2.0655,-2.1804,-2.2861,-2.4038,-2.5078,-2.5915,-2.6352,-2.6666,-2.6892,-2.7205,-2.7645,-2.8411,-2.8348,-2.8197,-2.8536,-2.8599,-2.9048,-3.0528,-3.1034,-3.1893,-3.3802,-3.4083,-3.4233,-3.4637,-3.4711,-3.4457,-3.3784,-3.3694,-3.3544,-3.3155,-3.2871,-3.3182,-3.4419,-3.4736,-3.5104,-3.556,-3.6051,-3.6113,-3.5639,-3.5622,-3.5622,-3.5622,-3.5622,-3.5622,-3.5622,-3.5165,-3.4641,-3.4075,-3.4045,-3.3705,0.0,0.0,0.0,0.0,0.0,0.0,0.0,0.0,0.0,0.0,0.0,0.0,0.0,0.0,0.0,0.0,0.0,0.0,0.0,0.0,0.0,0.0,0.0,0.0,0.0,0.0,0.0,0.0,0.0,0.0,-0.5394,-0.5464,-0.5549,-0.5549,-0.5688,-0.5837,-0.5922,-0.7615,-0.8534,-0.8764,-0.9533,-1.0441,-1.1463,-1.2477,-1.2981,-1.3151,-1.3769,-1.426,-1.4812,-1.6002,-1.6713,-1.727,-1.8142,-1.8584,-1.8623,-1.9023,-1.917,-1.917,-1.917,-1.917,-1.9238,-1.9658,-2.0659,-2.1793,-2.2421,-2.3532,-2.4701,-2.5319,-2.5561,-2.5724,-2.6319,-2.6483,-2.6716,-2.772,-2.7959,-2.7971,-2.8021,-2.8034,-2.8549,-3.031,-3.0687,-3.1246,-3.3072,-3.341,-3.3425,-3.3484,-3.3499,-3.326,-3.2602,-3.2512,-3.2497,-3.2437,-3.1884,-3.2292,-3.4228,-3.3898,-3.4153,-3.5424,-3.5577,-3.5622,-3.5622,-3.5622,-3.5622,-3.5622,-3.5622,-3.5622,-3.5622,-3.5554,-3.4827,-3.3508,-3.4234,-3.3847,0.0,0.0,0.0,0.0,0.0,0.0,0.0,0.0,0.0,0.0,0.0,0.0,0.0,0.0,0.0,0.0,0.0,0.0,0.0,0.0,0.0,0.0,0.0,0.0,0.0,0.0,0.0,0.0,0.0,0.0,-0.5016,-0.5148,-0.523,-0.523,-0.5376,-0.5916,-0.6798,-0.7211,-0.8181,-0.9753,-0.9962,-1.0516,-1.1361,-1.0827,-1.12,-1.2151,-1.2301,-1.3013,-1.4013,-1.5078,-1.5982,-1.6842,-1.7781,-1.8144,-1.8154,-1.8252,-1.8281,-1.8281,-1.8281,-1.8281,-1.835,-1.8769,-1.9051,-1.9665,-2.1574,-2.2332,-2.2966,-2.453,-2.5285,-2.5624,-2.5749,-2.6126,-2.6584,-2.6753,-2.6816,-2.6929,-2.7369,-2.7457,-2.7857,-2.9162,-2.9711,-3.0614,-3.239,-3.2721,-3.2901,-3.3425,-3.3499,-3.326,-3.2602,-3.2512,-3.2317,-3.1735,-3.1556,-3.1898,-3.2936,-3.3382,-3.3937,-3.4736,-3.5316,-3.5622,-3.5622,-3.5622,-3.5622,-3.5622,-3.5622,-3.5622,-3.5622,-3.503,-3.4573,-3.4235,-3.3645,-3.3351,0.0,0.0,0.0,0.0,0.0,0.0,0.0,0.0,0.0,0.0,0.0,0.0,0.0,0.0,0.0,0.0,0.0,0.0,0.0,0.0,0.0,0.0,0.0,0.0,0.0,0.0,0.0,0.0,0.0,-0.4918,-0.4918,-0.4989,-0.503,-0.503,-0.5108,-0.5439,-0.6036,-0.6506,-0.7315,-0.8353,-0.927,-1.014,-1.1022,-1.074,-1.1013,-1.1657,-1.1657,-1.2018,-1.272,-1.4093,-1.5086,-1.5799,-1.7216,-1.7832,-1.8008,-1.8008,-1.8008,-1.8008,-1.8008,-1.8008,-1.8076,-1.8496,-1.8765,-1.9206,-2.0593,-2.1453,-2.2248,-2.3777,-2.4484,-2.4946,-2.546,-2.5824,-2.605,-2.605,-2.6264,-2.6665,-2.7344,-2.7477,-2.7904,-2.9324,-2.9834,-3.0435,-3.1783,-3.2048,-3.2153,-3.2497,-3.2557,-3.2437,-3.2093,-3.2048,-3.1913,-3.1511,-3.1482,-3.1796,-3.2547,-3.3182,-3.3887,-3.4576,-3.5207,-3.5622,-3.5622,-3.5622,-3.5622,-3.5622,-3.5622,-3.5453,-3.5081,-3.4692,-3.4134,-3.3448,-3.3154,-3.2906,0.0,0.0,0.0,0.0,0.0,0.0,0.0,0.0,0.0,0.0,0.0,0.0,0.0,0.0,0.0,0.0,0.0,0.0,0.0,0.0,0.0,0.0,0.0,0.0,0.0,0.0,0.0,0.0,0.0,-0.484,-0.484,-0.4863,-0.488,-0.488,-0.4904,-0.4918,-0.4918,-0.5713,-0.6216,-0.6399,-0.8269,-0.9605,-1.0368,-1.0916,-1.1256,-1.1349,-1.1349,-1.1376,-1.156,-1.3227,-1.4188,-1.4731,-1.644,-1.7338,-1.7803,-1.7871,-1.79,-1.791,-1.7988,-1.8008,-1.8066,-1.8418,-1.8889,-1.9372,-1.9874,-2.0904,-2.2118,-2.3131,-2.3735,-2.4205,-2.5084,-2.546,-2.5598,-2.5598,-2.5963,-2.6531,-2.7338,-2.7406,-2.7866,-2.9737,-3.0329,-3.0718,-3.1409,-3.1482,-3.1482,-3.1482,-3.1482,-3.1482,-3.1482,-3.1482,-3.1482,-3.1482,-3.1482,-3.1796,-3.2547,-3.3182,-3.3887,-3.4576,-3.5207,-3.5554,-3.5436,-3.5419,-3.5368,-3.5233,-3.5368,-3.5115,-3.4489,-3.437,-3.3677,-3.2517,-3.2745,-3.2582,0.0,0.0,0.0,0.0,0.0,0.0,0.0,0.0,0.0,0.0,0.0,0.0,0.0,0.0,0.0,0.0,0.0,0.0,0.0,0.0,0.0,0.0,0.0,0.0,0.0,0.0,0.0,0.0,-0.458,-0.458,-0.458,-0.465,-0.4721,-0.4721,-0.485,-0.4918,-0.4918,-0.506,-0.5487,-0.6259,-0.7914,-0.889,-0.9235,-0.994,-1.0568,-1.1049,-1.1049,-1.1196,-1.1491,-1.2571,-1.3526,-1.4288,-1.5337,-1.6241,-1.6943,-1.7324,-1.7471,-1.7519,-1.7881,-1.8008,-1.8018,-1.8076,-1.8637,-1.9441,-2.0281,-2.1158,-2.2099,-2.2936,-2.3542,-2.4029,-2.418,-2.4895,-2.5598,-2.5598,-2.5649,-2.5917,-2.6544,-2.6253,-2.6543,-2.8766,-3.0329,-3.1351,-3.1467,-3.1482,-3.1482,-3.1482,-3.1482,-3.1482,-3.1482,-3.1482,-3.1482,-3.1482,-3.1482,-3.1796,-3.2547,-3.3182,-3.3887,-3.4576,-3.5207,-3.5318,-3.4675,-3.4641,-3.4353,-3.3711,-3.432,-3.459,-3.4489,-3.3863,-3.3457,-3.3237,-3.2659,-3.2547,0.0,0.0,0.0,0.0,0.0,0.0,0.0,0.0,0.0,0.0,0.0,0.0,0.0,0.0,0.0,0.0,0.0,0.0,0.0,0.0,0.0,0.0,0.0,0.0,0.0,0.0,0.0,0.0,-0.4519,-0.4519,-0.4519,-0.458,-0.4562,-0.4562,-0.4626,-0.4663,-0.4663,-0.5151,-0.5885,-0.6813,-0.7116,-0.7768,-0.8777,-0.9088,-0.9813,-1.0755,-1.0755,-1.0822,-1.1073,-1.2413,-1.3284,-1.3969,-1.5313,-1.6172,-1.6758,-1.6943,-1.7178,-1.7412,-1.7598,-1.7812,-1.8008,-1.8008,-1.8596,-1.9365,-1.9748,-2.0846,-2.2061,-2.2674,-2.317,-2.359,-2.3916,-2.4356,-2.4707,-2.4707,-2.4707,-2.4858,-2.5423,-2.5957,-2.7024,-2.9316,-3.0329,-3.097,-3.1409,-3.121,-3.1091,-3.1422,-3.121,-3.1106,-3.1422,-3.1482,-3.1482,-3.1482,-3.1482,-3.1796,-3.2547,-3.3182,-3.3887,-3.4576,-3.5207,-3.5284,-3.4523,-3.4489,-3.415,-3.3423,-3.3728,-3.3677,-3.3254,-3.2933,-3.256,-3.2154,-3.1816,-3.1766,0.0,0.0,0.0,0.0,0.0,0.0,0.0,0.0,0.0,0.0,0.0,0.0,0.0,0.0,0.0,0.0,0.0,0.0,0.0,0.0,0.0,0.0,0.0,0.0,0.0,0.0,0.0,0.0,-0.4519,-0.457,-0.4732,-0.4732,-0.4842,-0.5007,-0.5007,-0.5007,-0.5007,-0.5522,-0.6107,-0.6827,-0.6307,-0.6686,-0.7921,-0.8335,-0.91,-1.019,-1.0385,-1.0448,-1.0573,-1.1873,-1.2795,-1.3593,-1.4839,-1.5727,-1.6406,-1.6523,-1.6768,-1.7061,-1.7178,-1.7422,-1.7686,-1.7686,-1.8456,-1.9447,-1.9447,-2.0744,-2.2283,-2.2669,-2.2948,-2.3178,-2.3665,-2.3891,-2.4004,-2.4004,-2.4004,-2.4117,-2.4519,-2.5831,-2.7453,-2.9199,-2.9853,-3.028,-3.0917,-3.0612,-3.0447,-3.0956,-3.0597,-3.0447,-3.0971,-3.118,-3.127,-3.127,-3.1377,-3.1853,-3.2788,-3.3129,-3.3678,-3.4518,-3.4846,-3.4726,-3.3964,-3.3931,-3.3592,-3.2865,-3.2848,-3.2662,-3.2313,-3.2087,-3.1732,-3.119,-3.119,-3.119,0.0,0.0,0.0,0.0,0.0,0.0,0.0,0.0,0.0,0.0,0.0,0.0,0.0,0.0,0.0,0.0,0.0,0.0,0.0,0.0,0.0,0.0,0.0,0.0,0.0,0.0,0.0,0.0,-0.4519,-0.4787,-0.5433,-0.5433,-0.5764,-0.648,-0.648,-0.648,-0.648,-0.5828,-0.5559,-0.5567,-0.5572,-0.5725,-0.6196,-0.7564,-0.8527,-0.9144,-0.9829,-1.014,-1.016,-1.0566,-1.1615,-1.3033,-1.3155,-1.413,-1.5527,-1.5947,-1.6174,-1.6191,-1.6621,-1.6777,-1.6797,-1.6797,-1.8166,-1.9885,-1.9885,-2.1339,-2.3017,-2.3042,-2.309,-2.3078,-2.3115,-2.359,-2.4004,-2.4004,-2.4004,-2.4004,-2.4029,-2.5712,-2.7189,-2.7349,-2.8597,-2.963,-2.9684,-2.9654,-2.9639,-2.9669,-2.9654,-2.9639,-2.9669,-3.0193,-3.0552,-3.0552,-3.115,-3.2048,-3.3427,-3.294,-3.3096,-3.4408,-3.3854,-3.3186,-3.2425,-3.2391,-3.2053,-3.1326,-3.1309,-3.163,-3.2313,-3.1596,-3.1241,-3.119,-3.119,-3.119,0.0,0.0,0.0,0.0,0.0,0.0,0.0,0.0,0.0,0.0,0.0,0.0,0.0,0.0,0.0,0.0,0.0,0.0,0.0,0.0,0.0,0.0,0.0,0.0,0.0,0.0,0.0,0.0,0.0,-0.5273,-0.5483,-0.5928,-0.6312,-0.6588,-0.6588,-0.6804,-0.7289,-0.6583,-0.6416,-0.6902,-0.6416,-0.6514,-0.7093,-0.764,-0.8239,-0.8895,-0.9557,-1.0053,-1.047,-1.1121,-1.202,-1.307,-1.3554,-1.4451,-1.543,-1.5586,-1.582,-1.6145,-1.625,-1.6494,-1.6665,-1.6665,-1.7916,-1.9437,-1.9812,-2.1139,-2.2686,-2.2977,-2.3078,-2.3078,-2.3078,-2.3288,-2.3439,-2.3439,-2.3439,-2.3439,-2.3439,-2.4957,-2.6519,-2.7074,-2.8025,-2.8931,-2.9525,-2.922,-2.9086,-2.952,-2.922,-2.9101,-2.952,-2.9774,-2.9909,-2.9909,-3.047,-3.1269,-3.2173,-3.2369,-3.28,-3.3753,-3.3558,-3.3068,-3.2307,-3.2313,-3.1935,-3.1207,-3.119,-3.1326,-3.1579,-3.1326,-3.119,-3.119,-3.119,-3.119,0.0,0.0,0.0,0.0,0.0,0.0,0.0,0.0,0.0,0.0,0.0,0.0,0.0,0.0,0.0,0.0,0.0,0.0,0.0,0.0,0.0,0.0,0.0,0.0,0.0,0.0,0.0,0.0,0.0,0.0,-0.6195,-0.6691,-0.7074,-0.7343,-0.7343,-0.7557,-0.8049,-0.7343,-0.7235,-0.767,-0.6966,-0.6858,-0.7343,-0.7563,-0.8039,-0.8648,-0.9253,-0.9813,-1.0342,-1.1078,-1.202,-1.307,-1.3614,-1.4451,-1.541,-1.541,-1.5596,-1.585,-1.585,-1.6035,-1.6289,-1.6289,-1.7265,-1.8625,-1.9257,-2.0618,-2.208,-2.263,-2.2927,-2.3078,-2.3078,-2.3078,-2.3078,-2.3078,-2.3078,-2.3078,-2.3078,-2.4288,-2.5581,-2.6425,-2.7173,-2.7984,-2.88,-2.8547,-2.8412,-2.8846,-2.8532,-2.8412,-2.8846,-2.9116,-2.925,-2.925,-3.0036,-3.0779,-3.1422,-3.1811,-3.2343,-3.2992,-3.2797,-3.2442,-3.1935,-3.1918,-3.1681,-3.1207,-3.119,-3.119,-3.119,-3.119,-3.119,-3.119,-3.119,-3.119,0.0,0.0,0.0,0.0,0.0,0.0,0.0,0.0,0.0,0.0,0.0,0.0,0.0,0.0,0.0,0.0,0.0,0.0,0.0,0.0,0.0,0.0,0.0,0.0,0.0,0.0,0.0,0.0,-0.5982,-0.6195,-0.7616,-0.7723,-0.8049,-0.8752,-0.8804,-0.8804,-0.8804,-0.8103,-0.7723,-0.7723,-0.702,-0.6642,-0.6696,-0.7396,-0.7919,-0.8273,-0.8899,-0.9406,-0.9719,-1.0369,-1.1531,-1.3009,-1.3009,-1.3965,-1.541,-1.541,-1.541,-1.541,-1.541,-1.541,-1.541,-1.541,-1.6331,-1.7504,-1.8233,-1.9738,-2.1332,-2.2089,-2.2664,-2.3078,-2.3078,-2.3078,-2.3078,-2.3078,-2.3078,-2.3078,-2.3078,-2.3708,-2.4509,-2.5231,-2.6014,-2.6721,-2.7458,-2.7625,-2.7625,-2.7625,-2.7625,-2.7625,-2.7625,-2.8158,-2.8562,-2.8562,-2.9715,-3.0717,-3.1374,-3.1323,-3.1563,-3.2198,-3.1579,-3.119,-3.119,-3.119,-3.119,-3.119,-3.119,-3.119,-3.119,-3.119,-3.119,-3.119,-3.119,-3.119,-0.7041,0.0,0.0,0.0,0.0,0.0,0.0,0.0,0.0,0.0,0.0,0.0,0.0,0.0,0.0,0.0,0.0,0.0,0.0,0.0,0.0,0.0,0.0,0.0,0.0,0.0,0.0,0.0,-0.6907,-0.7283,-0.767,-0.8209,-0.8593,-0.8804,-0.8804,-0.8804,-0.8804,-0.8593,-0.848,-0.848,-0.8262,-0.8209,-0.8209,-0.8427,-0.8526,-0.8663,-0.9035,-0.923,-0.9412,-1.0,-1.1326,-1.3009,-1.3009,-1.3965,-1.541,-1.541,-1.541,-1.541,-1.541,-1.541,-1.541,-1.541,-1.6224,-1.7364,-1.7931,-1.9467,-2.1212,-2.1801,-2.2518,-2.3078,-2.3078,-2.3078,-2.3078,-2.3078,-2.3078,-2.3078,-2.3078,-2.3245,-2.3813,-2.5119,-2.6014,-2.6721,-2.7458,-2.7625,-2.7625,-2.7625,-2.7625,-2.7625,-2.7625,-2.7739,-2.7859,-2.7859,-2.8583,-2.9117,-2.9295,-3.0077,-3.0648,-3.0858,-3.1076,-3.119,-3.119,-3.119,-3.119,-3.119,-3.119,-3.119,-3.119,-3.119,-3.119,-3.119,-3.119,-3.119,0.0,0.0,0.0,0.0,0.0,0.0,-0.7602,-0.7802,-0.8235,0.0,0.0,0.0,0.0,0.0,0.0,0.0,0.0,0.0,0.0,0.0,0.0,0.0,0.0,0.0,0.0,-0.781,-0.7378,-0.7498,-0.7518,-0.7717,-0.815,-0.8586,-0.8804,-0.8804,-0.8804,-0.8804,-0.8804,-0.8804,-0.8804,-0.8804,-0.8804,-0.8804,-0.8804,-0.8804,-0.8804,-0.8818,-0.8985,-0.907,-0.921,-0.9606,-1.0746,-1.235,-1.2658,-1.3655,-1.4932,-1.5294,-1.541,-1.541,-1.541,-1.541,-1.5439,-1.5625,-1.6148,-1.6919,-1.7666,-1.891,-2.0143,-2.0834,-2.1773,-2.2702,-2.3017,-2.3078,-2.3078,-2.3078,-2.3078,-2.3078,-2.3078,-2.3078,-2.3471,-2.4667,-2.5563,-2.6283,-2.7034,-2.7408,-2.7625,-2.7625,-2.7625,-2.7625,-2.7625,-2.7625,-2.7505,-2.7186,-2.7712,-2.8047,-2.798,-2.9146,-2.9988,-3.0209,-3.0847,-3.119,-3.119,-3.119,-3.119,-3.119,-3.119,-3.119,-3.119,-3.119,-3.119,-3.119,-3.119,-3.119,0.0,0.0,0.0,0.0,0.0,0.0,-0.7656,-0.7782,-0.8174,-0.9429,0.0,0.0,0.0,0.0,0.0,0.0,0.0,0.0,0.0,0.0,0.0,0.0,0.0,0.0,-0.9915,-0.9019,-0.8625,-0.8835,-0.7972,-0.785,-0.8738,-0.8804,-0.8804,-0.8804,-0.8804,-0.8804,-0.8804,-0.8804,-0.8804,-0.8804,-0.8804,-0.8804,-0.8804,-0.8804,-0.8804,-0.8804,-0.8804,-0.8958,-0.9137,-0.9137,-0.9995,-1.139,-1.223,-1.3286,-1.4332,-1.5108,-1.541,-1.541,-1.541,-1.541,-1.5478,-1.5859,-1.6086,-1.6325,-1.7359,-1.8114,-1.8797,-1.9603,-2.0846,-2.2051,-2.2749,-2.2967,-2.3078,-2.3078,-2.3078,-2.3053,-2.3002,-2.2977,-2.3191,-2.3877,-2.4757,-2.5591,-2.6304,-2.7093,-2.7625,-2.7625,-2.7565,-2.7505,-2.7505,-2.7395,-2.7126,-2.6542,-2.6962,-2.7252,-2.7243,-2.8378,-2.9353,-2.9884,-3.0538,-3.0971,-3.1095,-3.1027,-3.1067,-3.119,-3.119,-3.119,-3.119,-3.119,-3.119,-3.119,-3.119,-3.119,0.0,0.0,0.0,0.0,0.0,0.0,-0.7125,-0.7158,-0.7556,0.0,0.0,0.0,0.0,0.0,0.0,0.0,0.0,0.0,0.0,0.0,0.0,0.0,0.0,0.0,-1.0222,-0.9938,-0.963,-0.9184,-0.8765,-0.8587,-0.8804,-0.8804,-0.8804,-0.8804,-0.8804,-0.8804,-0.8804,-0.8804,-0.8804,-0.8804,-0.8804,-0.8804,-0.8804,-0.8804,-0.8804,-0.8804,-0.8804,-0.8838,-0.8891,-0.8891,-0.9862,-1.139,-1.223,-1.3286,-1.4332,-1.5108,-1.541,-1.541,-1.541,-1.541,-1.543,-1.5508,-1.5781,-1.6204,-1.677,-1.7693,-1.8786,-1.9665,-2.0846,-2.1844,-2.1656,-2.2309,-2.3078,-2.3078,-2.3078,-2.2952,-2.2573,-2.2472,-2.2392,-2.2122,-2.3857,-2.5451,-2.5753,-2.6783,-2.7625,-2.7625,-2.7126,-2.6782,-2.6782,-2.6318,-2.5944,-2.5809,-2.5873,-2.618,-2.6714,-2.7426,-2.8147,-2.8775,-2.8886,-2.9391,-3.0444,-2.9954,-3.0139,-3.119,-3.119,-3.119,-3.119,-3.119,-3.119,-3.119,-3.119,-3.119,0.0,0.0,0.0,-0.6979,0.0,0.0,0.0,-0.743,-0.7822,0.0,0.0,0.0,0.0,0.0,0.0,0.0,0.0,0.0,0.0,0.0,0.0,0.0,0.0,0.0,-1.1106,-1.0867,-1.0306,-0.9144,-0.9192,-0.9096,-0.8649,-0.8731,-0.8804,-0.8804,-0.8804,-0.8804,-0.8804,-0.8804,-0.8804,-0.8804,-0.8804,-0.8804,-0.8804,-0.8804,-0.8804,-0.8804,-0.8804,-0.8804,-0.8804,-0.8804,-0.9453,-1.0646,-1.1856,-1.277,-1.3532,-1.4915,-1.541,-1.541,-1.541,-1.541,-1.5449,-1.5664,-1.5889,-1.6213,-1.6602,-1.7332,-1.8178,-1.9039,-1.9717,-2.0359,-2.0712,-2.1257,-2.1829,-2.2193,-2.2309,-2.2234,-2.1958,-2.1895,-2.1732,-2.1192,-2.2651,-2.4108,-2.4554,-2.5691,-2.6583,-2.6583,-2.6318,-2.6093,-2.6093,-2.5809,-2.548,-2.5151,-2.5121,-2.5198,-2.5484,-2.6425,-2.7266,-2.785,-2.851,-2.9302,-3.0276,-2.9988,-3.0235,-3.119,-3.119,-3.119,-3.119,-3.119,-3.119,-3.119,-3.119,-3.119,0.0,0.0,0.0,0.0,0.0,-0.7125,0.0,0.0,0.0,0.0,0.0,0.0,0.0,0.0,0.0,0.0,0.0,0.0,0.0,0.0,0.0,0.0,0.0,0.0,-1.1762,-1.1357,-1.0649,-0.9455,-0.9517,-0.9344,-0.871,-0.8729,-0.8804,-0.8804,-0.8804,-0.8804,-0.8804,-0.8804,-0.8804,-0.8804,-0.8804,-0.8804,-0.8804,-0.8804,-0.8804,-0.8804,-0.8804,-0.8804,-0.8804,-0.8804,-0.9085,-0.969,-1.1255,-1.2192,-1.2907,-1.4566,-1.5294,-1.541,-1.541,-1.541,-1.5469,-1.582,-1.6056,-1.6133,-1.6494,-1.6904,-1.7357,-1.7933,-1.828,-1.8667,-1.9574,-2.0109,-2.0538,-2.1131,-2.1381,-2.1455,-2.1355,-2.133,-2.1167,-2.0602,-2.1454,-2.2459,-2.3307,-2.4473,-2.5421,-2.558,-2.5495,-2.542,-2.542,-2.53,-2.5016,-2.4492,-2.4388,-2.443,-2.443,-2.5484,-2.6383,-2.6941,-2.806,-2.901,-2.9723,-3.0084,-3.0559,-3.119,-3.119,-3.119,-3.119,-3.119,-3.119,-3.119,-3.119,-3.119,0.0,0.0,0.0,0.0,-0.6979,0.0,0.0,0.0,-0.767,-0.8094,0.0,0.0,0.0,0.0,0.0,0.0,0.0,0.0,0.0,0.0,0.0,0.0,0.0,0.0,0.0,-1.0759,-1.0484,-1.0913,-0.9743,-0.9163,-0.9592,-0.9093,-0.8804,-0.8804,-0.8804,-0.8804,-0.8804,-0.8804,-0.8804,-0.8804,-0.8804,-0.8804,-0.8804,-0.8804,-0.8804,-0.8804,-0.8804,-0.8804,-0.8804,-0.8804,-0.8844,-0.9065,-1.0457,-1.1818,-1.3072,-1.4007,-1.4815,-1.541,-1.541,-1.541,-1.542,-1.5469,-1.5752,-1.6135,-1.6123,-1.6445,-1.6719,-1.6441,-1.7206,-1.8015,-1.7825,-1.9067,-2.0423,-2.0481,-2.1018,-2.1355,-2.092,-2.0806,-2.0589,-2.0012,-2.0469,-2.1314,-2.256,-2.3921,-2.4961,-2.5521,-2.506,-2.4686,-2.4686,-2.4208,-2.3804,-2.3729,-2.3714,-2.3939,-2.4552,-2.4732,-2.5108,-2.5741,-2.5953,-2.6565,-2.7764,-2.9421,-3.0559,-3.119,-3.119,-3.119,-3.119,-3.119,-3.119,-3.119,-3.119,-3.119,0.0,0.0,0.0,0.0,0.0,0.0,-0.7662,0.0,-0.7659,0.0,0.0,0.0,0.0,0.0,0.0,0.0,-0.9637,0.0,0.0,0.0,0.0,0.0,0.0,0.0,0.0,0.0,0.0,-1.1322,-1.0205,-0.9502,-0.958,-0.9061,-0.8804,-0.8804,-0.8804,-0.8804,-0.8804,-0.8804,-0.8804,-0.8804,-0.8804,-0.8804,-0.8804,-0.8804,-0.8804,-0.8804,-0.8804,-0.8804,-0.8804,-0.8804,-0.8911,-0.9085,-0.9702,-1.0971,-1.2663,-1.4277,-1.5108,-1.541,-1.541,-1.541,-1.541,-1.541,-1.5537,-1.5732,-1.6047,-1.6201,-1.6309,-1.6184,-1.6496,-1.7001,-1.7388,-1.8149,-1.8992,-1.983,-2.0287,-2.0439,-2.0213,-2.0162,-2.0087,-1.9849,-1.9999,-2.0462,-2.1452,-2.2636,-2.3698,-2.4357,-2.4208,-2.4029,-2.4029,-2.3774,-2.3595,-2.3595,-2.3595,-2.3714,-2.4014,-2.4403,-2.4701,-2.5016,-2.6426,-2.7635,-2.8568,-3.0044,-3.0918,-3.119,-3.119,-3.119,-3.119,-3.119,-3.119,-3.119,-3.119,-3.119,-0.811,0.0,0.0,0.0,0.0,0.0,0.0,0.0,0.0,0.0,0.0,0.0,0.0,0.0,0.0,0.0,0.0,0.0,0.0,0.0,0.0,0.0,0.0,0.0,0.0,0.0,0.0,-1.1509,-1.0345,-0.9665,-0.9795,-0.9137,-0.8804,-0.8804,-0.8804,-0.8804,-0.8804,-0.8804,-0.8804,-0.8804,-0.8804,-0.8804,-0.8804,-0.8804,-0.8804,-0.8804,-0.8804,-0.8804,-0.8804,-0.8804,-0.8931,-0.9125,-0.9631,-1.0669,-1.2121,-1.3798,-1.4773,-1.5244,-1.5244,-1.5312,-1.541,-1.541,-1.541,-1.5469,-1.5791,-1.5889,-1.5889,-1.5889,-1.598,-1.6153,-1.6871,-1.7377,-1.7924,-1.8851,-1.9307,-1.9547,-1.9397,-1.9359,-1.9409,-1.956,-1.9585,-1.9876,-2.0904,-2.1757,-2.2572,-2.326,-2.3508,-2.3595,-2.3595,-2.3595,-2.3595,-2.3595,-2.3595,-2.3595,-2.3595,-2.4059,-2.4373,-2.4567,-2.6528,-2.8015,-2.8862,-2.988,-3.0617,-3.0935,-3.0958,-3.1015,-3.119,-3.119,-3.119,-3.119,-3.119,-3.119,0.0,0.0,0.0,-0.7555,0.0,0.0,0.0,0.0,-0.752,0.0,0.0,0.0,0.0,0.0,0.0,0.0,0.0,0.0,0.0,0.0,0.0,0.0,0.0,0.0,0.0,0.0,-1.0801,-1.1816,-1.0056,-0.9454,-1.0713,-0.951,-0.8804,-0.8804,-0.8804,-0.8804,-0.8804,-0.8804,-0.8804,-0.8804,-0.8804,-0.8804,-0.8804,-0.8804,-0.8804,-0.8804,-0.8804,-0.8804,-0.8804,-0.8804,-0.8811,-0.9003,-1.0759,-1.1472,-1.1584,-1.1897,-1.3182,-1.4805,-1.4805,-1.5068,-1.541,-1.541,-1.541,-1.541,-1.543,-1.543,-1.543,-1.543,-1.5582,-1.5735,-1.5779,-1.6822,-1.7784,-1.7274,-1.813,-1.8907,-1.8367,-1.8254,-1.8405,-1.8895,-1.9008,-1.9579,-2.1377,-2.171,-2.1974,-2.2649,-2.3246,-2.3595,-2.3595,-2.3595,-2.3595,-2.3595,-2.3595,-2.3595,-2.3595,-2.3625,-2.3924,-2.4537,-2.5317,-2.6228,-2.7503,-2.8233,-2.9134,-3.0293,-3.0351,-3.0617,-3.119,-3.119,-3.119,-3.119,-3.119,-3.119,0.0,0.0,-0.8484,-0.8377,0.0,0.0,0.0,0.0,0.0,0.0,0.0,0.0,0.0,0.0,0.0,0.0,0.0,0.0,0.0,0.0,0.0,0.0,0.0,0.0,0.0,0.0,0.0,-1.2039,-1.0942,-1.0414,-1.0788,-0.9969,-0.9263,-0.8804,-0.8804,-0.8804,-0.8804,-0.8804,-0.8804,-0.8804,-0.8804,-0.8804,-0.8804,-0.8804,-0.8804,-0.8804,-0.8804,-0.8804,-0.8804,-0.8804,-0.9061,-0.9524,-1.0142,-1.09,-1.184,-1.293,-1.3948,-1.4785,-1.4785,-1.5059,-1.5371,-1.5088,-1.5,-1.5,-1.5,-1.4795,-1.4561,-1.4561,-1.4572,-1.4767,-1.5226,-1.6052,-1.6834,-1.7168,-1.8154,-1.8833,-1.8329,-1.8493,-1.8694,-1.8518,-1.848,-1.892,-2.0348,-2.0912,-2.151,-2.254,-2.3197,-2.3445,-2.3041,-2.334,-2.3595,-2.3595,-2.3595,-2.3595,-2.3595,-2.3595,-2.3894,-2.4537,-2.5195,-2.5918,-2.6789,-2.7879,-2.8642,-2.9032,-2.9861,-3.0393,-3.0617,-3.1015,-3.119,-3.119,-3.119,-3.119,-0.8804,-0.8804,0.0,-0.8677,-0.8163,0.0,-0.7769,0.0,-0.6892,0.0,0.0,0.0,0.0,0.0,0.0,0.0,0.0,0.0,0.0,-0.9136,0.0,0.0,0.0,0.0,0.0,0.0,-1.1022,-1.1672,-1.101,-1.0556,0.0,-1.0054,-0.951,-0.8804,-0.8804,-0.8804,-0.8804,-0.8804,-0.8804,-0.8804,-0.8804,-0.8804,-0.8804,-0.8804,-0.8804,-0.8804,-0.8804,-0.8804,-0.8804,-0.8804,-0.9211,-0.9814,-1.0064,-1.0813,-1.1927,-1.2945,-1.3744,-1.4375,-1.4678,-1.4863,-1.4932,-1.4824,-1.4678,-1.4551,-1.4551,-1.4355,-1.4107,-1.4326,-1.4291,-1.4335,-1.5008,-1.573,-1.6353,-1.661,-1.7566,-1.8292,-1.7727,-1.789,-1.8091,-1.794,-1.7915,-1.83,-1.9469,-2.0153,-2.099,-2.2175,-2.3063,-2.337,-2.2798,-2.3221,-2.3595,-2.3595,-2.3595,-2.3595,-2.3595,-2.3595,-2.3789,-2.4238,-2.4846,-2.5385,-2.5814,-2.7052,-2.7834,-2.8056,-2.9345,-3.0081,-3.0293,-3.0935,-3.119,-3.119,-3.119,-3.119]}]]